[[{"header":{"parameterUnit":"m.s-1","parameterCategory":1,"la1":30.6,"la2":29.2853,"lo1":-89.7004,"lo2":-87.6739,"dy":0.0162,"dx":0.0183,"nx":112,"ny":82,"refTime":"2023-03-08T06:00:00:Z","depth":0,"parameterNumber":2,"parameterNumberName":"U-component_of_WINDS"},"data":[0.0,0.0,0.0,0.0,0.0,0.0,0.0,0.0,0.0,0.0,0.0,0.0,0.0,0.0,0.0,0.0,0.0,0.0,0.0,0.0,0.0,0.0,0.0,0.0,0.0,0.0,0.0,0.0,0.0,0.0,0.0,0.0,0.0,0.0,0.0,0.0,0.0,0.0,0.0,0.0,0.0,0.0,0.0,0.0,0.0,0.0,0.0,0.0,0.0,0.0,0.0,0.0,0.0,0.0,0.0,0.0,0.0,0.0,0.0,0.0,0.0,0.0,0.0,0.0,0.0,0.0,0.0,0.0,0.0,0.0,0.0,0.0,0.0,0.0,0.0,0.0,0.0,0.0,0.0,0.0,0.0,0.0,0.0,0.0,0.0,0.0,0.0,0.0,0.0,0.0,0.0,-0.5021,-0.3038,-0.228,-0.3476,-0.4004,-0.5203,-0.7493,0.0,0.0,0.0,0.0,0.0,0.0,0.0,0.0,0.0,0.0,0.0,0.0,0.0,0.0,0.0,0.0,0.0,0.0,0.0,0.0,0.0,0.0,0.0,0.0,0.0,0.0,0.0,0.0,0.0,0.0,0.0,0.0,0.0,0.0,0.0,0.0,0.0,0.0,0.0,0.0,0.0,0.0,0.0,0.0,0.0,0.0,0.0,0.0,0.0,0.0,0.0,0.0,0.0,0.0,0.0,0.0,0.0,0.0,0.0,0.0,0.0,0.0,0.0,0.0,0.0,0.0,0.0,0.0,0.0,0.0,0.0,0.0,0.0,0.0,0.0,0.0,0.0,0.0,0.0,0.0,0.0,0.0,0.0,0.0,0.0,0.0,0.0,0.0,0.0,0.0,0.0,0.0,0.0,0.0,0.0,0.0,0.0,0.0,0.0,0.0,0.0,0.0,0.0,0.0,-0.5954,-0.3888,-0.2554,-0.2316,-0.3481,-0.4643,-0.6043,-0.7493,0.0,0.0,0.0,0.0,0.0,0.0,0.0,0.0,0.0,0.0,0.0,0.0,0.0,0.0,0.0,0.0,0.0,0.0,0.0,0.0,0.0,0.0,0.0,0.0,0.0,0.0,0.0,0.0,0.0,0.0,0.0,0.0,0.0,0.0,0.0,0.0,0.0,0.0,0.0,0.0,0.0,0.0,0.0,0.0,0.0,0.0,0.0,0.0,0.0,0.0,0.0,0.0,0.0,0.0,0.0,0.0,0.0,0.0,0.0,0.0,0.0,0.0,0.0,0.0,0.0,0.0,0.0,0.0,0.0,0.0,0.0,0.0,0.0,0.0,0.0,0.0,0.0,0.0,0.0,0.0,0.0,0.0,0.0,0.0,0.0,0.0,0.0,0.0,0.0,0.0,0.0,0.0,0.0,0.0,0.0,0.0,0.0,0.0,0.0,0.0,0.0,0.0,0.0,-0.6303,-0.5499,-0.4568,-0.3464,-0.332,-0.4538,-0.5274,-0.6324,-0.7607,-0.7919,0.0,0.0,0.0,0.0,0.0,0.0,0.0,0.0,0.0,0.0,0.0,0.0,0.0,0.0,0.0,0.0,0.0,0.0,0.0,0.0,0.0,0.0,0.0,0.0,0.0,0.0,0.0,0.0,0.0,0.0,0.0,0.0,0.0,0.0,0.0,0.0,0.0,0.0,0.0,0.0,0.0,0.0,0.0,0.0,0.0,0.0,0.0,0.0,0.0,0.0,0.0,0.0,0.0,0.0,0.0,0.0,0.0,0.0,0.0,0.0,0.0,0.0,0.0,0.0,0.0,0.0,0.0,0.0,0.0,0.0,0.0,0.0,0.0,0.0,0.0,0.0,0.0,0.0,0.0,0.0,0.0,0.0,0.0,0.0,0.0,0.0,0.0,0.0,0.0,0.0,0.0,0.0,0.0,0.0,0.0,0.0,0.0,0.0,0.0,0.0,0.0,0.0,-0.5964,-0.5259,-0.5349,-0.4554,-0.4403,-0.5481,-0.5961,-0.6649,-0.7654,-0.7902,0.0,0.0,0.0,0.0,0.0,0.0,0.0,0.0,0.0,0.0,0.0,0.0,0.0,0.0,0.0,0.0,0.0,0.0,0.0,0.0,0.0,0.0,0.0,0.0,0.0,0.0,0.0,0.0,0.0,0.0,0.0,0.0,0.0,0.0,0.0,0.0,0.0,0.0,0.0,0.0,0.0,0.0,0.0,0.0,0.0,0.0,0.0,0.0,0.0,0.0,0.0,0.0,0.0,0.0,0.0,0.0,0.0,0.0,0.0,0.0,0.0,0.0,0.0,0.0,0.0,0.0,0.0,0.0,0.0,0.0,0.0,0.0,0.0,0.0,0.0,0.0,0.0,0.0,0.0,0.0,0.0,0.0,0.0,0.0,0.0,0.0,0.0,0.0,0.0,0.0,0.0,0.0,0.0,0.0,0.0,0.0,0.0,0.0,0.0,0.0,0.0,0.0,-0.5993,-0.5349,-0.5359,-0.5359,-0.5272,-0.5371,-0.6569,-0.7359,-0.7604,-0.7746,0.0,0.0,0.0,0.0,0.0,0.0,0.0,0.0,0.0,0.0,0.0,0.0,0.0,0.0,0.0,0.0,0.0,0.0,0.0,0.0,0.0,0.0,0.0,0.0,0.0,0.0,0.0,0.0,0.0,0.0,0.0,0.0,0.0,0.0,0.0,0.0,0.0,0.0,0.0,0.0,0.0,0.0,0.0,0.0,0.0,0.0,0.0,0.0,0.0,0.0,0.0,0.0,0.0,0.0,0.0,0.0,0.0,0.0,0.0,0.0,0.0,0.0,0.0,0.0,0.0,0.0,0.0,0.0,0.0,0.0,0.0,0.0,0.0,0.0,0.0,0.0,0.0,0.0,0.0,0.0,0.0,0.0,0.0,0.0,0.0,0.0,0.0,0.0,0.0,0.0,0.0,0.0,0.0,0.0,0.0,0.0,0.0,0.0,0.0,0.0,0.0,0.0,-0.6614,-0.6428,0.0,-0.6428,-0.6551,-0.6641,-0.7154,-0.7475,-0.7716,0.0,0.0,0.0,0.0,0.0,0.0,0.0,0.0,0.0,0.0,0.0,0.0,0.0,0.0,0.0,0.0,0.0,0.0,0.0,0.0,0.0,0.0,0.0,0.0,0.0,0.0,0.0,0.0,0.0,0.0,0.0,0.0,0.0,0.0,0.0,0.0,0.0,0.0,0.0,0.0,0.0,0.0,0.0,0.0,0.0,0.0,0.0,0.0,0.0,0.0,0.0,0.0,0.0,0.0,0.0,0.0,0.0,0.0,0.0,0.0,0.0,0.0,0.0,0.0,0.0,0.0,0.0,0.0,0.0,0.0,0.0,0.0,0.0,0.0,0.0,0.0,0.0,0.0,0.0,0.0,0.0,0.0,0.0,0.0,0.0,0.0,0.0,0.0,0.0,0.0,0.0,0.0,0.0,0.0,0.0,0.0,0.0,0.0,0.0,0.0,0.0,0.0,-0.697,-0.7082,-0.7139,0.0,-0.7139,-0.7183,-0.7288,-0.7299,-0.7424,-0.7726,0.0,0.0,0.0,0.0,0.0,0.0,0.0,0.0,0.0,0.0,0.0,0.0,0.0,0.0,0.0,0.0,0.0,0.0,0.0,0.0,0.0,0.0,0.0,0.0,0.0,0.0,0.0,0.0,0.0,0.0,0.0,0.0,0.0,0.0,0.0,0.0,0.0,0.0,0.0,0.0,0.0,0.0,0.0,0.0,0.0,0.0,0.0,0.0,0.0,0.0,0.0,0.0,0.0,0.0,0.0,0.0,0.0,0.0,0.0,0.0,0.0,0.0,0.0,0.0,0.0,0.0,0.0,0.0,0.0,0.0,0.0,0.0,0.0,0.0,0.0,0.0,0.0,0.0,0.0,0.0,0.0,0.0,0.0,0.0,0.0,0.0,0.0,0.0,0.0,0.0,0.0,0.0,0.0,0.0,0.0,0.0,0.0,0.0,0.0,0.0,0.0,0.0,-0.7102,-0.7139,-0.7139,-0.7139,-0.7139,-0.7139,-0.7139,-0.7139,-0.7272,0.0,0.0,0.0,0.0,0.0,0.0,0.0,0.0,0.0,0.0,0.0,0.0,0.0,0.0,0.0,0.0,0.0,0.0,0.0,0.0,0.0,0.0,0.0,0.0,0.0,0.0,0.0,0.0,0.0,0.0,0.0,0.0,0.0,0.0,0.0,0.0,0.0,0.0,0.0,0.0,0.0,0.0,0.0,0.0,0.0,0.0,0.0,0.0,0.0,0.0,0.0,0.0,0.0,0.0,0.0,0.0,0.0,0.0,0.0,0.0,0.0,0.0,0.0,0.0,0.0,0.0,0.0,0.0,0.0,0.0,0.0,0.0,0.0,0.0,0.0,0.0,0.0,0.0,0.0,0.0,0.0,0.0,0.0,0.0,0.0,0.0,0.0,0.0,0.0,0.0,0.0,0.0,0.0,0.0,0.0,0.0,0.0,0.0,0.0,0.0,0.0,0.0,0.0,-0.7115,-0.7139,-0.7139,-0.7139,-0.7139,-0.7139,-0.7139,-0.7139,-0.7272,-0.758,0.0,0.0,0.0,0.0,0.0,0.0,0.0,0.0,0.0,0.0,0.0,0.0,0.0,0.0,0.0,0.0,0.0,0.0,0.0,0.0,0.0,0.0,0.0,0.0,0.0,0.0,0.0,0.0,0.0,0.0,0.0,0.0,0.0,0.0,0.0,0.0,0.0,0.0,0.0,0.0,0.0,0.0,0.0,0.0,0.0,0.0,0.0,0.0,0.0,0.0,0.0,0.0,0.0,0.0,0.0,0.0,0.0,0.0,0.0,0.0,0.0,0.0,0.0,0.0,0.0,0.0,0.0,0.0,0.0,0.0,0.0,0.0,0.0,0.0,0.0,0.0,0.0,0.0,0.0,0.0,0.0,0.0,0.0,0.0,0.0,0.0,0.0,0.0,0.0,0.0,0.0,0.0,0.0,0.0,0.0,0.0,0.0,0.0,0.0,0.0,0.0,0.0,-0.7207,-0.7234,-0.7255,-0.7316,-0.7322,-0.7322,-0.7322,-0.7268,-0.7336,-0.7584,0.0,0.0,0.0,0.0,0.0,0.0,0.0,0.0,0.0,0.0,0.0,0.0,0.0,0.0,0.0,0.0,0.0,0.0,0.0,0.0,0.0,0.0,0.0,0.0,0.0,0.0,0.0,0.0,0.0,0.0,0.0,0.0,0.0,0.0,0.0,0.0,0.0,0.0,0.0,0.0,0.0,0.0,0.0,0.0,0.0,0.0,0.0,0.0,0.0,0.0,0.0,0.0,0.0,0.0,0.0,0.0,0.0,0.0,0.0,0.0,0.0,0.0,0.0,0.0,0.0,0.0,0.0,0.0,0.0,0.0,0.0,0.0,0.0,0.0,0.0,0.0,0.0,0.0,0.0,0.0,0.0,0.0,0.0,0.0,0.0,0.0,0.0,0.0,0.0,0.0,0.0,0.0,0.0,0.0,0.0,0.0,0.0,0.0,0.0,0.0,0.0,0.0,-0.7333,-0.737,-0.7431,-0.7584,-0.76,-0.76,-0.76,-0.7472,-0.7451,-0.759,0.0,0.0,0.0,0.0,0.0,0.0,0.0,0.0,0.0,0.0,0.0,0.0,0.0,0.0,0.0,0.0,0.0,0.0,0.0,0.0,0.0,0.0,0.0,0.0,0.0,0.0,0.0,0.0,0.0,0.0,0.0,0.0,0.0,0.0,0.0,0.0,0.0,0.0,0.0,0.0,0.0,0.0,0.0,0.0,0.0,0.0,0.0,0.0,0.0,0.0,0.0,0.0,0.0,0.0,0.0,0.0,0.0,0.0,0.0,0.0,-0.9106,0.0,0.0,0.0,0.0,0.0,0.0,0.0,0.0,0.0,0.0,0.0,0.0,0.0,0.0,0.0,0.0,0.0,0.0,0.0,0.0,0.0,0.0,0.0,0.0,0.0,0.0,0.0,0.0,0.0,0.0,0.0,0.0,0.0,0.0,0.0,0.0,0.0,0.0,0.0,0.0,0.0,-0.735,-0.737,-0.7431,-0.7584,-0.76,-0.76,-0.76,-0.757,-0.7563,-0.7597,-0.76,0.0,0.0,0.0,0.0,0.0,0.0,0.0,0.0,0.0,0.0,0.0,0.0,0.0,0.0,0.0,0.0,0.0,0.0,0.0,0.0,0.0,0.0,0.0,0.0,0.0,0.0,0.0,0.0,0.0,0.0,0.0,0.0,0.0,0.0,0.0,0.0,0.0,0.0,0.0,0.0,0.0,0.0,0.0,0.0,0.0,0.0,0.0,0.0,0.0,0.0,0.0,0.0,0.0,0.0,0.0,0.0,0.0,0.0,0.0,0.0,-0.987,0.0,0.0,0.0,0.0,0.0,0.0,0.0,0.0,0.0,0.0,0.0,0.0,0.0,0.0,0.0,0.0,0.0,0.0,0.0,0.0,0.0,0.0,0.0,0.0,0.0,0.0,0.0,0.0,0.0,0.0,0.0,0.0,0.0,0.0,0.0,0.0,0.0,0.0,0.0,0.0,-0.7461,-0.7539,-0.7641,-0.7794,-0.7811,-0.7811,-0.7811,-0.7743,-0.7702,-0.7702,-0.7702,0.0,0.0,0.0,0.0,0.0,0.0,0.0,0.0,0.0,0.0,0.0,0.0,0.0,0.0,0.0,0.0,0.0,0.0,0.0,0.0,0.0,0.0,0.0,0.0,0.0,0.0,0.0,0.0,0.0,0.0,0.0,0.0,0.0,0.0,0.0,0.0,0.0,0.0,0.0,0.0,0.0,0.0,0.0,0.0,0.0,0.0,0.0,0.0,0.0,0.0,0.0,0.0,0.0,-0.9827,-0.9981,-1.0597,-1.026,-1.0559,-1.1322,-1.0868,-1.0976,-1.1317,-0.9632,0.0,0.0,0.0,0.0,0.0,0.0,0.0,0.0,0.0,0.0,0.0,0.0,0.0,0.0,0.0,0.0,0.0,0.0,0.0,0.0,0.0,0.0,0.0,0.0,-0.928,-0.8268,0.0,0.0,0.0,0.0,0.0,0.0,0.0,0.0,0.0,0.0,0.0,0.0,-0.758,-0.7723,-0.7868,-0.8024,-0.8038,-0.8038,-0.8038,-0.7923,-0.7838,-0.7814,-0.7811,-0.7811,0.0,0.0,0.0,0.0,0.0,0.0,0.0,0.0,0.0,0.0,0.0,0.0,0.0,0.0,0.0,0.0,0.0,0.0,0.0,0.0,0.0,0.0,0.0,0.0,0.0,0.0,0.0,0.0,0.0,0.0,0.0,0.0,-1.2007,-1.3906,0.0,0.0,0.0,0.0,0.0,0.0,0.0,0.0,0.0,0.0,0.0,0.0,0.0,-0.81,-0.7552,-0.8595,-0.9391,-0.987,-1.0221,-1.0326,-1.0178,-1.0524,-1.04,-0.9891,-0.9876,0.0,-1.1152,-0.921,0.0,0.0,0.0,0.0,0.0,0.0,0.0,0.0,0.0,0.0,0.0,0.0,0.0,0.0,0.0,0.0,0.0,0.0,0.0,0.0,0.0,0.0,-0.837,-0.9702,-0.9392,-0.8767,0.0,-0.8012,-0.736,-0.7319,-0.7238,0.0,0.0,0.0,0.0,0.0,0.0,0.0,-0.758,-0.7723,-0.7868,-0.8024,-0.8038,-0.8038,-0.8038,-0.8021,-0.7953,-0.7821,-0.7811,-0.7811,-0.7811,-0.7794,0.0,0.0,0.0,0.0,0.0,0.0,0.0,0.0,0.0,0.0,0.0,0.0,0.0,0.0,0.0,0.0,0.0,0.0,0.0,0.0,0.0,0.0,0.0,0.0,0.0,0.0,0.0,0.0,0.0,-0.7317,-1.4006,-1.4127,-1.4812,-1.4577,0.0,0.0,0.0,0.0,0.0,0.0,0.0,0.0,0.0,-0.8677,-0.8104,-0.7556,-0.6988,-0.7444,-0.7804,-0.8028,-0.8197,-0.8255,-0.812,-0.8339,-0.8443,-0.8443,-0.8122,-0.8448,-0.9156,-0.8317,-0.7254,-0.6137,0.0,0.0,0.0,0.0,-0.3706,-0.3645,-0.4129,-0.4411,0.0,-0.5106,0.0,0.0,0.0,0.0,0.0,0.0,0.0,0.0,0.0,0.0,-0.6751,-0.8399,-0.8532,-0.8273,-0.8295,-0.7911,-0.757,0.0,-0.7387,-0.7397,-0.7397,0.0,0.0,0.0,0.0,-0.7553,-0.7699,-0.7848,-0.7967,-0.8031,-0.8038,-0.8038,-0.8038,-0.8038,-0.8011,-0.7943,-0.794,-0.794,-0.794,-0.794,-0.797,0.0,0.0,0.0,0.0,0.0,0.0,0.0,0.0,0.0,0.0,0.0,0.0,0.0,0.0,0.0,0.0,0.0,0.0,0.0,0.0,0.0,0.0,0.0,0.0,0.0,0.0,0.0,0.0,-0.9503,-1.477,-1.4384,-1.5345,-1.5395,0.0,0.0,0.0,0.0,0.0,0.0,-1.0602,-0.9389,-0.8463,-0.8008,-0.7306,-0.6536,-0.5824,-0.58,-0.5747,-0.5751,-0.6136,-0.6136,-0.5751,-0.6136,-0.6279,-0.6196,-0.5901,-0.595,-0.6231,-0.6751,-0.6142,-0.496,-0.4473,-0.3649,-0.2686,-0.2686,-0.2594,-0.2581,-0.3342,-0.3859,-0.4357,-0.5051,-0.5352,-0.5261,-0.4436,0.0,0.0,0.0,0.0,-0.3202,-0.4738,-0.4882,-0.5017,-0.6458,-0.676,-0.681,-0.691,-0.6854,-0.7009,0.0,-0.7546,-0.76,-0.76,0.0,0.0,0.0,0.0,-0.7692,-0.7797,-0.7943,-0.8038,-0.8038,-0.8038,-0.8038,-0.8038,-0.8038,-0.8038,-0.8038,-0.8038,-0.8038,-0.8038,-0.8038,-0.8038,-0.8038,0.0,0.0,0.0,0.0,0.0,0.0,0.0,0.0,0.0,0.0,0.0,0.0,0.0,0.0,0.0,0.0,0.0,0.0,0.0,0.0,0.0,0.0,0.0,0.0,0.0,0.0,0.0,0.0,0.0,-1.5975,-1.6752,0.0,0.0,0.0,0.0,-1.2956,-1.2161,-1.1312,-1.0444,-0.9263,-0.8002,-0.673,-0.5453,-0.4321,-0.3484,-0.3484,-0.3481,-0.3481,-0.4899,-0.4845,-0.3536,-0.4903,-0.4412,-0.2504,-0.3157,-0.3104,-0.2609,-0.4217,-0.4777,-0.4599,-0.3388,-0.2808,-0.2685,-0.2685,-0.2638,-0.2452,-0.2252,-0.2983,-0.3896,-0.3926,-0.4082,-0.4267,-0.4193,-0.3167,0.0,0.0,-0.2336,-0.2126,-0.2992,-0.3298,-0.3529,-0.3873,-0.406,-0.421,-0.4216,-0.4212,-0.4883,0.0,-0.7685,-0.76,-0.76,0.0,-0.7584,-0.7597,-0.7712,-0.7801,-0.7811,-0.7943,-0.8038,-0.8038,-0.8038,-0.8038,-0.8038,-0.8038,-0.8038,-0.8038,-0.8038,-0.8038,-0.8038,-0.8038,-0.8038,-0.8038,-0.6731,0.0,0.0,0.0,0.0,0.0,0.0,0.0,0.0,0.0,0.0,0.0,0.0,0.0,0.0,0.0,0.0,0.0,0.0,0.0,0.0,0.0,0.0,0.0,0.0,0.0,0.0,0.0,0.0,-1.6781,-1.7652,0.0,-1.5932,-1.5278,-1.4598,-1.3754,-1.2285,-1.1069,-1.0316,-0.8393,-0.7003,-0.6358,-0.5178,-0.4395,-0.407,-0.3616,-0.3335,-0.3279,-0.3329,-0.3106,-0.2613,-0.3161,-0.2943,-0.2174,-0.1997,-0.1719,-0.1443,-0.1091,-0.1521,-0.2346,-0.1889,-0.1374,-0.0964,-0.0964,-0.0939,-0.0983,-0.1428,-0.1952,-0.2492,-0.3134,-0.2896,-0.2383,-0.2756,-0.1973,-0.1084,-0.1626,-0.1392,-0.1307,-0.2508,-0.2628,-0.274,-0.3669,-0.3997,-0.4016,-0.4016,-0.4016,-0.4309,-0.5174,-0.5971,-0.6699,-0.767,-0.7726,-0.7665,-0.7855,-0.7841,-0.7845,-0.7943,-0.8007,-0.8038,-0.8038,-0.8038,-0.8038,-0.8038,-0.8038,-0.8038,-0.8038,-0.8038,-0.8038,-0.8038,-0.7132,-0.6731,-0.6731,-0.4522,-0.3439,0.0,0.0,0.0,0.0,0.0,0.0,0.0,0.0,0.0,0.0,0.0,0.0,0.0,0.0,0.0,0.0,0.0,0.0,0.0,0.0,0.0,0.0,0.0,0.0,0.0,0.0,-1.731,-1.7349,-1.8155,-1.8237,-1.7092,-1.6389,-1.5677,-1.49,-1.2893,-1.1273,-1.0204,-0.8019,-0.6401,-0.5499,-0.4474,-0.3741,-0.3345,-0.2621,-0.2232,-0.2174,-0.1952,-0.1675,-0.1452,-0.173,-0.1675,-0.1396,-0.0668,-0.0333,-0.0278,0.0944,0.0952,0.0057,-0.0224,0.0115,0.0777,0.0179,0.0187,0.0262,-0.0991,-0.1459,-0.1778,-0.2752,-0.2306,-0.1455,-0.1854,-0.1183,-0.0403,-0.0731,-0.0604,-0.0551,-0.1487,-0.1551,-0.1511,-0.2414,-0.2614,-0.2614,-0.2614,-0.2614,-0.2815,-0.3215,-0.4375,-0.564,-0.7117,-0.7186,-0.734,-0.7979,-0.7987,-0.7943,-0.8099,-0.8072,-0.8038,-0.8038,-0.8038,-0.8038,-0.8038,-0.8089,-0.8096,-0.8041,-0.8089,-0.7892,-0.7338,-0.6469,-0.578,-0.5374,-0.3147,-0.1738,-0.1346,0.0,0.0,0.0,0.0,0.0,0.0,0.0,0.0,0.0,0.0,0.0,0.0,0.0,0.0,0.0,0.0,0.0,0.0,0.0,0.0,0.0,0.0,0.0,-0.944,-1.454,-1.8268,-1.783,-1.8333,-1.8531,-1.8006,-1.7536,-1.6983,-1.6346,-1.403,-1.1931,-1.016,-0.8156,-0.6097,-0.3994,-0.3214,-0.2255,-0.1117,-0.0336,0.0,0.0,-0.0671,-0.0615,0.0056,-0.0671,-0.0615,0.0112,0.0838,0.1174,0.1229,0.1952,0.2388,0.2452,0.1527,0.1688,0.2339,0.0678,0.0576,0.1009,-0.0899,-0.1519,-0.1736,-0.2717,-0.238,-0.1574,-0.1532,-0.0826,0.0,0.0,0.0,0.0,0.0,0.0,0.0,0.0,0.0,0.0,0.0,0.0,-0.0404,-0.1711,-0.3015,-0.4318,-0.5727,-0.5929,-0.6472,-0.8034,-0.8133,0.0,-0.8245,-0.8133,-0.8041,-0.8045,-0.8045,-0.7945,-0.7945,-0.8083,-0.8099,-0.7846,-0.8076,-0.7477,-0.6034,-0.593,-0.5263,-0.3922,-0.2586,-0.1348,0.0,0.0,0.0,0.0,0.0,0.0,0.0,0.0,0.0,0.0,0.0,0.0,0.0,0.0,0.0,0.0,0.0,0.0,0.0,0.0,0.0,0.0,0.0,-1.6773,-1.6096,-1.7684,-1.8997,-1.9197,-1.9467,-1.9491,-1.9092,-1.8722,-1.799,-1.6768,-1.3742,-1.1284,-0.9661,-0.5966,-0.3493,-0.2709,-0.1467,-0.0877,-0.1111,0.0167,0.0556,0.0,0.0892,0.1395,0.1563,0.1395,0.1395,0.1619,0.2397,0.2674,0.2732,0.3566,0.3925,0.384,0.2464,0.218,0.2593,0.2046,0.1596,0.1144,-0.0069,-0.043,-0.0517,-0.0752,-0.0692,-0.0473,-0.0404,-0.0248,0.0,0.0,0.0,0.0,0.0,0.0,0.0,0.0,0.0,0.0,0.0,0.0,-0.0101,-0.0504,-0.0807,-0.1812,-0.4117,-0.5322,-0.6142,-0.6578,-0.7459,0.0,-0.8099,-0.8065,-0.8082,-0.8197,-0.8208,-0.7791,-0.6862,-0.6791,-0.6347,-0.5125,-0.5144,-0.4945,-0.452,-0.3636,-0.2449,-0.114,-0.0736,-0.032,0.0,0.0,0.0,0.0,0.0,0.0,0.0,0.0,0.0,0.0,0.0,0.0,0.0,0.0,0.0,0.0,0.0,0.0,0.0,0.0,0.0,0.0,-1.6624,-1.9005,-1.9002,-1.9277,-1.957,-1.9814,-2.0063,-1.9981,-1.9424,-1.9199,-1.8512,-1.7104,-1.3576,-1.0456,-0.8092,-0.3991,-0.0878,0.0912,0.1518,0.1745,0.164,0.2199,0.2261,0.1876,0.2709,0.3101,0.3101,0.2775,0.2666,0.2668,0.3118,0.3345,0.3403,0.4247,0.4596,0.0,0.0,0.0,0.0,0.0,0.2019,0.1143,0.0274,0.0,0.0,0.0,0.0,0.0,0.0,0.0,0.0,0.0,0.0,0.0,0.0,0.0,0.0,0.0,0.0,0.0,0.0,0.0,0.0,0.0,0.0,0.0,-0.2012,-0.3417,-0.4533,-0.5177,-0.5854,-0.6342,-0.6393,-0.6356,-0.6353,-0.6524,-0.6532,-0.6225,-0.5406,-0.5342,0.0,0.0,0.0,-0.3759,-0.3152,-0.1833,0.0,0.0,0.0,0.0,0.0,0.0,0.0,0.0,0.0,0.0,0.0,0.0,0.0,0.0,0.0,0.0,0.0,0.0,0.0,0.0,0.0,0.0,0.0,0.0,0.0,0.0,-1.8173,-1.892,-1.9244,-1.948,-1.9645,-1.9754,-2.0003,-1.9824,-1.8993,-1.8902,-1.8385,-1.713,-1.2769,-0.8659,-0.526,0.0,0.0,0.0,0.0,0.5343,0.5734,0.5226,0.4865,0.466,0.4819,0.4822,0.4613,0.4075,0.3701,0.3539,0.3555,0.3572,0.3596,0.4403,0.4792,0.4867,0.4088,0.4291,0.4726,0.3348,0.2277,0.1341,0.0605,0.0,0.0,0.0216,0.0148,0.0,0.008,0.0082,0.0,0.0,0.0,0.0,0.0,0.0,0.0,0.0,0.0,0.0,0.0,0.0,0.0,0.0,0.0,0.0,0.0,-0.1109,-0.2428,-0.38,-0.3957,-0.4039,-0.421,-0.4058,-0.4019,-0.4028,0.0,0.0,-0.3828,-0.3886,-0.3893,-0.3519,-0.3679,-0.3103,-0.1869,-0.0624,0.0,0.0,0.0,0.0,0.0,0.0,0.0,0.0,0.0,0.0,0.0,0.0,0.0,0.0,0.0,0.0,0.0,0.0,0.0,0.0,0.0,0.0,0.0,0.0,0.0,-1.6922,-1.7726,-1.8279,-1.8617,-1.7769,-1.7555,-1.8788,-1.8429,-1.7803,-1.7084,-1.7063,-1.6641,-1.5528,-0.8145,-0.2437,0.0464,0.6892,1.024,0.9729,1.0195,0.9626,0.7928,0.839,0.775,0.6105,0.0,0.0,0.6185,0.6587,0.6152,0.5093,0.5101,0.4853,0.4474,0.4619,0.485,0.5034,0.5064,0.5044,0.4981,0.4098,0.3211,0.241,0.221,0.1231,0.0211,0.1687,0.1164,0.0152,0.0861,0.057,0.0,0.0,0.0,0.0,0.0,0.0,0.0,0.0,0.0,0.0,0.0,0.0,0.0,0.0,0.0,0.0,0.0,-0.1109,-0.2116,-0.2426,-0.3323,-0.4021,-0.4036,-0.4024,-0.4039,-0.4101,-0.421,-0.3698,-0.2674,-0.258,-0.2054,-0.0808,-0.0821,-0.0731,-0.0424,-0.0106,0.0,0.0,0.0,0.0,0.0,0.0,0.0,0.0,0.0,0.0,0.0,0.0,0.0,0.0,0.0,0.0,0.0,0.0,0.0,0.0,0.0,-1.0234,0.0,0.0,-1.5778,-1.6502,-1.6939,-1.7082,-1.6691,-1.5618,-1.5491,-1.7188,-1.6622,-1.5995,-1.578,-1.3846,-1.2142,-1.1046,-0.3618,0.2046,0.4802,1.0663,1.4154,1.4574,1.4071,1.3136,1.1818,1.138,1.0482,0.9132,0.9832,0.9665,0.8678,0.8298,0.777,0.7095,0.6519,0.591,0.5216,0.5026,0.5043,0.5254,0.5332,0.5315,0.5123,0.4326,0.3747,0.3278,0.2878,0.2096,0.1511,0.2432,0.2151,0.1564,0.1984,0.1512,0.0831,0.0764,0.0438,0.0,0.0,0.0,0.0,0.0,0.0,0.0,0.0,0.0,0.0,0.0,0.0,0.0,0.0,-0.0605,-0.1008,-0.1008,-0.1611,-0.2013,-0.2013,-0.2013,-0.202,-0.2141,-0.2143,-0.1845,-0.1139,-0.115,-0.0733,0.0,0.0,0.0,0.0,0.0,0.0,0.0,0.0,0.0,0.0,0.0,0.0,0.0,0.0,0.0,0.0,0.0,0.0,0.0,0.0,0.0,0.0,0.0,-0.8756,-1.1106,-1.1726,-1.241,-1.4125,-1.4927,-1.538,-1.5628,-1.5652,-1.5301,-1.4316,-1.3447,-1.3256,-1.4094,-1.4086,-1.3838,-1.3344,-0.9455,-0.631,-0.4857,0.1468,0.6643,0.9864,1.4213,1.7365,1.9061,1.7648,1.6519,1.5786,1.4461,1.3274,1.2261,1.2406,1.1987,1.114,1.0148,0.9475,0.9044,0.785,0.6879,0.6136,0.5619,0.5503,0.562,0.5491,0.5428,0.5296,0.4553,0.4151,0.3949,0.3413,0.3011,0.2755,0.3092,0.3032,0.2897,0.312,0.256,0.1782,0.1656,0.1017,0.026,0.0088,0.0,0.0,0.0,0.0,0.0,0.0,0.0,0.0,0.0,0.0,0.0,0.0,0.0,0.0,0.0,0.0,0.0,0.0,0.0,0.0,0.0,0.0,0.0,0.0,0.0,0.0,0.0,0.0,0.0,0.0,0.0,0.0,0.0,0.0,0.0,0.0,0.0,0.0,0.0,0.0,0.0,-0.1809,-0.3273,-0.5052,-0.6313,-0.748,-0.8955,0.0,0.0,-1.1766,-1.3405,-1.4185,-1.4579,-1.4668,-1.5065,-1.5091,-1.4209,-1.3411,-1.2706,-1.1984,-1.1822,-1.0694,-0.7722,-0.9925,-1.0507,-0.7575,-0.3441,0.0152,0.2851,0.802,1.321,1.8172,2.132,2.2588,2.1713,2.1522,2.0394,1.8226,1.7865,1.649,1.4178,1.4778,1.4176,1.2474,1.2944,1.2194,1.0378,0.8832,0.7882,0.7439,0.6792,0.6506,0.6461,0.5686,0.5428,0.5362,0.5292,0.4688,0.4082,0.4821,0.4015,0.2947,0.457,0.4044,0.2887,0.3761,0.3475,0.2608,0.178,0.1491,0.118,0.0254,0.0,0.0,0.0,0.0,0.0,0.0,0.0,0.0,0.0,0.0,0.0,0.0,0.0,0.0,0.0,0.0,0.0,0.0,0.0,0.0,0.0,0.0,0.0,0.0,0.0,0.0,0.0,0.0,0.0,0.0,0.0,0.0,0.0,0.0,0.0,0.0,0.0,0.0,0.0,0.0,0.0,-0.0294,-0.2224,0.0,0.0,-0.7218,-0.939,-1.1689,-1.2037,-1.2343,-1.39,-1.3923,-1.3466,-1.289,-1.2602,-1.209,0.0,-1.0437,-1.0132,-0.9947,-0.8448,-0.6364,-0.3756,-0.3212,-0.2711,-0.1896,0.1906,0.5654,0.8933,1.2675,1.6007,1.8796,2.1462,2.2993,2.3191,2.2526,2.1578,2.0422,1.9735,1.8555,1.6809,1.6833,1.6098,1.4686,1.4326,1.3357,1.1825,1.0017,0.9259,0.9238,0.777,0.7264,0.7437,0.7051,0.6924,0.6793,0.5752,0.516,0.4888,0.5292,0.4891,0.4417,0.516,0.4916,0.4488,0.4968,0.4094,0.2858,0.2567,0.1633,0.0579,0.0084,0.0,0.0,0.0,0.0,0.0,0.0,0.0,0.0,0.0,0.0,0.0,0.0,0.0,0.0,0.0,0.0,0.0,0.0,0.0,0.0,0.0,0.0,0.0,0.0,0.0,0.0,0.0,0.0,0.0,0.0,0.0,0.0,0.0,0.0,0.0,0.0,0.0,0.0,0.0,0.0829,0.1319,0.1008,0.0,0.0,-0.4153,-0.6451,-0.899,-1.1252,-1.1812,-1.2257,-1.3595,-1.3084,-1.2276,-1.189,-1.0476,-0.8939,-0.7589,-0.7103,-0.686,-0.6596,-0.432,-0.1994,-0.0054,0.3209,0.5075,0.4499,0.7324,1.0226,1.2715,1.5636,1.7696,1.8676,2.0933,2.2765,2.3965,2.3182,2.2593,2.2239,2.1455,2.0442,1.9176,1.8804,1.8054,1.6969,1.5758,1.4642,1.3513,1.1642,1.0923,1.0938,0.8936,0.8272,0.844,0.813,0.8027,0.7832,0.6601,0.6145,0.6145,0.6145,0.6145,0.6079,0.5815,0.5833,0.5892,0.5768,0.4729,0.3577,0.342,0.2136,0.08,0.0814,0.0661,0.0417,0.0417,0.0424,0.0347,0.0089,0.0,0.0,0.0,0.0,0.0,0.0,0.0,0.0,0.0,0.0,0.0,0.0,0.0,0.0,0.0,0.0,0.0103,0.0519,0.0531,0.0758,0.1092,0.1105,0.1226,0.1232,0.1232,0.1232,0.1232,0.1232,0.1232,0.1232,0.1258,0.1276,0.1286,0.2365,0.3004,0.0,0.0,-0.1995,-0.3752,-0.5857,-0.8153,-1.0791,-1.1518,-1.1833,-1.2598,-1.2168,-1.1893,-1.2689,-0.9631,-0.6406,-0.4551,-0.3543,-0.2492,-0.103,0.0369,0.1925,0.3896,0.8338,1.1471,0.0,1.3034,1.3556,1.3386,1.6608,1.8884,1.9723,2.1493,2.2953,2.3978,2.4281,2.414,2.3544,2.3382,2.2491,2.0914,2.0716,2.0135,1.9248,1.7726,1.6539,1.5614,1.387,1.2905,1.2384,1.0498,0.9752,0.9608,0.844,0.8027,0.8027,0.7962,0.7897,0.7897,0.7897,0.7897,0.7762,0.6915,0.6658,0.6502,0.5819,0.5599,0.5351,0.4411,0.3487,0.2799,0.28,0.2198,0.1544,0.1544,0.157,0.1275,0.0267,0.0,0.0,0.0,0.0,0.0,0.0,0.0,0.0,0.0,0.0,0.0,0.0,0.0,0.0,0.0,0.0,0.0509,0.186,0.1968,0.2524,0.4021,0.4032,0.4174,0.4355,0.4359,0.4359,0.4359,0.4359,0.4359,0.4359,0.4501,0.4533,0.4356,0.4687,0.475,0.0,0.0,0.129,-0.0418,-0.3077,-0.5785,-0.737,-0.8651,-0.957,-0.9965,-0.9847,-0.9251,-0.7906,-0.428,-0.1215,-0.0495,0.0941,0.2133,0.2598,0.3844,0.5549,0.7893,0.9429,0.0,0.0,0.0,0.0,1.5825,1.7716,1.9046,1.9652,2.083,2.1972,2.2965,2.3545,2.3848,2.3868,2.3947,2.3643,2.2901,2.2048,2.123,2.0496,1.914,1.8087,1.7273,1.5482,1.4164,1.332,1.2231,1.166,1.1479,1.0753,1.0501,1.0438,0.9894,1.0078,1.0305,0.8597,0.8027,0.7962,0.7632,0.7177,0.6692,0.6479,0.5569,0.449,0.4252,0.3505,0.2795,0.2795,0.264,0.2476,0.2476,0.2549,0.2467,0.2174,0.1547,0.1064,0.1102,0.0467,0.0,0.0,0.0,0.0,0.0,0.0,0.0,0.0,0.0,0.0,0.0,0.0807,0.1515,0.193,0.2771,0.353,0.3992,0.404,0.41,0.4282,0.4286,0.4419,0.447,0.447,0.447,0.447,0.4567,0.4601,0.4577,0.5582,0.6111,0.0,0.5497,0.3976,0.207,-0.0335,-0.2752,-0.4424,-0.5408,-0.6061,-0.654,-0.6273,-0.5486,-0.3947,-0.0583,0.2165,0.2816,0.3956,0.4853,0.5249,0.6373,0.7992,1.0108,1.0669,1.1379,0.0,0.0,0.0,1.7625,1.8769,1.9656,2.0286,2.0894,2.1645,2.2538,2.3187,2.3694,2.4005,2.4315,2.4328,2.4046,2.3172,2.2422,2.1822,2.0719,1.9844,1.909,1.725,1.5901,1.4904,1.3931,1.3236,1.2655,1.2264,1.2075,1.1966,1.1431,1.1682,1.195,1.0053,0.9545,0.9666,0.9099,0.8522,0.7962,0.746,0.6221,0.4953,0.5041,0.4184,0.322,0.365,0.3599,0.3467,0.3467,0.3573,0.3603,0.315,0.2569,0.2139,0.222,0.1357,0.0556,0.0675,0.0293,0.0,0.0,0.0,0.0,0.0,0.0,0.0,0.0,0.1209,0.2213,0.2715,0.396,0.492,0.5469,0.5532,0.5627,0.5762,0.5769,0.5925,0.6031,0.6033,0.6033,0.6033,0.6127,0.6155,0.6122,0.7111,0.7631,0.7727,0.7036,0.5972,0.3694,0.224,0.066,-0.2055,-0.1977,-0.1622,-0.2533,-0.174,-0.0913,0.0,0.0,0.4122,0.5577,0.5823,0.6255,0.7382,0.8357,0.9447,0.0,0.0,0.0,0.0,0.0,0.0,1.8536,0.0,2.0601,2.1444,2.1552,2.1919,2.2617,2.3239,2.3682,2.3953,2.452,2.464,2.432,2.4076,2.3711,2.3252,2.2523,2.1781,2.0986,1.9212,1.7955,1.7047,1.5646,1.4418,1.3316,1.293,1.2638,1.2447,1.2447,1.2662,1.289,1.215,1.2358,1.2757,1.1114,1.0607,1.0229,0.8592,0.7497,0.678,0.6719,0.5437,0.4383,0.5365,0.5063,0.4574,0.4574,0.4667,0.4472,0.3449,0.3231,0.3218,0.3341,0.241,0.1632,0.1791,0.0774,0.0,0.0098,0.01,0.0101,0.0101,0.0101,0.0101,0.0202,0.141,0.2715,0.4016,0.5322,0.6684,0.8146,0.8258,0.8387,0.8676,0.8686,0.8764,0.8923,0.8927,0.893,0.894,0.9076,0.9072,0.8947,0.9228,0.9279,0.8134,0.7471,0.6706,0.6105,0.4136,0.2076,0.0986,0.0381,0.0049,-0.0052,0.1013,0.2148,0.0,0.0,0.0,0.9969,1.1881,0.0,1.3363,1.3572,0.0,0.0,0.0,1.3627,1.3726,1.4415,0.0,0.0,1.8589,1.9528,2.0097,2.0765,2.1399,2.1861,2.2571,2.3049,2.3334,2.4252,2.4713,2.4667,2.4764,2.4645,2.4372,2.3622,2.2884,2.2118,2.0858,1.9446,1.7983,1.7688,1.6712,1.5348,1.4978,1.4278,1.3387,1.2773,1.2703,1.288,1.2702,1.2781,1.2948,1.2504,1.1912,1.1203,1.016,0.9267,0.8297,0.7033,0.6354,0.5929,0.5547,0.5418,0.5342,0.5342,0.553,0.5563,0.5287,0.4737,0.4311,0.4307,0.2855,0.1616,0.1634,0.076,0.0294,0.1371,0.1492,0.1511,0.1511,0.1511,0.1913,0.2914,0.4219,0.5125,0.5425,0.6731,0.7653,0.8096,0.8099,0.8184,0.8374,0.8384,0.8506,0.8764,0.8767,0.8825,0.894,0.8977,0.8974,0.894,0.9015,0.9032,0.8375,0.7908,0.7217,0.6459,0.5411,0.4276,0.2985,0.2905,0.3097,0.3284,0.4128,0.0,0.0,0.0,0.0,0.0,0.0,0.0,1.5176,1.4797,1.456,0.0,1.4122,0.0,1.3369,1.3903,1.4631,0.0,1.7583,1.9075,1.9823,2.0601,2.1086,2.1337,2.1869,2.2434,2.3003,2.3639,2.4159,2.4574,2.4807,2.4916,2.4875,2.4497,2.4018,2.343,0.0,2.1332,1.9957,1.9702,1.8588,1.7024,1.6702,1.5833,1.4763,1.4277,1.4202,1.4231,1.4231,1.4276,1.4157,1.3269,1.2998,1.2747,1.145,1.0296,0.9277,0.8354,0.7673,0.7177,0.6662,0.6672,0.6744,0.6744,0.6608,0.6529,0.6522,0.5921,0.5132,0.4756,0.3787,0.2877,0.2466,0.1832,0.1701,0.257,0.2733,0.298,0.3574,0.32,0.3215,0.3915,0.5222,0.6029,0.6029,0.7235,0.8038,0.8038,0.8038,0.8109,0.8265,0.8272,0.8411,0.8706,0.8645,0.872,0.894,0.8872,0.8872,0.894,0.894,0.894,0.8318,0.7982,0.7231,0.5771,0.6139,0.6282,0.4295,0.5158,0.6443,0.6505,0.0,0.7818,0.8599,0.0,1.2073,1.1709,0.0,1.4483,1.5273,1.46,1.4474,1.5672,1.4891,1.3996,1.3307,1.3726,1.4018,1.4068,1.6708,1.8811,1.9951,2.0569,2.0926,2.0991,2.1272,2.1877,2.2781,2.2876,2.3359,2.4195,2.4514,2.4753,2.4911,2.5039,2.4923,2.4589,2.4041,0.0,2.2277,2.1559,2.0241,1.867,1.8312,1.7463,1.6393,1.6248,1.609,1.5903,1.5864,1.592,1.5763,1.3893,1.4045,1.4521,1.2581,1.1222,1.0279,0.9913,0.9066,0.8179,0.8016,0.8108,0.8188,0.8188,0.767,0.7296,0.7377,0.6873,0.6177,0.5422,0.5167,0.478,0.3846,0.3512,0.3417,0.3749,0.3996,0.4588,0.5841,0.4954,0.4318,0.4516,0.5525,0.6229,0.6229,0.7335,0.8038,0.8038,0.8038,0.8099,0.8235,0.8241,0.837,0.8648,0.8523,0.8594,0.8876,0.8764,0.8777,0.891,0.893,0.894,0.7273,0.6525,0.5771,0.5913,0.5958,0.5771,0.5135,0.6282,0.0,0.0,0.0,0.9814,1.0747,1.1851,0.0,1.4858,0.0,0.0,0.0,0.0,1.7726,0.0,0.0,0.0,0.0,0.0,0.0,0.0,0.0,1.7424,1.895,1.9924,2.0583,2.1007,2.1055,2.1456,2.2238,2.2401,2.2893,2.3634,2.4193,2.4447,2.4437,2.489,2.4976,2.4754,2.454,0.0,2.3381,2.2815,2.191,2.0838,2.0353,1.9261,1.7852,1.7154,1.6367,1.5519,1.5072,1.5543,1.6231,1.5658,1.5588,1.5476,1.3883,1.3303,1.2636,1.0436,0.9663,0.9266,0.8227,0.7992,0.8022,0.8022,0.7994,0.8025,0.8064,0.8193,0.836,0.8456,0.7163,0.5919,0.5696,0.4379,0.3669,0.4935,0.5279,0.5924,0.7171,0.6295,0.6126,0.7232,0.7534,0.7637,0.7637,0.7839,0.8038,0.8038,0.8038,0.8052,0.8079,0.8079,0.8163,0.8343,0.8323,0.8391,0.856,0.8662,0.8723,0.8754,0.8879,0.894,0.7171,0.657,0.5996,0.612,0.6349,0.6343,0.5513,0.0,0.0,0.0,0.0,1.0487,1.1331,0.0,0.0,0.0,0.0,0.0,0.0,0.0,0.0,0.0,0.0,0.0,0.0,0.0,0.0,0.0,0.0,1.7464,1.7972,1.8745,1.939,1.9904,1.9904,2.032,2.1163,2.125,2.1799,2.2783,2.3169,2.3619,2.4155,2.455,2.4803,2.4905,2.4863,0.0,2.4389,2.3988,2.3345,2.2539,2.2073,2.1002,1.9646,1.9131,1.8238,1.7181,1.6907,1.7044,1.7209,1.6811,1.6456,1.5961,1.4648,1.3922,1.3199,1.191,1.1368,1.0996,1.0411,1.0132,0.999,0.999,0.9432,0.8799,0.8442,0.8644,0.8866,0.9251,0.8521,0.7831,0.7924,0.6692,0.6057,0.6814,0.6722,0.6719,0.7386,0.7098,0.7152,0.7815,0.7991,0.8038,0.8038,0.8038,0.8038,0.8038,0.8038,0.8038,0.8038,0.8038,0.8113,0.8269,0.8191,0.8258,0.8482,0.8482,0.852,0.8594,0.875,0.8818,0.7379,0.6786,0.6238,0.6103,0.6624,0.682,0.5666,0.7025,0.0,0.0,0.0,1.0893,0.0,0.0,0.0,0.0,0.0,0.0,0.0,0.0,0.0,0.0,0.0,0.0,0.0,0.0,0.0,0.0,0.0,0.0,1.7814,1.8224,1.865,1.9043,1.908,1.9471,2.028,2.0314,2.083,2.1869,2.218,2.2786,2.3596,2.386,2.4285,2.4803,2.4733,0.0,0.0,2.4833,2.4437,2.394,2.3474,2.2551,2.1478,2.1121,2.0286,1.9263,1.9111,1.8809,1.8398,1.7826,1.7153,1.6384,1.5222,1.4359,1.3661,1.345,1.3058,1.2702,1.2613,1.231,1.202,1.1826,1.088,0.9814,0.9262,0.9179,0.9392,0.9766,0.9675,0.9593,0.9735,0.8954,0.8386,0.8608,0.7916,0.7397,0.7613,0.7618,0.7594,0.7706,0.7882,0.8004,0.8035,0.8038,0.8038,0.8038,0.8038,0.8038,0.8038,0.8038,0.8096,0.8218,0.8102,0.8153,0.8387,0.8309,0.8326,0.8438,0.8591,0.8662,0.7551,0.6412,0.5229,0.5635,0.6044,0.6211,0.5751,0.0,0.0,0.0,1.0318,1.1846,1.2067,0.0,0.0,0.0,0.0,0.0,0.0,0.0,0.0,0.0,0.0,0.0,0.0,0.0,0.0,0.0,0.0,0.0,1.9442,1.953,1.9566,1.9603,1.9639,1.9823,2.0314,2.0314,2.0583,2.1118,2.1795,2.2173,2.2275,2.2482,2.316,2.4153,2.3607,0.0,0.0,2.488,2.4852,2.4911,2.4396,2.3774,2.3084,2.2262,2.1507,2.0774,2.0044,1.9774,1.9619,1.8906,1.8013,1.6989,1.5852,1.5433,1.5177,1.4289,1.3866,1.3577,1.3277,1.305,1.2696,1.1958,1.1663,1.1466,1.0896,1.0784,1.096,1.1578,1.0953,1.0373,1.0628,0.994,0.939,0.9429,0.873,0.8304,0.8325,0.7745,0.7397,0.7411,0.7665,0.7889,0.8028,0.8038,0.8038,0.8038,0.8038,0.8038,0.8038,0.8038,0.8045,0.8062,0.8045,0.8055,0.8079,0.8208,0.8279,0.8292,0.8435,0.8503,0.8314,0.7697,0.7028,0.65,0.6767,0.7042,0.6534,0.0,0.0,0.8928,1.0294,1.158,1.2025,0.0,0.0,0.0,0.0,0.0,0.0,0.0,0.0,0.0,0.0,0.0,0.0,0.0,0.0,0.0,0.0,0.0,1.969,1.9095,1.8893,1.9207,1.9207,1.9464,1.9929,1.9929,2.0158,2.0583,2.0495,2.091,2.1745,2.1652,2.2258,2.3376,2.3598,0.0,0.0,2.4892,2.5029,2.5076,2.4904,2.4562,2.4119,2.3658,2.3016,2.2359,2.1875,2.153,2.1143,2.0236,1.9676,1.9074,1.7558,1.6634,1.5996,1.5619,1.5115,1.4776,1.4976,1.4739,1.4091,1.2801,1.2512,1.2484,1.2455,1.2459,1.2467,1.2584,1.2276,1.1937,1.1717,1.0946,1.0302,1.0373,0.9607,0.9169,0.9415,0.8652,0.8132,0.8422,0.8005,0.7834,0.7896,0.7987,0.8038,0.8038,0.8038,0.8038,0.8038,0.8038,0.8038,0.8038,0.8038,0.8038,0.8038,0.8102,0.8133,0.8136,0.8286,0.8357,0.9377,0.9062,0.8618,0.7628,0.7636,0.7725,0.0,0.0,0.0,0.9228,1.0399,1.1513,1.2063,1.2863,1.364,0.0,0.0,0.0,0.0,0.0,0.0,0.0,0.0,0.0,0.0,0.0,0.0,0.0,0.0,0.0,1.9726,1.8968,1.8727,1.9132,1.8943,1.9126,1.9675,1.9301,1.9355,1.9817,1.9336,1.961,2.0576,2.0295,2.0781,2.1906,2.2311,0.0,0.0,2.4056,2.439,2.4743,2.4843,2.4715,2.4501,2.4586,2.4253,2.373,2.3449,2.3095,2.2604,2.1647,2.1312,2.0983,1.9527,1.8264,1.7248,1.7124,1.6478,1.5934,1.6272,1.6063,1.5375,1.4013,1.37,1.3597,1.3322,1.3255,1.3244,1.3194,1.3172,1.3072,1.2835,1.2012,1.1476,1.1596,1.0619,1.0042,1.0361,0.9431,0.875,0.8865,0.8368,0.804,0.7801,0.7909,0.7991,0.8035,0.8038,0.8038,0.8038,0.8038,0.8038,0.8038,0.8038,0.8038,0.8038,0.8038,0.8038,0.8041,0.815,0.8225,1.0712,1.0145,0.9373,0.8896,0.8441,0.7913,0.0,0.0,0.0,0.959,1.0745,1.1859,1.2463,1.3379,1.4061,1.4362,0.0,0.0,0.0,0.0,0.0,0.0,0.0,0.0,0.0,0.0,0.0,0.0,0.0,0.0,1.9711,1.969,1.969,1.969,1.9046,1.9031,1.9675,1.8388,1.8074,1.8702,1.8514,1.8423,1.8422,1.8079,1.8518,0.0,0.0,0.0,0.0,2.2076,2.2716,2.3936,2.4067,2.4062,2.4094,2.4814,2.5005,2.4837,2.4504,2.4236,2.3964,2.3142,2.2737,2.2427,2.1687,2.0493,1.9277,1.8875,1.7948,1.7054,1.6831,1.6788,1.6525,1.5548,1.5303,1.4847,1.3356,1.3009,1.3055,1.3353,1.3427,1.3477,1.3843,1.3454,1.3064,1.3064,1.1794,1.0808,1.0993,1.0089,0.9232,0.8493,0.8611,0.8489,0.7866,0.7814,0.7879,0.8031,0.8038,0.8038,0.8038,0.8038,0.8038,0.8038,0.8038,0.8038,0.8038,0.8038,0.8038,0.8038,0.8041,0.8126,1.0779,1.0759,1.0437,0.9467,0.8978,0.8633,0.7993,0.0,0.0,0.0,0.0,1.1401,1.2521,1.3208,1.3672,1.3933,0.0,0.0,0.0,0.0,0.0,0.0,0.0,0.0,0.0,0.0,0.0,0.0,0.0,0.0,1.9544,1.9894,2.0,1.9726,1.948,1.9256,1.9016,1.8612,1.8268,1.8029,1.7497,1.7469,1.7909,1.7661,1.7982,0.0,0.0,0.0,0.0,2.1498,2.2062,2.2571,2.2975,2.3554,2.4179,2.4451,2.4872,2.5274,2.5027,2.488,2.4693,2.4112,2.3762,2.3451,2.2994,2.167,2.01,1.9082,1.8796,1.8609,1.7784,1.782,1.7887,1.7082,1.6497,1.5995,1.5487,1.5031,1.457,1.4347,1.4301,1.4233,1.3958,1.379,1.3739,1.4045,1.3116,1.2594,1.3106,1.1627,1.0515,1.0513,1.0001,0.9126,0.7663,0.7607,0.7729,0.7875,0.7882,0.7929,0.8035,0.8038,0.8038,0.8038,0.8038,0.8038,0.8038,0.8038,0.8038,0.8038,0.8038,0.8065,0.0,1.0805,1.0684,0.9634,0.9383,0.0,0.0,0.0,0.0,0.0,0.0,0.0,1.1996,1.2775,1.344,1.417,0.0,0.0,0.0,0.0,0.0,0.0,0.0,0.0,0.0,0.0,0.0,0.0,0.0,0.0,1.9249,1.9403,1.939,1.9152,1.8996,1.8747,1.8343,1.7849,1.752,1.7309,1.6667,1.6593,1.6967,1.6861,1.7009,0.0,0.0,0.0,0.0,2.013,2.0776,2.1392,2.1901,2.2719,2.3676,2.4025,2.4733,2.5527,2.5369,2.524,2.5109,2.4778,2.4401,2.4063,2.3759,2.2544,2.1032,1.9999,1.9662,1.9491,1.9034,1.8869,1.872,1.8448,1.7829,1.7246,1.6978,1.6528,1.6039,1.5484,1.5362,1.5196,1.4585,1.4307,1.4284,1.4512,1.4046,1.3824,1.424,1.3276,1.2398,1.1914,1.1369,1.0357,0.8572,0.8651,0.8862,0.9033,0.8573,0.8431,0.8441,0.8115,0.7953,0.7953,0.8011,0.8038,0.8038,0.8038,0.8038,0.8038,0.8038,0.8038,0.0,0.0,0.0,0.0,0.0,0.0,0.0,0.0,0.0,0.0,0.0,0.0,0.0,0.0,0.0,1.4541,0.0,0.0,0.0,0.0,0.0,0.0,0.0,0.0,0.0,0.0,0.0,0.0,0.0,0.0,1.8834,1.8465,1.8222,1.8068,1.7818,1.7655,1.7623,1.6443,1.6114,1.6637,1.6069,1.5799,1.5799,1.5799,1.5799,0.0,0.0,0.0,0.0,1.8266,1.9058,2.0331,2.0795,2.163,2.2688,2.3506,2.4515,2.5487,2.5508,2.5422,2.5293,2.5159,2.4772,2.4321,2.4136,2.3191,2.2084,2.1512,2.0575,1.9912,2.0535,1.9946,1.9298,1.9798,1.931,1.8596,1.7895,1.7677,1.7413,1.6708,1.6539,1.6265,1.5584,1.5065,1.4772,1.4799,1.4658,1.4585,1.461,1.4932,1.4537,1.2804,1.255,1.1942,1.0605,1.0641,1.0821,1.1049,1.0057,0.9423,0.9435,0.857,0.7983,0.789,0.7936,0.8014,0.8024,0.8024,0.8028,0.8038,0.8038,0.8038,0.6014,0.0,1.0179,1.0694,1.0277,0.0,0.0,0.0,0.0,0.0,0.0,0.0,0.0,0.0,0.0,0.0,0.0,0.0,0.0,0.0,0.0,0.0,0.0,0.0,0.0,0.0,0.0,0.0,0.0,1.9941,1.8575,1.8898,1.8399,1.6797,1.7161,1.7258,1.6936,1.6637,1.6338,1.5994,1.5873,1.5799,1.5799,1.5799,1.5799,0.0,0.0,0.0,1.7212,1.7659,1.838,1.921,1.9516,2.0394,2.1608,2.2604,2.354,2.4413,2.5279,2.5523,2.5428,2.5228,2.5069,2.487,2.4666,2.3934,2.2988,2.2133,2.1716,2.1547,2.1707,2.1297,2.1009,2.1696,2.0637,1.9414,1.9245,1.8359,1.7523,1.7357,1.6866,1.6436,1.6265,1.5654,1.5367,1.5702,1.5405,1.5235,1.5525,1.535,1.5046,1.4601,1.4052,1.3672,1.3285,1.1489,1.0519,1.0821,1.0576,1.0558,1.0711,1.0487,0.9868,0.8941,0.8149,0.7756,0.7865,0.7865,0.7926,0.8038,0.8038,0.8038,0.3163,0.5618,0.8091,0.8979,0.9021,0.8811,0.0,0.0,0.0,0.0,0.0,0.0,0.0,0.0,0.0,0.0,0.0,0.0,0.0,0.0,0.0,0.0,0.0,0.0,0.0,0.0,0.0,0.0,0.0,1.9343,1.7972,1.8072,1.7626,1.6344,1.6489,1.6514,1.6293,1.6293,1.6114,1.5799,1.5799,1.5799,1.5799,1.5955,1.6039,0.0,0.0,0.0,1.7076,1.7512,1.8104,1.8771,1.9411,2.0421,2.1644,2.268,2.3645,2.4553,2.5251,2.55,2.5487,2.5418,2.5344,2.5244,2.502,2.4623,2.4055,2.3222,2.265,2.2366,2.2541,2.2016,2.1584,2.2137,2.1344,2.0494,2.0494,1.9749,1.8955,1.8626,1.7993,1.7413,1.709,1.6687,1.6384,1.6313,1.6225,1.621,1.6262,1.6206,1.6102,1.5843,1.5551,1.5154,1.4879,1.3135,1.205,1.2083,1.1695,1.1548,1.1671,1.1246,1.0716,1.0168,0.9528,0.921,0.93,0.8821,0.8624,0.8713,0.8202,0.8038,0.1046,0.32,0.5332,0.63,0.7032,0.7487,0.0,0.0,0.0,0.0,0.0,0.0,0.0,0.0,0.0,0.0,0.0,0.0,0.0,0.0,0.0,0.0,0.0,0.0,0.0,0.0,0.0,0.0,0.0,1.8653,1.7377,1.7027,1.6712,1.6313,1.6011,1.5856,1.5799,1.5799,1.5799,1.5799,1.5799,1.5799,1.5799,1.608,1.6246,1.6328,0.0,0.0,1.7304,1.7551,1.7992,1.8654,1.9721,2.0785,2.1872,2.3056,2.4081,2.4907,2.5274,2.5443,2.5527,2.5586,2.5553,2.5474,2.526,2.5149,2.4979,2.4353,2.35,2.29,2.3204,2.2562,2.1951,2.2384,2.2124,2.1714,2.1715,2.1389,2.0805,2.0029,1.9322,1.8596,1.7895,1.7688,1.7413,1.6765,1.7053,1.723,1.6911,1.7293,1.7387,1.6876,1.6706,1.6342,1.5802,1.4938,1.4249,1.3943,1.3035,1.2547,1.2583,1.1581,1.1069,1.1252,1.1076,1.1,1.1039,1.0113,0.9746,0.9681,0.8901,0.8492,0.0842,0.2167,0.3667,0.5494,0.5863,0.58,0.0,0.0,0.0,0.0,0.0,0.0,0.0,0.0,0.0,0.0,0.0,0.0,0.0,0.0,0.0,0.0,0.0,0.0,0.0,0.0,0.0,0.0,0.0,1.8078,1.7344,1.7248,1.6952,1.6328,1.6246,1.6095,1.5799,1.5799,1.5799,1.5799,1.5799,1.5799,1.5799,1.5856,1.6039,1.6301,0.0,1.6722,1.7304,1.7351,1.7721,1.836,1.9454,2.0117,2.0731,2.2749,2.3599,2.3898,2.503,2.5482,2.5586,2.5605,2.5585,2.5572,2.5542,2.537,2.5148,2.4988,2.4376,2.3834,2.406,2.3707,2.3519,2.4562,2.4007,2.3243,2.3203,2.2702,2.1941,2.0855,2.0042,1.931,1.865,1.8004,1.7578,1.7468,1.7833,1.8039,1.7677,1.8018,1.8222,1.7813,1.707,1.6585,1.6438,1.5808,1.5372,1.5335,1.4085,1.3566,1.3808,1.2723,1.2055,1.2095,1.1142,1.072,1.0816,1.0675,1.0692,1.0867,1.0886,1.0982,0.0536,0.1575,0.2673,0.3672,0.4546,0.5111,0.0,0.0,0.0,0.0,0.0,0.0,0.0,0.0,0.0,0.0,0.0,0.0,0.0,0.0,0.0,0.0,0.0,0.0,0.0,0.0,0.0,0.0,0.0,0.0,1.7052,1.685,1.6538,1.6039,1.6039,1.5955,1.5799,1.5799,1.5799,1.5799,1.5983,1.6067,1.608,1.6432,1.668,1.685,0.0,1.7288,1.7606,1.799,1.8398,1.8936,2.0236,2.1036,2.164,2.3401,2.4153,2.4404,2.5011,2.5348,2.5493,2.5581,2.5605,2.5604,2.5593,2.5505,2.538,2.5209,2.4815,2.4394,2.4182,2.3979,2.3975,2.4642,2.4363,2.4011,2.4434,2.3738,2.2878,2.2366,2.1465,2.0568,1.9953,1.9542,1.9061,1.8328,1.8374,1.8521,1.8474,1.8707,1.8942,1.9357,1.8613,1.8065,1.8065,1.6851,1.5869,1.5335,1.4735,1.4337,1.4075,1.3561,1.3288,1.3288,1.2778,1.249,1.2614,1.2042,1.1804,1.1912,1.1502,1.1387,0.0329,0.1165,0.1916,0.2145,0.0,0.0,0.3854,0.0,0.0,0.0,0.0,0.0,0.0,0.0,0.0,0.0,0.0,0.0,0.0,0.0,0.0,0.0,0.0,0.0,0.0,0.0,0.0,0.0,0.0,0.0,1.6686,1.6448,1.6151,1.5799,1.5799,1.5799,1.5799,1.5799,1.5799,1.5799,1.6067,1.6191,1.6191,1.6799,1.7126,1.7199,1.7526,1.7828,1.8099,1.8674,1.9018,1.9361,2.0956,2.2099,2.2986,2.3989,2.4629,2.4962,2.5023,2.5156,2.535,2.5446,2.5533,2.5582,2.5605,2.5593,2.5556,2.5351,2.5149,2.4847,2.4331,2.4155,2.4244,2.4734,2.4734,2.4816,2.5505,2.4883,2.4102,2.3743,2.2848,2.1918,2.1328,2.1099,2.0657,1.9569,1.927,1.9251,1.9379,1.9376,1.9618,2.0322,1.9944,1.9497,1.9299,1.7804,1.6562,1.5631,1.5525,1.5249,1.4698,1.4531,1.4489,1.4489,1.425,1.4088,1.4088,1.3336,1.2994,1.2913,1.2266,1.2016,0.0403,0.0834,0.13,0.1809,0.0,0.0,0.2675,0.0,0.0,0.0,0.0,0.0,0.0,0.0,0.0,0.0,0.0,0.0,0.0,0.0,0.0,0.0,0.0,0.0,0.0,0.0,0.0,0.0,0.0,0.0,1.6355,1.6313,1.6151,1.5799,1.5799,1.5799,1.5799,1.5799,1.5799,1.5799,1.5827,1.5827,1.5856,1.6219,1.6554,1.6866,1.7199,1.7893,1.8826,1.8877,1.8917,1.9117,2.0901,2.254,2.3895,2.3988,2.4366,2.4818,2.4814,2.4948,2.5111,2.5129,2.5304,2.5524,2.5583,2.5605,2.5599,2.5578,2.5553,2.5423,2.4886,2.4606,2.4744,2.5892,2.6023,2.5958,2.6326,2.6354,2.5853,2.4444,2.3728,2.3157,2.2507,2.1969,2.1602,2.1506,2.1002,2.0527,2.0221,2.0177,2.0017,1.9756,2.0184,2.0204,1.9365,1.8452,1.7571,1.6872,1.6716,1.6553,1.6499,1.594,1.5621,1.5621,1.4573,1.4088,1.4088,1.4017,1.403,1.4037,1.4149,1.4294,0.0154,0.0843,0.1428,0.0915,0.0,0.0,0.0,0.0,0.0,0.0,0.0,0.0,0.0,0.0,0.0,0.0,0.0,0.0,0.0,0.0,0.0,0.0,0.0,0.0,0.0,0.0,0.0,0.0,0.0,0.0,0.0,1.608,1.5926,1.5799,1.5799,1.5799,1.5799,1.5799,1.5799,1.5799,1.6011,1.6108,1.6136,1.667,1.7002,1.7126,1.7479,1.7832,1.8251,1.8707,1.8894,1.9094,2.0901,2.1966,2.2616,2.3482,2.4025,2.4332,2.454,2.4752,2.4936,2.506,2.5176,2.5287,2.5473,2.5561,2.5605,2.5597,2.5595,2.5508,2.5101,2.4939,2.508,2.592,2.6145,2.6354,2.6994,2.6809,2.632,2.573,2.5054,2.4337,2.3667,2.3156,2.2669,2.2264,2.1716,2.1435,2.16,2.1597,2.1643,2.1777,2.1561,2.1037,2.0204,1.9299,1.8714,1.8458,1.7442,1.6665,1.6264,1.6316,1.6341,1.6341,1.5517,1.5054,1.5054,1.4412,1.4088,1.4088,1.4202,1.4349,-0.0,0.0029,0.0,0.0,0.0,0.0,0.0,0.0,0.0,0.0,0.0,0.0,0.0,0.0,0.0,0.0,0.0,0.0,0.0,0.0,0.0,0.0,0.0,0.0,0.0,0.0,0.0,0.0,0.0,0.0,0.0,1.5926,1.5799,1.5799,1.5799,1.5799,1.5799,1.5799,1.5799,1.5799,1.6039,1.6136,1.6163,1.685,1.715,1.7175,1.7612,1.7929,1.82,1.8691,1.9181,1.9747,2.0984,2.1668,2.2059,2.3035,2.3617,2.3928,2.4174,2.4441,2.4727,2.4879,2.4973,2.5118,2.5312,2.5441,2.5556,2.5584,2.5605,2.5542,2.5321,2.5189,2.5271,2.5939,2.6345,2.6739,2.7376,2.7379,2.7187,2.6977,2.6337,2.5615,2.5029,2.454,2.4045,2.3428,2.273,2.2353,2.2729,2.2746,2.2986,2.3416,2.2555,2.169,2.1037,2.0204,1.9694,1.9694,1.8487,1.7431,1.6867,1.6953,1.7054,1.7164,1.6381,1.6083,1.6191,1.547,1.4901,1.4573,1.4573,1.4521,-0.0025,-0.1813,0.0,0.0,0.0,0.0,0.0,0.0,0.0,0.0,0.0,0.0,0.0,0.0,0.0,0.0,0.0,0.0,0.0,0.0,0.0,0.0,0.0,0.0,0.0,0.0,0.0,0.0,0.0,0.0,0.0,1.5799,1.5799,1.5799,1.5799,1.5799,1.5799,1.5799,1.5799,1.5799,1.5799,1.5799,1.5827,1.6474,1.6789,1.6841,1.7519,1.8217,1.8877,1.8894,1.979,2.1187,2.1204,2.1823,2.2678,2.2695,2.3117,2.3692,2.3692,2.4059,2.4495,2.4495,2.4704,2.5015,2.509,2.5245,2.5432,2.5551,2.5605,2.5605,2.5605,2.5352,2.5313,2.6121,2.6753,2.7261,2.7463,2.8182,2.8627,2.8029,2.7484,2.6971,2.6588,2.6114,2.5668,2.5281,2.4246,2.349,2.3505,2.3569,2.3794,2.4262,2.2834,2.1928,2.1928,2.1101,2.059,2.059,1.9814,1.9106,1.8613,1.8008,1.7881,1.8267,1.7242,1.6875,1.7334,1.7334,1.6764,1.5696,1.5696,1.5137,-0.2613,0.0,0.0,0.0,0.0,0.0,0.0,0.0,0.0,0.0,0.0,0.0,0.0,0.0,0.0,0.0,0.0,0.0,0.0,0.0,0.0,0.0,0.0,0.0,0.0,0.0,0.0,0.0,0.0,0.0,0.0,1.5799,1.5799,1.5799,1.5799,1.5799,1.5799,1.5799,1.5799,1.5799,1.5799,1.5799,1.5827,1.6474,1.6789,1.6841,1.7519,1.7929,1.8166,1.8691,1.9164,1.9688,2.0797,2.1375,2.1729,2.2444,2.2822,2.3069,2.3544,2.3798,2.4001,2.4373,2.4575,2.4708,2.4948,2.5097,2.5236,2.5476,2.5554,2.5605,2.5664,2.5558,2.5632,2.639,2.7037,2.765,2.8285,2.8629,2.8745,2.8579,2.8067,2.7625,2.7507,2.68,2.6252,2.613,2.4955,2.3985,2.3533,2.3463,2.3491,2.3635,2.3184,2.2872,2.2872,2.2007,2.1491,2.1491,2.0719,1.9878,1.9106,1.8574,1.8375,1.8499,1.7803,1.7602,1.7978,1.7262,1.6838,1.6846,1.6846,1.6281,-0.2788,0.0,0.0,0.0,0.0,0.0,0.0,0.0,0.0,0.0,0.0,0.0,0.0,0.0,0.0,0.0,0.0,0.0,0.0,0.0,0.0,0.0,0.0,0.0,0.0,0.0,0.0,0.0,0.0,0.0,0.0,1.5799,1.5799,1.5799,1.5799,1.5799,1.5799,1.5799,1.5799,1.5799,1.5799,1.5799,1.5827,1.6355,1.6607,1.6649,1.7609,1.795,1.7912,1.9249,1.9621,1.9486,2.1025,2.1634,2.1712,2.2319,2.2625,2.2772,2.3165,2.3477,2.3756,2.4079,2.4338,2.4526,2.4752,2.4924,2.5107,2.5293,2.5459,2.5576,2.5644,2.5644,2.5835,2.6607,2.7301,2.7984,2.8696,2.9109,2.9326,2.9186,2.8787,2.8453,2.8288,2.7699,2.7165,2.6867,2.5809,2.4867,2.4313,2.3952,2.3794,2.3825,2.3796,2.3727,2.3727,2.3173,2.2847,2.2847,2.1791,2.0846,2.0333,1.9437,1.8923,1.9103,1.8438,1.8341,1.8898,1.8267,1.7996,1.7989,1.7989,1.7415,0.0,0.0,0.0,0.0,0.0,0.0,0.0,0.0,0.0,0.0,0.0,0.0,0.0,0.0,0.0,0.0,0.0,0.0,0.0,0.0,0.0,0.0,0.0,0.0,0.0,0.0,0.0,0.0,0.0,0.0,0.0,1.5799,1.5799,1.5799,1.5799,1.5799,1.5799,1.5799,1.5799,1.5799,1.5799,1.5799,1.5799,1.6136,1.6359,1.6507,1.7847,1.8244,1.8097,2.0297,2.0771,2.0255,2.1735,2.231,2.231,2.231,2.2436,2.2686,2.2695,2.3093,2.3628,2.3671,2.404,2.4444,2.4495,2.4723,2.5003,2.509,2.5287,2.5503,2.5582,2.5644,2.5898,2.6719,2.7464,2.8155,2.8799,2.9478,2.9928,2.9772,2.9514,2.9202,2.8905,2.8615,2.8174,2.7361,2.6556,2.588,2.5441,2.48,2.4431,2.4563,2.4473,2.4371,2.4371,2.4365,2.4271,2.42,2.287,2.2063,2.2002,2.0333,1.9554,1.9965,1.9182,1.9118,1.987,1.987,1.964,1.9061,1.9025,1.8488,0.0,0.0,0.0,0.0,0.0,0.0,0.0,0.0,0.0,0.0,0.0,0.0,0.0,0.0,0.0,0.0,0.0,0.0,0.0,0.0,0.0,0.0,0.0,0.0,0.0,0.0,0.0,0.0,0.0,0.0,1.5799,1.5799,1.5799,1.5799,1.5799,1.5799,1.5799,1.5799,1.5799,0.0,1.5799,1.5799,1.5799,1.6136,1.6718,1.7511,1.8137,1.8656,1.9171,2.0615,2.1119,2.1025,2.1938,2.231,2.231,2.231,2.2349,2.2426,2.2634,2.2797,2.2996,2.3522,2.3777,2.3961,2.4373,2.467,2.4891,2.5039,2.5264,2.5456,2.5577,2.5605,2.5859,2.6758,2.7065,2.754,2.8916,2.8656,2.8526,2.9839,2.9289,2.8745,2.9184,2.896,2.825,2.6897,2.6488,2.6108,2.5336,2.5116,2.5028,2.5064,2.4611,2.4326,2.4326,2.4353,2.4122,2.3523,2.367,2.3518,2.2884,2.1227,2.0377,2.0423,2.0292,2.0111,1.9926,1.9926,1.9847,1.9726,1.9408,1.8984,0.0,0.0,0.0,0.0,0.0,0.0,0.0,0.0,0.0,0.0,0.0,0.0,0.0,0.0,0.0,0.0,0.0,0.0,0.0,0.0,0.0,0.0,0.0,0.0,0.0,0.0,0.0,0.0,0.0,1.5031,1.5448,1.5448,1.558,1.5799,1.5799,1.5799,1.5799,1.5799,1.5799,1.5799,1.5799,1.5799,1.5799,1.5983,1.6617,1.7609,1.8356,1.8974,1.9526,2.1082,2.1515,2.1262,2.2023,2.231,2.231,2.231,2.231,2.2338,2.2463,2.2599,2.2772,2.3117,2.3437,2.3756,2.404,2.4372,2.4697,2.4898,2.5113,2.5292,2.5457,2.5544,2.5723,2.6211,2.6641,2.7284,2.8511,2.8306,2.814,2.8986,2.8868,2.8734,2.9053,2.8942,2.8476,2.7566,2.712,2.6622,2.5917,2.5677,2.5486,2.5221,2.5211,2.5238,2.5238,2.5,2.4682,2.4259,2.4313,2.4169,2.3717,2.284,2.2015,2.1239,2.0782,2.0565,2.0504,2.0504,2.0605,2.0803,2.0226,1.9859,0.0,0.0,0.0,0.0,0.0,0.0,0.0,0.0,0.0,0.0,0.0,0.0,0.0,0.0,0.0,0.0,0.0,0.0,0.0,0.0,0.0,0.0,0.0,0.0,0.0,0.0,0.0,0.0,0.0,1.4146,1.4937,1.5013,1.5195,1.5668,1.5668,1.5712,1.5799,1.5799,1.5799,1.5799,1.5799,1.5799,1.5799,1.5918,1.6456,1.7437,1.8577,1.9235,1.9691,2.1444,2.181,2.1332,2.2029,2.231,2.231,2.231,2.231,2.231,2.231,2.2453,2.2634,2.2669,2.3069,2.3544,2.3671,2.4022,2.4458,2.4685,2.4911,2.5119,2.5303,2.5465,2.5577,2.5586,2.6191,2.6992,2.7812,2.7872,2.7806,2.8,2.8494,2.8886,2.8829,2.8895,2.8838,2.8511,2.7939,2.737,2.6817,2.6506,2.6142,2.5603,2.5966,2.6221,2.6158,2.5713,2.5409,2.5255,2.4812,2.4532,2.4524,2.4405,2.3755,2.2531,2.153,2.1103,2.1316,2.1316,2.1509,2.1787,2.0952,2.0656,0.0,0.0,0.0,0.0,0.0,0.0,0.0,0.0,0.0,0.0,0.0,0.0,0.0,0.0,0.0,0.0,0.0,0.0,0.0,0.0,0.0,0.0,0.0,0.0,0.0,0.0,0.0,0.0,1.3565,1.4017,1.4564,1.4596,1.4783,1.5165,1.5195,1.5389,1.5799,1.5799,1.5799,1.5799,1.5799,1.5799,1.5829,1.6353,1.6967,1.7721,1.8856,1.9654,2.025,2.1287,2.1639,2.1586,2.2101,2.231,2.231,2.231,2.231,2.231,2.231,2.2321,2.2388,2.2608,2.2772,2.2947,2.3522,2.3866,2.4137,2.4441,2.4762,2.5031,2.5119,2.5283,2.5459,2.5579,2.5703,2.6035,2.6953,2.6521,2.6386,2.7873,2.8563,2.891,2.8886,2.927,2.94,2.8838,2.8657,2.8388,2.7787,2.766,2.7482,2.708,2.6674,2.6349,2.6072,2.6062,2.5801,2.5155,2.5181,2.5121,2.5089,2.4646,2.4559,2.4924,2.3505,2.2482,2.1785,2.1785,2.1649,2.1264,2.0852,2.0975,0.0,0.0,0.0,0.0,0.0,0.0,0.0,0.0,0.0,0.0,0.0,0.0,0.0,0.0,0.0,0.0,0.0,0.0,0.0,0.0,0.0,0.0,0.0,0.0,0.0,0.0,0.0,0.0,1.2578,1.3098,1.4117,1.4149,1.4342,1.4752,1.4968,1.5195,1.5418,1.5668,1.5799,1.5799,1.5799,1.5964,1.6338,1.6965,1.7413,1.776,1.8898,1.9743,2.0348,2.1007,2.1399,2.1612,2.1823,2.2077,2.231,2.231,2.231,2.231,2.231,2.231,2.2338,2.2453,2.259,2.2772,2.3105,2.3374,2.3645,2.4081,2.4331,2.4516,2.4934,2.5137,2.5283,2.5447,2.5556,2.5703,2.6133,2.5918,2.6013,2.7231,2.7608,2.7978,2.8752,2.9104,2.927,2.9307,2.9015,2.868,2.8449,2.8094,2.784,2.7666,2.7435,2.7123,2.6757,2.6497,2.6138,2.5644,2.5707,2.5793,2.5742,2.5863,2.5971,2.5914,2.4523,2.3577,2.3267,2.2798,2.2493,2.2261,2.1596,2.1533,0.0,0.0,0.0,0.0,0.0,0.0,0.0,0.0,0.0,0.0,0.0,0.0,0.0,0.0,0.0,0.0,0.0,0.0,0.0,0.0,0.0,0.0,0.0,0.0,0.0,0.0,0.0,0.0,1.1505,1.2187,1.3488,1.3555,1.3789,1.4342,1.4627,1.4845,1.4937,1.5389,1.558,1.5477,1.5846,1.6204,1.6572,1.753,1.7936,1.8014,1.9028,1.9713,2.0193,2.0632,2.1007,2.129,2.1521,2.1823,2.2135,2.2254,2.231,2.231,2.231,2.231,2.231,2.231,2.2453,2.2625,2.2747,2.2915,2.3171,2.3668,2.3891,2.4137,2.4628,2.4922,2.5128,2.5284,2.5434,2.5568,2.5605,2.5664,2.5879,2.6484,2.6724,2.724,2.8504,2.8867,2.9162,2.9741,2.942,2.9103,2.9037,2.8597,2.8246,2.8148,2.8057,2.788,2.7487,2.7092,2.6737,2.6522,2.6462,2.6466,2.6523,2.7068,2.7191,2.6837,2.5682,2.4924,2.4567,2.3989,2.359,2.3365,2.2798,2.2433,0.0,0.0,0.0,0.0,0.0,0.0,0.0,0.0,0.0,0.0,0.0,0.0,0.0,0.0,0.0,0.0,0.0,0.0,0.0,0.0,0.0,0.0,0.0,0.0,0.0,0.0,0.0,0.0,1.0733,1.1494,1.2532,1.2567,1.2975,1.3888,1.3967,1.4149,1.4533,1.4937,1.4937,1.4564,1.6003,1.6481,1.6178,1.7892,1.8657,1.8687,1.9381,1.9681,1.9747,2.0158,2.0348,2.0434,2.129,2.1612,2.1688,2.2135,2.231,2.231,2.231,2.231,2.231,2.231,2.231,2.236,2.2625,2.2721,2.2797,2.3124,2.3605,2.4007,2.4044,2.4535,2.5019,2.51,2.5265,2.5468,2.5657,2.5703,2.5703,2.5742,2.6387,2.7187,2.8085,2.8754,2.9402,3.0067,3.0046,2.9874,2.9677,2.9456,2.9191,2.8792,2.8517,2.8237,2.7897,2.7823,2.7823,2.7794,2.7322,2.7175,2.7431,2.7722,2.7965,2.8188,2.7555,2.6591,2.5342,2.5287,2.4894,2.4234,2.4163,2.3767,0.0,0.0,0.0,0.0,0.0,0.0,0.0,0.0,0.0,0.0,0.0,0.0,0.0,0.0,0.0,0.0,0.0,0.0,0.0,0.0,0.0,0.0,0.0,0.0,0.0,0.0,0.0,0.0,0.0,1.1319,1.1993,1.233,1.2638,1.2975,1.3589,1.4084,1.4501,1.4627,1.4627,1.4501,1.537,1.6141,1.6771,1.7377,1.8281,1.9346,1.9229,1.9369,1.9711,1.9839,2.007,2.0348,2.0991,2.1368,2.1658,2.2135,2.231,2.231,2.231,2.231,2.231,2.231,2.231,2.2338,2.2398,2.2436,2.25,2.2815,2.301,2.3302,2.3853,2.4172,2.4482,2.4979,2.5245,2.5423,2.5559,2.5636,2.5703,2.5703,2.5937,2.6387,2.7226,2.8025,2.8799,2.9451,2.9876,3.0073,2.9905,2.9731,2.9494,2.9214,2.9104,2.8814,2.8264,2.8237,2.8129,2.7926,2.773,2.7642,2.7753,2.8308,2.8578,2.8483,2.8764,2.8121,2.6709,2.5809,2.5231,2.5007,2.5007,2.4838,0.0,0.0,0.0,0.0,0.0,0.0,0.0,0.0,0.0,0.0,0.0,0.0,0.0,0.0,0.0,0.0,0.0,0.0,0.0,0.0,0.0,0.0,0.0,0.0,0.0,0.0,0.0,0.0,0.0,0.0,1.1505,1.1993,1.2389,1.272,1.3331,1.3802,1.4052,1.4214,1.4214,1.4065,1.5114,1.6082,1.6933,1.7472,1.8415,1.969,1.9332,1.9369,1.969,1.969,1.9874,2.0158,2.0599,2.1007,2.143,2.1899,2.2163,2.231,2.231,2.231,2.231,2.231,2.231,2.231,2.231,2.231,2.2349,2.2527,2.2634,2.2813,2.3396,2.3773,2.4189,2.4896,2.5196,2.5331,2.5446,2.5567,2.5664,2.5664,2.5684,2.5957,2.6797,2.7637,2.8446,2.92,2.9882,3.0266,3.0169,2.9943,2.9746,2.9626,2.9551,2.9295,2.879,2.8742,2.8597,2.8281,2.8255,2.8201,2.8075,2.8795,2.9044,2.8733,2.9113,2.882,2.7781,2.687,2.6187,2.5783,2.5783,2.5618,0.0,0.0,0.0,0.0,0.0,0.0,0.0,0.0,0.0,0.0,0.0,0.0,0.0,0.0,0.0,0.0,0.0,0.0,0.0,0.0,0.0,0.0,0.0,0.0,0.0,0.0,0.0,0.0,0.9677,1.0495,1.0981,1.1505,1.2246,1.3163,1.3198,1.3198,1.3198,1.3648,1.3648,1.321,1.5278,1.6332,1.6515,1.8118,1.9169,1.969,1.969,1.969,1.969,1.969,1.969,1.9747,2.0158,2.0583,2.1023,2.1428,2.1882,2.2282,2.2276,2.2293,2.231,2.231,2.231,2.231,2.231,2.231,2.231,2.231,2.2473,2.2695,2.2721,2.3352,2.4172,2.4834,2.5045,2.5139,2.5341,2.5508,2.5605,2.5605,2.5644,2.5977,2.6816,2.7637,2.8457,2.9336,3.005,3.0479,3.0506,3.0221,3.0013,2.9999,2.9829,2.9644,2.9433,2.9412,2.9289,2.904,2.9017,2.8821,2.8446,2.917,2.9402,2.903,2.875,2.8631,2.8592,2.855,2.7834,2.6534,2.6549,2.6122,-0.1327,0.0,0.0,0.0,0.0,0.0,0.0,0.0,0.0,0.0,0.0,0.0,0.0,0.0,0.0,0.0,0.0,0.0,0.0,0.0,0.0,0.0,0.0,0.0,0.0,0.0,0.0,0.0,0.9677,1.0495,1.0981,1.1836,1.2579,1.3198,1.3198,1.3198,1.3198,1.3323,1.3323,1.321,1.462,1.5522,1.5941,1.7205,1.8263,1.9132,1.9132,1.9332,1.969,1.969,1.969,1.9747,2.0158,2.0382,2.052,2.0736,2.1226,2.1757,2.1585,2.1854,2.231,2.231,2.231,2.231,2.231,2.231,2.231,2.231,2.2332,2.2517,2.2965,2.3541,2.4118,2.4554,2.4839,2.505,2.5107,2.5283,2.5471,2.5582,2.5605,2.5723,2.6016,2.6777,2.7617,2.8437,2.9246,2.9961,3.0436,3.0419,3.0266,3.0032,2.9954,2.9829,2.9625,2.9626,2.9514,2.931,2.9289,2.916,2.8839,2.9059,2.925,2.942,2.9354,2.9092,2.8592,2.844,2.7921,2.7152,2.727,2.693,0.0,0.0,0.0,0.0,0.0,0.0,0.0,0.7806,0.0,0.0,0.0,0.0,0.0,0.0,0.0,0.0,0.0,0.0,0.0,0.0,0.0,0.0,0.0,0.0,0.0,0.8068,0.8797,0.8999,0.9804,1.0611,1.1282,1.2066,1.2733,1.3198,1.3198,1.3198,1.3198,1.3198,1.3198,1.321,1.4111,1.4948,1.5649,1.6802,1.7835,1.8812,1.8812,1.9007,1.9256,1.8972,1.9031,1.9306,1.9554,1.9574,1.9511,1.9587,2.0085,2.0714,2.0538,2.0868,2.1387,2.1735,2.1617,2.1454,2.2107,2.209,2.1904,2.2226,2.231,2.2443,2.3038,2.3428,2.381,2.4372,2.4651,2.4831,2.4974,2.5118,2.5303,2.5484,2.5531,2.5576,2.5644,2.6387,2.7246,2.8105,2.8965,2.9755,3.049,3.053,3.0432,3.0234,3.0182,3.0061,2.9845,2.9829,2.9748,2.9551,2.9532,2.9455,2.9293,2.9225,2.9292,2.9503,2.9228,2.8918,2.8544,2.8456,2.8023,2.734,2.7705,2.7537,0.0,0.0,0.0,0.0,0.0,0.0,0.364,0.6234,0.8804,0.0,0.0,0.0,0.0,0.0,0.0,0.0,0.0,0.0,0.0,0.0,0.0,0.0,0.0,0.0,0.0,0.848,0.8999,0.9478,1.0108,1.0878,1.1811,1.2318,1.2768,1.3198,1.3267,1.3301,1.3301,1.3323,1.3323,1.3267,1.3892,1.4624,1.5571,1.6687,1.7691,1.8619,1.8593,1.8597,1.8553,1.7936,1.8041,1.8597,1.8597,1.8488,1.83,1.8284,1.8744,1.9367,1.9355,1.9601,2.0069,2.087,2.0677,2.039,2.187,2.1837,2.1448,2.2124,2.231,2.2443,2.2989,2.3141,2.3356,2.4211,2.4425,2.454,2.4866,2.4967,2.5065,2.5301,2.543,2.5503,2.5576,2.6249,2.707,2.8008,2.8848,2.9668,3.0469,3.0535,3.0516,3.0506,3.0448,3.0311,3.0095,3.0061,2.9954,2.9748,2.9729,2.9712,2.9696,2.9532,2.9434,2.9434,2.8772,2.8405,2.834,2.8507,2.8191,2.7454,2.8099,2.8155,0.0,0.0,0.0,0.0,0.0,0.0,0.1917,0.4068,0.6375,0.0,0.0,0.0,0.0,0.0,0.0,0.0,0.0,0.0,0.0,0.0,0.0,0.0,0.0,0.0,0.8561,0.9039,0.9399,0.9478,1.0743,1.1774,1.2318,1.2803,1.3094,1.3198,1.3581,1.3769,1.3769,1.4084,1.4084,1.3782,1.4324,1.4976,1.5667,1.6222,1.7078,1.8035,1.7933,1.7891,1.7876,1.7742,1.7772,1.7891,1.7891,1.7867,1.7815,1.7592,1.7969,1.8568,1.8294,1.8827,1.9704,2.045,2.0826,2.1126,2.204,2.2209,2.2124,2.226,2.231,2.236,2.2712,2.2797,2.2996,2.3696,2.3966,2.4192,2.454,2.4804,2.501,2.5065,2.5264,2.5434,2.5514,2.571,2.6152,2.7031,2.7949,2.8828,2.9629,3.0287,3.0648,3.059,3.0525,3.0456,3.0419,3.0362,3.0209,2.9954,2.9939,2.9877,2.9713,2.9661,2.9643,2.9643,2.9034,2.8471,2.8012,2.8408,2.8665,2.8846,2.9081,2.9109,0.0,0.0,0.0,-0.1059,0.0,0.0,0.0,0.2392,0.4362,0.0,0.0,0.0,0.0,0.0,0.0,0.0,0.0,0.0,0.0,0.0,0.0,0.0,0.0,0.0,0.9817,1.005,1.034,1.0629,1.1568,1.2342,1.2765,1.3285,1.3648,1.3835,1.4084,1.4214,1.4214,1.4406,1.4406,1.4214,1.4479,1.4876,1.5413,1.5955,1.6603,1.7309,1.7243,1.7204,1.7174,1.6892,1.6742,1.6787,1.707,1.701,1.6743,1.6605,1.6886,1.7335,1.7157,1.7551,1.8316,1.9213,1.9648,2.004,2.1343,2.2006,2.231,2.231,2.231,2.236,2.2634,2.2695,2.2822,2.3346,2.366,2.3926,2.4192,2.45,2.4795,2.4877,2.5049,2.525,2.5418,2.5478,2.5976,2.7343,2.7949,2.8711,3.0039,3.0488,3.0696,3.0661,3.0603,3.054,3.0556,3.0487,3.0393,3.0266,3.0215,3.0136,3.0052,2.9927,2.9765,2.9551,2.9237,2.8777,2.8156,2.8798,2.8904,2.8498,2.8956,2.9239,0.0,0.0,0.0,0.0,0.0,-0.0897,0.0,0.0,0.0,0.0,0.0,0.0,0.0,0.0,0.0,0.0,0.0,0.0,0.0,0.0,0.0,0.0,0.0,0.0,0.0,1.1088,1.1465,1.2006,1.2437,1.2847,1.3221,1.3729,1.4149,1.4501,1.4596,1.4627,1.4627,1.4721,1.469,1.4627,1.4627,1.4839,1.5305,1.5725,1.6191,1.6697,1.6577,1.6532,1.6488,1.5994,1.5799,1.5858,1.6353,1.6234,1.5799,1.5799,1.5983,1.6191,1.6191,1.6421,1.6875,1.788,1.8487,1.9138,2.0894,2.1837,2.231,2.231,2.231,2.2349,2.2563,2.2608,2.2712,2.3021,2.3323,2.3592,2.387,2.4192,2.4474,2.47,2.4864,2.5049,2.529,2.537,2.5909,2.7432,2.783,2.8476,2.9941,3.0195,3.0293,3.0469,3.042,3.0438,3.0607,3.0558,3.0505,3.0506,3.0448,3.0398,3.0398,3.0196,2.9912,2.9532,2.9493,2.9129,2.8478,2.907,2.8859,2.7929,2.8881,2.9353,0.0,0.0,0.0,0.0,-0.1264,0.0,0.0,0.0,0.0,0.0,0.0,0.0,0.0,0.0,0.0,0.0,0.0,0.0,0.0,0.0,0.0,0.0,0.0,0.0,0.0,1.1775,1.2634,1.2923,1.3187,1.345,1.3789,1.4214,1.4438,1.4501,1.4845,1.5043,1.5043,1.5448,1.5448,1.5043,1.5043,1.536,1.5987,1.5466,1.5768,1.6682,1.6129,1.5903,1.5903,1.5829,1.5799,1.5814,1.5888,1.5858,1.5799,1.5799,1.5827,1.5856,1.5856,1.6095,1.6476,1.7258,1.8784,2.0572,2.1793,2.2243,2.231,2.231,2.231,2.231,2.2349,2.2349,2.2398,2.2686,2.2797,2.2979,2.3592,2.3888,2.4155,2.4476,2.47,2.4869,2.503,2.5231,2.5467,2.5685,2.6486,2.7129,2.7324,2.8066,2.8867,2.9648,2.9667,2.9919,3.0639,3.0633,3.056,3.0498,3.0487,3.0467,3.0398,3.0367,3.0228,2.9939,2.9765,2.9361,2.8745,2.8601,2.8472,2.8351,2.9765,3.0255,0.0,0.0,0.0,0.0,0.0,0.0,-0.1179,0.0,-0.0498,0.0,0.0,0.0,0.0,0.0,0.0,0.0,0.0,0.0,0.0,0.0,0.0,0.0,0.0,0.0,0.0,0.0,0.0,0.0,1.3979,1.4187,1.4596,1.4752,1.4968,1.5255,1.5418,1.5507,1.5507,1.5712,1.5712,1.5507,1.5507,1.5654,1.5905,1.564,1.5758,1.6159,1.5918,1.5799,1.5799,1.5799,1.5799,1.5799,1.5799,1.5799,1.5799,1.5799,1.5799,1.5799,1.5799,1.587,1.6174,1.7104,1.8397,1.9821,2.0976,2.1595,2.1957,2.2209,2.231,2.231,2.231,2.231,2.2321,2.2436,2.2573,2.2772,2.3069,2.3338,2.3623,2.3983,2.4192,2.4416,2.4678,2.4956,2.5384,2.6053,2.6517,2.6996,2.7577,2.8008,2.8398,2.8809,2.8828,2.9141,2.998,2.9991,3.0141,3.0598,3.0544,3.0467,3.0398,3.0398,3.0267,3.0013,2.9924,2.9641,2.9151,2.9042,2.8791,2.8433,2.9765,3.0368,-0.1714,0.0,0.0,0.0,0.0,0.0,0.0,0.0,0.0,0.0,0.0,0.0,0.0,0.0,0.0,0.0,0.0,0.0,0.0,0.0,0.0,0.0,0.0,0.0,0.0,0.0,0.0,1.3829,1.4349,1.4774,1.4979,1.5272,1.5638,1.6052,1.6067,1.6067,1.6067,1.6067,1.6067,1.6067,1.5983,1.5926,1.5926,1.5856,1.5799,1.5799,1.5799,1.5799,1.5799,1.5799,1.5799,1.5799,1.5799,1.5799,1.5799,1.5799,1.5799,1.5799,1.5799,1.5799,1.602,1.7264,1.8163,1.9012,2.0326,2.1141,2.1658,2.2003,2.2209,2.231,2.231,2.231,2.231,2.231,2.2436,2.2625,2.2669,2.2898,2.3189,2.3628,2.3824,2.4025,2.4425,2.4752,2.5227,2.6088,2.6255,2.6555,2.7323,2.7448,2.7575,2.7871,2.793,2.8281,2.918,2.9199,2.9511,3.0319,3.0479,3.0506,3.0467,3.0448,3.0349,3.0142,3.0047,2.9861,2.9551,2.9454,2.9166,2.8707,2.9607,3.0088,0.0,0.0,0.0,-0.2181,0.0,0.0,0.0,0.0,-0.0988,0.0,0.0,0.0,0.0,0.0,0.0,0.0,0.0,0.0,0.0,0.0,0.0,0.0,0.0,0.0,0.0,0.0,0.0,1.2113,1.4013,1.5023,1.4725,1.5698,1.6421,1.6763,1.6763,1.6763,1.6763,1.6763,1.6763,1.6763,1.6436,1.6301,1.6274,1.5955,1.5799,1.5799,1.5799,1.5799,1.5799,1.5799,1.5799,1.5799,1.5799,1.5799,1.5799,1.5799,1.5799,1.5799,1.5799,1.5799,1.6067,1.7821,1.8376,1.8749,2.0448,2.1259,2.1582,2.1628,2.1957,2.231,2.231,2.231,2.231,2.231,2.231,2.2388,2.2634,2.2721,2.2923,2.3566,2.3714,2.3881,2.4408,2.467,2.4855,2.5024,2.5105,2.5236,2.5467,2.5538,2.5948,2.6855,2.6934,2.7324,2.8262,2.834,2.8672,2.9491,3.0195,3.0602,3.0583,3.0525,3.0475,3.0475,3.0174,2.9999,2.9984,2.9589,2.9392,2.9372,2.9544,2.9436,0.0,0.0,-0.2592,-0.2534,0.0,0.0,0.0,0.0,0.0,0.0,0.0,0.0,0.0,0.0,0.0,0.0,0.0,0.0,0.0,0.0,0.0,0.0,0.0,0.0,0.0,0.0,0.0,1.3081,1.446,1.5296,1.5361,1.617,1.6827,1.7256,1.6978,1.6885,1.7069,1.6885,1.6789,1.6789,1.6448,1.6301,1.6301,1.5955,1.5799,1.5784,1.5334,1.5394,1.5769,1.5334,1.5409,1.5799,1.5799,1.5799,1.5799,1.5799,1.5799,1.5799,1.5799,1.6054,1.6488,1.7076,1.7879,1.8781,1.9685,2.0303,2.0797,2.1118,2.1507,2.184,2.184,2.2077,2.231,2.231,2.231,2.2321,2.2426,2.2453,2.2634,2.3253,2.3369,2.3588,2.4191,2.4357,2.4493,2.4828,2.4955,2.5075,2.5197,2.5339,2.5577,2.5939,2.5974,2.6347,2.7285,2.8476,2.9258,2.9492,3.0233,3.0653,3.0595,3.0587,3.0577,3.0564,3.0407,3.0267,3.012,2.9905,2.9661,2.9392,2.9462,2.9436,-0.2975,-0.306,0.0,-0.2761,-0.2788,0.0,-0.2357,0.0,0.0,0.0,0.0,0.0,0.0,0.0,0.0,0.0,0.0,0.0,0.0,0.0,0.0,0.0,0.0,0.0,0.0,0.0,1.1354,1.1946,1.3733,1.4912,0.0,0.0,1.7166,1.7951,1.7662,1.7575,1.7703,1.7436,1.7304,1.728,1.686,1.6465,1.6098,1.5783,1.543,1.5052,1.4633,1.4812,1.5424,1.4989,1.5064,1.5469,1.5709,1.5649,1.5484,1.5709,1.5799,1.5799,1.5799,1.6039,1.6443,1.6906,1.7637,1.85,1.9272,1.987,2.0348,2.0665,2.1055,2.143,2.1552,2.1823,2.2106,2.2254,2.231,2.231,2.231,2.231,2.2426,2.294,2.3021,2.3253,2.3917,2.4016,2.4173,2.4623,2.4766,2.4892,2.5037,2.5184,2.532,2.5437,2.5464,2.5726,2.6351,2.7762,2.8719,2.8988,2.9789,3.0351,3.0618,3.0615,3.0755,3.1096,3.0722,3.0606,3.0775,3.0299,2.9901,2.9607,2.9474,2.9462]},{"header":{"parameterUnit":"m.s-1","parameterCategory":1,"la1":30.6,"la2":29.2853,"lo1":-89.7004,"lo2":-87.6739,"dy":0.0162,"dx":0.0183,"nx":112,"ny":82,"refTime":"2023-03-08T06:00:00:Z","depth":0,"parameterNumber":3,"parameterNumberName":"V-component_of_WINDS"},"data":[0.0,0.0,0.0,0.0,0.0,0.0,0.0,0.0,0.0,0.0,0.0,0.0,0.0,0.0,0.0,0.0,0.0,0.0,0.0,0.0,0.0,0.0,0.0,0.0,0.0,0.0,0.0,0.0,0.0,0.0,0.0,0.0,0.0,0.0,0.0,0.0,0.0,0.0,0.0,0.0,0.0,0.0,0.0,0.0,0.0,0.0,0.0,0.0,0.0,0.0,0.0,0.0,0.0,0.0,0.0,0.0,0.0,0.0,0.0,0.0,0.0,0.0,0.0,0.0,0.0,0.0,0.0,0.0,0.0,0.0,0.0,0.0,0.0,0.0,0.0,0.0,0.0,0.0,0.0,0.0,0.0,0.0,0.0,0.0,0.0,0.0,0.0,0.0,0.0,0.0,0.0,3.9467,3.9708,4.015,4.075,4.1585,4.2377,4.3044,0.0,0.0,0.0,0.0,0.0,0.0,0.0,0.0,0.0,0.0,0.0,0.0,0.0,0.0,0.0,0.0,0.0,0.0,0.0,0.0,0.0,0.0,0.0,0.0,0.0,0.0,0.0,0.0,0.0,0.0,0.0,0.0,0.0,0.0,0.0,0.0,0.0,0.0,0.0,0.0,0.0,0.0,0.0,0.0,0.0,0.0,0.0,0.0,0.0,0.0,0.0,0.0,0.0,0.0,0.0,0.0,0.0,0.0,0.0,0.0,0.0,0.0,0.0,0.0,0.0,0.0,0.0,0.0,0.0,0.0,0.0,0.0,0.0,0.0,0.0,0.0,0.0,0.0,0.0,0.0,0.0,0.0,0.0,0.0,0.0,0.0,0.0,0.0,0.0,0.0,0.0,0.0,0.0,0.0,0.0,0.0,0.0,0.0,0.0,0.0,0.0,0.0,0.0,0.0,3.8685,3.9477,4.031,4.0794,4.0809,4.1558,4.2325,4.3044,0.0,0.0,0.0,0.0,0.0,0.0,0.0,0.0,0.0,0.0,0.0,0.0,0.0,0.0,0.0,0.0,0.0,0.0,0.0,0.0,0.0,0.0,0.0,0.0,0.0,0.0,0.0,0.0,0.0,0.0,0.0,0.0,0.0,0.0,0.0,0.0,0.0,0.0,0.0,0.0,0.0,0.0,0.0,0.0,0.0,0.0,0.0,0.0,0.0,0.0,0.0,0.0,0.0,0.0,0.0,0.0,0.0,0.0,0.0,0.0,0.0,0.0,0.0,0.0,0.0,0.0,0.0,0.0,0.0,0.0,0.0,0.0,0.0,0.0,0.0,0.0,0.0,0.0,0.0,0.0,0.0,0.0,0.0,0.0,0.0,0.0,0.0,0.0,0.0,0.0,0.0,0.0,0.0,0.0,0.0,0.0,0.0,0.0,0.0,0.0,0.0,0.0,0.0,3.9243,3.9127,4.0092,4.0614,4.1038,4.1432,4.2191,4.2955,4.3698,4.4913,0.0,0.0,0.0,0.0,0.0,0.0,0.0,0.0,0.0,0.0,0.0,0.0,0.0,0.0,0.0,0.0,0.0,0.0,0.0,0.0,0.0,0.0,0.0,0.0,0.0,0.0,0.0,0.0,0.0,0.0,0.0,0.0,0.0,0.0,0.0,0.0,0.0,0.0,0.0,0.0,0.0,0.0,0.0,0.0,0.0,0.0,0.0,0.0,0.0,0.0,0.0,0.0,0.0,0.0,0.0,0.0,0.0,0.0,0.0,0.0,0.0,0.0,0.0,0.0,0.0,0.0,0.0,0.0,0.0,0.0,0.0,0.0,0.0,0.0,0.0,0.0,0.0,0.0,0.0,0.0,0.0,0.0,0.0,0.0,0.0,0.0,0.0,0.0,0.0,0.0,0.0,0.0,0.0,0.0,0.0,0.0,0.0,0.0,0.0,0.0,0.0,0.0,3.9908,3.9948,4.0626,4.0762,4.1034,4.1633,4.2415,4.3202,4.3968,4.4816,0.0,0.0,0.0,0.0,0.0,0.0,0.0,0.0,0.0,0.0,0.0,0.0,0.0,0.0,0.0,0.0,0.0,0.0,0.0,0.0,0.0,0.0,0.0,0.0,0.0,0.0,0.0,0.0,0.0,0.0,0.0,0.0,0.0,0.0,0.0,0.0,0.0,0.0,0.0,0.0,0.0,0.0,0.0,0.0,0.0,0.0,0.0,0.0,0.0,0.0,0.0,0.0,0.0,0.0,0.0,0.0,0.0,0.0,0.0,0.0,0.0,0.0,0.0,0.0,0.0,0.0,0.0,0.0,0.0,0.0,0.0,0.0,0.0,0.0,0.0,0.0,0.0,0.0,0.0,0.0,0.0,0.0,0.0,0.0,0.0,0.0,0.0,0.0,0.0,0.0,0.0,0.0,0.0,0.0,0.0,0.0,0.0,0.0,0.0,0.0,0.0,0.0,4.0101,4.0626,4.0703,4.0703,4.0734,4.08,4.1475,4.2274,4.3124,4.3932,0.0,0.0,0.0,0.0,0.0,0.0,0.0,0.0,0.0,0.0,0.0,0.0,0.0,0.0,0.0,0.0,0.0,0.0,0.0,0.0,0.0,0.0,0.0,0.0,0.0,0.0,0.0,0.0,0.0,0.0,0.0,0.0,0.0,0.0,0.0,0.0,0.0,0.0,0.0,0.0,0.0,0.0,0.0,0.0,0.0,0.0,0.0,0.0,0.0,0.0,0.0,0.0,0.0,0.0,0.0,0.0,0.0,0.0,0.0,0.0,0.0,0.0,0.0,0.0,0.0,0.0,0.0,0.0,0.0,0.0,0.0,0.0,0.0,0.0,0.0,0.0,0.0,0.0,0.0,0.0,0.0,0.0,0.0,0.0,0.0,0.0,0.0,0.0,0.0,0.0,0.0,0.0,0.0,0.0,0.0,0.0,0.0,0.0,0.0,0.0,0.0,0.0,4.0063,4.0588,0.0,4.0588,4.0786,4.1345,4.1636,4.2393,4.3758,0.0,0.0,0.0,0.0,0.0,0.0,0.0,0.0,0.0,0.0,0.0,0.0,0.0,0.0,0.0,0.0,0.0,0.0,0.0,0.0,0.0,0.0,0.0,0.0,0.0,0.0,0.0,0.0,0.0,0.0,0.0,0.0,0.0,0.0,0.0,0.0,0.0,0.0,0.0,0.0,0.0,0.0,0.0,0.0,0.0,0.0,0.0,0.0,0.0,0.0,0.0,0.0,0.0,0.0,0.0,0.0,0.0,0.0,0.0,0.0,0.0,0.0,0.0,0.0,0.0,0.0,0.0,0.0,0.0,0.0,0.0,0.0,0.0,0.0,0.0,0.0,0.0,0.0,0.0,0.0,0.0,0.0,0.0,0.0,0.0,0.0,0.0,0.0,0.0,0.0,0.0,0.0,0.0,0.0,0.0,0.0,0.0,0.0,0.0,0.0,0.0,0.0,3.9527,4.0162,4.0489,0.0,4.0489,4.0739,4.1335,4.1393,4.2104,4.3816,0.0,0.0,0.0,0.0,0.0,0.0,0.0,0.0,0.0,0.0,0.0,0.0,0.0,0.0,0.0,0.0,0.0,0.0,0.0,0.0,0.0,0.0,0.0,0.0,0.0,0.0,0.0,0.0,0.0,0.0,0.0,0.0,0.0,0.0,0.0,0.0,0.0,0.0,0.0,0.0,0.0,0.0,0.0,0.0,0.0,0.0,0.0,0.0,0.0,0.0,0.0,0.0,0.0,0.0,0.0,0.0,0.0,0.0,0.0,0.0,0.0,0.0,0.0,0.0,0.0,0.0,0.0,0.0,0.0,0.0,0.0,0.0,0.0,0.0,0.0,0.0,0.0,0.0,0.0,0.0,0.0,0.0,0.0,0.0,0.0,0.0,0.0,0.0,0.0,0.0,0.0,0.0,0.0,0.0,0.0,0.0,0.0,0.0,0.0,0.0,0.0,0.0,4.0277,4.0489,4.0489,4.0489,4.0489,4.0489,4.0489,4.0489,4.1239,0.0,0.0,0.0,0.0,0.0,0.0,0.0,0.0,0.0,0.0,0.0,0.0,0.0,0.0,0.0,0.0,0.0,0.0,0.0,0.0,0.0,0.0,0.0,0.0,0.0,0.0,0.0,0.0,0.0,0.0,0.0,0.0,0.0,0.0,0.0,0.0,0.0,0.0,0.0,0.0,0.0,0.0,0.0,0.0,0.0,0.0,0.0,0.0,0.0,0.0,0.0,0.0,0.0,0.0,0.0,0.0,0.0,0.0,0.0,0.0,0.0,0.0,0.0,0.0,0.0,0.0,0.0,0.0,0.0,0.0,0.0,0.0,0.0,0.0,0.0,0.0,0.0,0.0,0.0,0.0,0.0,0.0,0.0,0.0,0.0,0.0,0.0,0.0,0.0,0.0,0.0,0.0,0.0,0.0,0.0,0.0,0.0,0.0,0.0,0.0,0.0,0.0,0.0,4.0354,4.0489,4.0489,4.0489,4.0489,4.0489,4.0489,4.0489,4.1239,4.2989,0.0,0.0,0.0,0.0,0.0,0.0,0.0,0.0,0.0,0.0,0.0,0.0,0.0,0.0,0.0,0.0,0.0,0.0,0.0,0.0,0.0,0.0,0.0,0.0,0.0,0.0,0.0,0.0,0.0,0.0,0.0,0.0,0.0,0.0,0.0,0.0,0.0,0.0,0.0,0.0,0.0,0.0,0.0,0.0,0.0,0.0,0.0,0.0,0.0,0.0,0.0,0.0,0.0,0.0,0.0,0.0,0.0,0.0,0.0,0.0,0.0,0.0,0.0,0.0,0.0,0.0,0.0,0.0,0.0,0.0,0.0,0.0,0.0,0.0,0.0,0.0,0.0,0.0,0.0,0.0,0.0,0.0,0.0,0.0,0.0,0.0,0.0,0.0,0.0,0.0,0.0,0.0,0.0,0.0,0.0,0.0,0.0,0.0,0.0,0.0,0.0,0.0,4.0873,4.1027,4.1143,4.1489,4.1527,4.1527,4.1527,4.1219,4.1604,4.3008,0.0,0.0,0.0,0.0,0.0,0.0,0.0,0.0,0.0,0.0,0.0,0.0,0.0,0.0,0.0,0.0,0.0,0.0,0.0,0.0,0.0,0.0,0.0,0.0,0.0,0.0,0.0,0.0,0.0,0.0,0.0,0.0,0.0,0.0,0.0,0.0,0.0,0.0,0.0,0.0,0.0,0.0,0.0,0.0,0.0,0.0,0.0,0.0,0.0,0.0,0.0,0.0,0.0,0.0,0.0,0.0,0.0,0.0,0.0,0.0,0.0,0.0,0.0,0.0,0.0,0.0,0.0,0.0,0.0,0.0,0.0,0.0,0.0,0.0,0.0,0.0,0.0,0.0,0.0,0.0,0.0,0.0,0.0,0.0,0.0,0.0,0.0,0.0,0.0,0.0,0.0,0.0,0.0,0.0,0.0,0.0,0.0,0.0,0.0,0.0,0.0,0.0,4.1585,4.1797,4.2143,4.3008,4.3104,4.3104,4.3104,4.2374,4.2258,4.3047,0.0,0.0,0.0,0.0,0.0,0.0,0.0,0.0,0.0,0.0,0.0,0.0,0.0,0.0,0.0,0.0,0.0,0.0,0.0,0.0,0.0,0.0,0.0,0.0,0.0,0.0,0.0,0.0,0.0,0.0,0.0,0.0,0.0,0.0,0.0,0.0,0.0,0.0,0.0,0.0,0.0,0.0,0.0,0.0,0.0,0.0,0.0,0.0,0.0,0.0,0.0,0.0,0.0,0.0,0.0,0.0,0.0,0.0,0.0,0.0,1.7587,0.0,0.0,0.0,0.0,0.0,0.0,0.0,0.0,0.0,0.0,0.0,0.0,0.0,0.0,0.0,0.0,0.0,0.0,0.0,0.0,0.0,0.0,0.0,0.0,0.0,0.0,0.0,0.0,0.0,0.0,0.0,0.0,0.0,0.0,0.0,0.0,0.0,0.0,0.0,0.0,0.0,4.1681,4.1797,4.2143,4.3008,4.3104,4.3104,4.3104,4.2931,4.2893,4.3085,4.3104,0.0,0.0,0.0,0.0,0.0,0.0,0.0,0.0,0.0,0.0,0.0,0.0,0.0,0.0,0.0,0.0,0.0,0.0,0.0,0.0,0.0,0.0,0.0,0.0,0.0,0.0,0.0,0.0,0.0,0.0,0.0,0.0,0.0,0.0,0.0,0.0,0.0,0.0,0.0,0.0,0.0,0.0,0.0,0.0,0.0,0.0,0.0,0.0,0.0,0.0,0.0,0.0,0.0,0.0,0.0,0.0,0.0,0.0,0.0,0.0,1.8465,0.0,0.0,0.0,0.0,0.0,0.0,0.0,0.0,0.0,0.0,0.0,0.0,0.0,0.0,0.0,0.0,0.0,0.0,0.0,0.0,0.0,0.0,0.0,0.0,0.0,0.0,0.0,0.0,0.0,0.0,0.0,0.0,0.0,0.0,0.0,0.0,0.0,0.0,0.0,0.0,4.2316,4.2758,4.3335,4.4201,4.4297,4.4297,4.4297,4.3912,4.3682,4.3682,4.3682,0.0,0.0,0.0,0.0,0.0,0.0,0.0,0.0,0.0,0.0,0.0,0.0,0.0,0.0,0.0,0.0,0.0,0.0,0.0,0.0,0.0,0.0,0.0,0.0,0.0,0.0,0.0,0.0,0.0,0.0,0.0,0.0,0.0,0.0,0.0,0.0,0.0,0.0,0.0,0.0,0.0,0.0,0.0,0.0,0.0,0.0,0.0,0.0,0.0,0.0,0.0,0.0,0.0,2.0955,2.0925,2.0466,2.092,2.0836,2.032,2.0766,2.011,1.8834,1.9531,0.0,0.0,0.0,0.0,0.0,0.0,0.0,0.0,0.0,0.0,0.0,0.0,0.0,0.0,0.0,0.0,0.0,0.0,0.0,0.0,0.0,0.0,0.0,0.0,3.941,3.8897,0.0,0.0,0.0,0.0,0.0,0.0,0.0,0.0,0.0,0.0,0.0,0.0,4.2989,4.3797,4.4624,4.5509,4.5586,4.5586,4.5586,4.4932,4.4451,4.4316,4.4297,4.4297,0.0,0.0,0.0,0.0,0.0,0.0,0.0,0.0,0.0,0.0,0.0,0.0,0.0,0.0,0.0,0.0,0.0,0.0,0.0,0.0,0.0,0.0,0.0,0.0,0.0,0.0,0.0,0.0,0.0,0.0,0.0,0.0,1.1295,0.7124,0.0,0.0,0.0,0.0,0.0,0.0,0.0,0.0,0.0,0.0,0.0,0.0,0.0,1.8968,1.9674,2.0497,2.0726,2.035,2.1308,2.1648,2.1459,2.244,2.282,2.2747,2.2988,0.0,1.9811,1.9863,0.0,0.0,0.0,0.0,0.0,0.0,0.0,0.0,0.0,0.0,0.0,0.0,0.0,0.0,0.0,0.0,0.0,0.0,0.0,0.0,0.0,0.0,3.6253,3.8201,3.9886,4.0807,0.0,4.0743,4.1739,4.1508,4.1046,0.0,0.0,0.0,0.0,0.0,0.0,0.0,4.2989,4.3797,4.4624,4.5509,4.5586,4.5586,4.5586,4.549,4.5105,4.4355,4.4297,4.4297,4.4297,4.4201,0.0,0.0,0.0,0.0,0.0,0.0,0.0,0.0,0.0,0.0,0.0,0.0,0.0,0.0,0.0,0.0,0.0,0.0,0.0,0.0,0.0,0.0,0.0,0.0,0.0,0.0,0.0,0.0,0.0,0.7349,0.7605,0.4556,0.5501,0.6681,0.0,0.0,0.0,0.0,0.0,0.0,0.0,0.0,0.0,1.7498,1.9686,2.0903,2.1038,2.2409,2.2989,2.2829,2.3308,2.3474,2.3417,2.3879,2.4008,2.3842,2.4098,2.3529,2.2379,2.1808,2.1525,2.1403,0.0,0.0,0.0,0.0,2.1856,2.2381,2.2833,2.4092,0.0,2.5967,0.0,0.0,0.0,0.0,0.0,0.0,0.0,0.0,0.0,0.0,3.9287,4.1283,4.2412,4.306,4.3175,4.3208,4.2931,0.0,4.1893,4.195,4.195,0.0,0.0,0.0,0.0,4.2835,4.3662,4.4509,4.5182,4.5547,4.5586,4.5586,4.5586,4.5586,4.5432,4.5047,4.5028,4.5028,4.5028,4.5028,4.5201,0.0,0.0,0.0,0.0,0.0,0.0,0.0,0.0,0.0,0.0,0.0,0.0,0.0,0.0,0.0,0.0,0.0,0.0,0.0,0.0,0.0,0.0,0.0,0.0,0.0,0.0,0.0,0.0,0.6379,0.5559,0.3156,0.4004,0.5077,0.0,0.0,0.0,0.0,0.0,0.0,1.407,1.668,1.8358,1.8752,2.1219,2.2609,2.2723,2.4157,2.4892,2.4911,2.4839,2.4839,2.4911,2.4839,2.4723,2.4623,2.4816,2.4784,2.4534,2.3543,2.2922,2.2607,2.2489,2.2717,2.3126,2.3126,2.3686,2.4552,2.5386,2.6616,2.7904,2.8283,2.9598,3.1022,3.1072,0.0,0.0,0.0,0.0,3.5696,3.7908,3.976,4.1613,4.3863,4.4568,4.4897,4.5553,4.5186,4.4253,0.0,4.2797,4.3104,4.3104,0.0,0.0,0.0,0.0,4.3624,4.422,4.5047,4.5586,4.5586,4.5586,4.5586,4.5586,4.5586,4.5586,4.5586,4.5586,4.5586,4.5586,4.5586,4.5586,4.5586,0.0,0.0,0.0,0.0,0.0,0.0,0.0,0.0,0.0,0.0,0.0,0.0,0.0,0.0,0.0,0.0,0.0,0.0,0.0,0.0,0.0,0.0,0.0,0.0,0.0,0.0,0.0,0.0,0.0,0.3469,0.4099,0.0,0.0,0.0,0.0,1.2081,1.3806,1.4609,1.4309,1.6884,1.8967,2.0259,2.1668,2.3314,2.519,2.519,2.517,2.517,2.4913,2.4924,2.5163,2.4933,2.5024,2.5424,2.5253,2.5279,2.5354,2.4225,2.3743,2.3659,2.3014,2.3288,2.403,2.403,2.4585,2.5468,2.6408,2.7239,2.8169,2.9821,3.1534,3.2967,3.2957,3.366,0.0,0.0,3.5646,3.744,3.9104,4.0765,4.2471,4.4264,4.5267,4.5822,4.5881,4.5842,4.55,0.0,4.3585,4.3104,4.3104,0.0,4.3008,4.3085,4.3739,4.4239,4.4297,4.5047,4.5586,4.5586,4.5586,4.5586,4.5586,4.5586,4.5586,4.5586,4.5586,4.5586,4.5586,4.5586,4.5586,4.5586,4.5718,0.0,0.0,0.0,0.0,0.0,0.0,0.0,0.0,0.0,0.0,0.0,0.0,0.0,0.0,0.0,0.0,0.0,0.0,0.0,0.0,0.0,0.0,0.0,0.0,0.0,0.0,0.0,0.0,0.4457,0.4524,0.0,0.6396,0.7659,0.9255,1.1288,1.3644,1.5375,1.6192,1.9075,2.1238,2.2356,2.3599,2.4611,2.5339,2.5329,2.5328,2.5335,2.529,2.5298,2.5393,2.5291,2.5337,2.5493,2.5371,2.5371,2.5408,2.4996,2.4875,2.4929,2.4693,2.5158,2.5978,2.5978,2.6878,2.8147,2.8441,2.978,3.166,3.331,3.3959,3.4077,3.4068,3.4749,3.5491,3.547,3.7513,3.9939,4.0998,4.2966,4.4799,4.536,4.5685,4.5899,4.5899,4.5899,4.5794,4.5409,4.4602,4.4163,4.4639,4.3816,4.347,4.4547,4.447,4.4489,4.5047,4.5413,4.5586,4.5586,4.5586,4.5586,4.5586,4.5586,4.5586,4.5586,4.5586,4.5586,4.5586,4.5677,4.5718,4.5718,4.5911,4.6279,0.0,0.0,0.0,0.0,0.0,0.0,0.0,0.0,0.0,0.0,0.0,0.0,0.0,0.0,0.0,0.0,0.0,0.0,0.0,0.0,0.0,0.0,0.0,0.0,0.0,0.0,0.4964,0.4527,0.4527,0.5058,0.6263,0.7555,0.9097,1.0925,1.3587,1.5878,1.7586,2.01,2.214,2.3586,2.4438,2.5034,2.5406,2.5471,2.5508,2.5493,2.5511,2.5551,2.5564,2.5547,2.5551,2.5567,2.5499,2.5467,2.5467,2.5432,2.5666,2.5976,2.5702,2.6328,2.7372,2.7421,2.8515,3.0018,3.0257,3.1822,3.3918,3.497,3.5178,3.5087,3.5381,3.6133,3.6931,3.7239,3.9566,4.2086,4.2572,4.4426,4.6147,4.6069,4.6039,4.6039,4.6039,4.6039,4.6027,4.5981,4.5434,4.5118,4.558,4.4739,4.4457,4.5834,4.5297,4.5047,4.5932,4.5778,4.5586,4.5586,4.5586,4.5586,4.5586,4.5874,4.5913,4.5605,4.5874,4.5928,4.5684,4.6032,4.6242,4.6271,4.6456,4.6843,4.7461,0.0,0.0,0.0,0.0,0.0,0.0,0.0,0.0,0.0,0.0,0.0,0.0,0.0,0.0,0.0,0.0,0.0,0.0,0.0,0.0,0.0,0.0,0.0,0.0992,0.3524,0.4639,0.3466,0.4022,0.4792,0.5634,0.6908,0.87,1.1182,1.3727,1.6124,1.8329,1.9813,2.1618,2.3867,2.4005,2.4545,2.5581,2.5662,2.5684,2.5684,2.5636,2.5637,2.5683,2.5636,2.5637,2.5683,2.5611,2.5598,2.5595,2.5511,2.5984,2.6684,2.5892,2.6646,2.8145,2.8254,2.9311,3.0823,3.1706,3.3129,3.4566,3.4522,3.5134,3.6059,3.6941,3.7862,3.8789,3.9648,4.1738,4.3691,4.3691,4.498,4.6308,4.6308,4.6308,4.6308,4.6308,4.6308,4.6268,4.612,4.5995,4.5891,4.5815,4.5809,4.6051,4.6756,4.6124,0.0,4.6759,4.6124,4.5605,4.5624,4.5624,4.5642,4.5642,4.6431,4.6527,4.5659,4.6392,4.6552,4.5835,4.6616,4.7109,4.7201,4.7371,4.752,4.7676,0.0,0.0,0.0,0.0,0.0,0.0,0.0,0.0,0.0,0.0,0.0,0.0,0.0,0.0,0.0,0.0,0.0,0.0,0.0,0.0,0.0,0.0,-0.0366,0.2083,0.2132,0.1997,0.2145,0.2003,0.248,0.3928,0.4755,0.6592,0.9976,1.2871,1.5894,1.9168,2.1512,2.3373,2.4735,2.4879,2.5102,2.5444,2.5468,2.5502,2.5547,2.5531,2.5548,2.5558,2.5548,2.5548,2.5554,2.5473,2.5446,2.5459,2.5376,2.55,2.5691,2.5585,2.6943,2.8907,2.8364,2.9234,3.0838,3.1816,3.2849,3.3824,3.4445,3.5247,3.6149,3.7009,3.789,3.8789,3.9648,4.1738,4.3691,4.3691,4.498,4.6308,4.6308,4.6308,4.6308,4.6308,4.6308,4.6289,4.6247,4.6223,4.6117,4.5909,4.5825,4.588,4.6076,4.5803,0.0,4.5932,4.574,4.5836,4.649,4.6547,4.656,4.6607,4.6834,4.664,4.5867,4.6042,4.6083,4.5891,4.6205,4.6733,4.7486,4.8158,4.8827,0.0,0.0,0.0,0.0,0.0,0.0,0.0,0.0,0.0,0.0,0.0,0.0,0.0,0.0,0.0,0.0,0.0,0.0,0.0,0.0,0.0,0.0,-0.342,-0.1204,-0.029,-0.0042,-0.0171,-0.0649,-0.0788,-0.0872,-0.106,-0.0126,0.1254,0.3209,0.8607,1.297,1.5627,2.0534,2.3675,2.4573,2.4817,2.4959,2.5024,2.5138,2.5211,2.5243,2.5246,2.5259,2.5259,2.5337,2.5368,2.5387,2.5395,2.5406,2.5418,2.5726,2.6063,0.0,0.0,0.0,0.0,0.0,2.9814,3.0799,3.1425,3.2207,3.3047,3.3887,3.4746,3.5684,3.6914,3.791,3.8789,3.9648,4.1465,4.3164,4.3164,4.4453,4.5762,4.5762,4.6035,4.6308,4.6308,4.6308,4.6308,4.6308,4.6308,0.0,4.6089,4.5986,4.6027,4.6333,4.6016,4.5852,4.622,4.5949,4.593,4.6419,4.6477,4.6499,4.6542,4.6884,0.0,0.0,0.0,4.6469,4.6534,4.6663,0.0,0.0,0.0,4.9141,4.9668,0.0,0.0,0.0,5.0683,5.1699,0.0,0.0,0.0,0.0,0.0,0.0,0.0,0.0,0.0,0.0,0.0,0.0,0.0,0.0,0.0,0.0,-0.4615,-0.3892,-0.4843,-0.3347,-0.2805,-0.447,-0.4434,-0.5173,-0.7578,-0.6416,-0.5665,-0.5982,0.2482,0.8325,0.979,0.0,0.0,0.0,0.0,2.4102,2.4353,2.4587,2.4741,2.484,2.479,2.4809,2.4889,2.5022,2.5139,2.5182,2.5298,2.5414,2.5588,2.6314,2.7178,2.7958,2.7352,2.7479,2.824,2.997,3.0638,3.0713,3.0814,0.0,0.0,3.3007,3.3906,3.5019,3.664,3.7812,3.8789,3.9648,4.1113,4.2402,4.2402,4.3613,4.4883,4.498,4.5586,4.6172,4.6289,4.6308,4.6308,4.6308,4.6308,4.6308,4.6308,4.6198,4.6323,4.6975,4.6394,4.6171,4.694,4.6385,4.5938,4.6035,0.0,0.0,4.6072,4.6772,4.685,4.5998,4.675,4.734,4.7561,4.7672,4.8164,4.9023,4.9043,4.9082,4.918,4.9961,5.0449,5.0664,5.2051,5.3164,0.0,0.0,0.0,0.0,0.0,0.0,0.0,0.0,0.0,0.0,0.0,0.0,0.0,0.0,0.0,-0.7846,-0.7117,-0.7154,-0.883,-0.9598,-0.9581,-0.8414,-0.9645,-1.0644,-1.0989,-1.0766,-0.9999,-0.8607,-0.1602,0.3958,0.7075,1.5851,2.0995,2.1473,2.1494,2.2138,2.3524,2.3529,2.3851,2.4485,0.0,0.0,2.4807,2.4582,2.4674,2.5034,2.5072,2.5559,2.6381,2.6534,2.7505,2.892,2.947,2.9355,2.8989,3.0113,3.0554,3.0628,3.0643,3.1323,3.2206,3.2182,3.3339,3.4882,3.5868,3.73,0.0,3.9648,4.1113,4.2402,4.2402,4.3164,4.4121,4.4824,4.5137,4.5449,4.6152,4.6308,4.6308,4.6308,4.6308,4.6308,4.6308,4.6198,4.6143,4.6284,4.6072,4.5957,4.6132,4.5996,4.6171,4.6872,4.694,4.6984,4.7092,4.7254,4.7045,4.6262,4.7044,4.7846,4.8572,4.8633,4.9062,4.9922,4.9941,5.0273,5.0918,5.1094,5.1894,5.3262,5.2871,5.3164,0.0,0.0,0.0,0.0,0.0,0.0,0.0,0.0,0.0,0.0,0.0,-1.2923,0.0,0.0,-0.9764,-0.9965,-0.9879,-1.0365,-1.2016,-1.4062,-1.483,-1.3309,-1.4009,-1.5179,-1.6556,-1.6428,-1.6113,-1.5775,-0.8031,-0.2439,-0.0462,0.9814,1.6499,1.8405,1.9278,2.0324,2.1541,2.2216,2.2868,2.3482,2.3304,2.3479,2.4007,2.41,2.4275,2.4542,2.5206,2.5857,2.6523,2.7454,2.8602,2.9794,3.0237,3.014,2.9817,3.0298,3.0513,3.0547,3.0587,3.0945,3.1448,3.1782,3.282,3.4105,3.4944,3.6453,3.8077,3.8918,4.0115,4.125,4.1699,4.2422,4.3164,4.3594,4.4023,4.459,4.5469,4.5644,4.5781,4.6211,4.6308,4.6308,4.6308,4.6246,4.62,4.62,4.6144,4.6108,4.6108,4.6108,4.6264,4.6689,4.6748,4.6956,4.7467,4.7896,4.7983,4.7617,4.8008,4.8457,4.8887,4.8906,4.9316,5.0176,5.0195,5.0605,5.1406,5.1406,5.207,5.3359,5.3359,5.4043,0.0,0.0,0.0,0.0,0.0,0.0,0.0,0.0,-1.479,-1.4151,-1.3974,-1.3662,-1.283,-1.1981,-1.159,-1.2101,-1.2731,-1.3596,-1.4955,-1.7525,-1.902,-1.8285,-1.8192,-1.9134,-2.167,-2.136,-2.1475,-2.2609,-1.4908,-0.9487,-0.8023,0.2731,1.0538,1.4169,1.6242,1.787,1.8981,2.0273,2.1346,2.2234,2.2153,2.2427,2.2968,2.3338,2.3599,2.3871,2.5478,2.6363,2.6847,2.8574,2.969,3.0323,3.0367,3.0398,3.0421,3.0462,3.05,3.0507,3.0552,3.0575,3.0716,3.1391,3.2221,3.3116,3.3958,3.5494,3.7106,3.7933,3.8854,3.9784,4.0508,4.1308,4.1953,4.2129,4.2812,4.373,4.4785,4.5,4.5254,4.6133,4.6308,4.6308,4.6308,4.6308,4.6308,4.6308,4.6308,4.6308,4.6308,4.6308,4.6308,4.6308,4.6308,4.6641,4.7539,4.8242,4.8789,4.9121,4.9141,4.9219,4.9375,4.9394,4.9726,5.043,5.043,5.0742,5.1406,5.1562,5.2109,5.2969,5.3848,5.5019,-1.8368,-1.8799,-1.9533,-1.873,-1.899,-1.9314,0.0,0.0,-1.6269,-1.6261,-1.5823,-1.5163,-1.4164,-1.4172,-1.4259,-1.3963,-1.536,-1.6862,-1.802,-2.017,-2.1926,-2.2748,-2.269,-2.2792,-2.3312,-2.3025,-2.3183,-2.409,-2.0624,-1.6168,-1.0865,-0.3091,0.3326,0.7957,1.0848,1.3563,1.6125,1.6953,1.8556,2.0922,2.0623,2.1017,2.2048,2.1866,2.2226,2.3173,2.5651,2.7262,2.8256,2.9421,2.9966,3.0075,3.0311,3.0398,3.041,3.0402,3.0462,3.049,3.0441,3.0498,3.0601,3.0578,3.1243,3.2195,3.3009,3.4513,3.6156,3.7067,3.7939,3.8615,3.8827,3.9531,4.0371,4.1152,4.1953,4.3008,4.4648,4.5,4.5254,4.6133,4.6308,4.6308,4.6308,4.6308,4.6308,4.6308,4.6308,4.6308,4.6308,4.6308,4.6308,4.6308,4.6308,4.6641,4.7539,4.7695,4.8418,4.9961,5.0058,5.0371,5.1094,5.1113,5.1172,5.1269,5.1269,5.1308,5.1406,5.2187,5.3008,5.3887,5.4746,5.5254,-1.9236,-1.9522,0.0,0.0,-2.0526,-2.0253,-1.9454,-1.8359,-1.7465,-1.7319,-1.7425,-1.7313,-1.6499,-1.6647,-1.695,0.0,-1.8353,-1.9673,-2.0855,-2.2447,-2.3752,-2.44,-2.4399,-2.4263,-2.4086,-2.3556,-2.3328,-2.3579,-2.0683,-1.7545,-1.4422,-0.8292,-0.2467,0.2796,0.6036,0.9494,1.3199,1.4603,1.6344,1.8505,1.8695,1.9356,2.04,2.0845,2.212,2.4112,2.5107,2.6702,2.8645,2.8997,2.9409,2.9829,2.9943,2.9992,3.0022,3.0299,3.0425,3.043,3.0402,3.0449,3.0463,3.0425,3.1039,3.1932,3.275,3.3953,3.5334,3.6707,3.7406,3.7886,3.8457,3.8867,3.9238,3.9609,4.0332,4.1289,4.2519,4.3164,4.3887,4.5273,4.5547,4.5703,4.6211,4.6308,4.6308,4.6308,4.6308,4.6308,4.6308,4.6308,4.6308,4.6308,4.6758,4.7207,4.7578,4.8535,4.9414,5.0156,5.0644,5.1055,5.1387,5.1406,5.1406,5.1406,5.1406,5.1406,5.1406,5.2266,5.3144,5.4004,5.429,5.4965,-1.9231,0.0,0.0,-2.1119,-2.1433,-2.1179,-2.0091,-1.9562,-1.924,-1.8972,-1.9398,-1.9551,-1.8663,-1.8802,-1.917,-1.9514,-2.0483,-2.1593,-2.2816,-2.389,-2.4646,-2.4922,-2.4793,-2.44,-2.3698,-2.3228,-2.2834,-2.2473,-1.9657,-1.7466,-1.6235,-1.2025,-0.7233,-0.1939,0.1367,0.5112,0.944,1.1893,1.4049,1.5948,1.6563,1.7434,1.8518,1.9634,2.1504,2.3884,2.4136,2.5578,2.7767,2.8126,2.8613,2.9195,2.9567,2.9696,2.9748,3.0085,3.0202,3.0202,3.0202,3.0202,3.0215,3.0267,3.0721,3.1405,3.2301,3.3121,3.4031,3.5519,3.6226,3.6671,3.7315,3.7846,3.8201,3.8201,3.8865,3.9803,4.0957,4.166,4.2656,4.4629,4.5,4.5273,4.6152,4.6308,4.6308,4.6308,4.6308,4.6308,4.6308,4.6308,4.6308,4.6308,4.6855,4.7324,4.7536,4.8708,4.9623,5.0066,5.0632,5.1059,5.1313,5.1313,5.1313,5.1313,5.1313,5.1313,5.1313,5.2426,5.3149,5.3559,5.4167,5.5016,0.0,0.0,-1.8977,-2.0003,-2.1299,-2.2099,-2.1179,-2.1548,-2.2022,-2.182,-2.1951,-2.1678,-2.0307,-2.0421,-2.063,-2.0317,-2.117,-2.2303,-2.3591,-2.4138,-2.4456,-2.4596,-2.4045,-2.3133,0.0,-2.2017,-2.1906,-2.1114,-1.8608,-1.6561,-1.5203,-1.3627,-1.0764,-0.6425,-0.3358,0.0211,0.4364,0.8338,1.1398,1.3517,1.4238,1.5242,1.6439,1.796,1.9624,2.1392,2.2745,2.4018,2.5252,2.6995,2.773,2.7904,2.9195,2.9696,2.9696,2.9713,2.9731,2.9731,2.9731,2.9731,2.9746,2.9954,3.0032,3.0266,3.1399,3.1756,3.1977,3.2948,3.3884,3.4594,3.4613,3.5929,3.7234,3.7234,3.7858,3.8944,4.08,4.1211,4.1973,4.4512,4.5,4.5273,4.6152,4.6308,4.6308,4.6308,4.6308,4.6308,4.6308,4.6308,4.6308,4.6308,4.6328,4.6638,4.7346,4.744,4.8156,4.9701,4.9837,5.0237,5.1064,5.1103,5.1103,5.1103,5.1103,5.1103,5.1103,5.2777,5.3147,5.2417,5.4957,5.5696,0.0,0.0,-1.9684,-2.1265,-2.1894,-2.2168,-2.2351,-2.2391,-2.2545,-2.3056,-2.2511,-2.1662,-2.0731,-2.0575,-2.0609,-2.0639,-2.1561,-2.2673,-2.3725,-2.3931,-2.4036,-2.4112,-2.3785,0.0,0.0,0.0,0.0,-1.963,-1.8107,-1.685,-1.5985,-1.479,-1.3072,-1.0831,-0.7424,-0.3352,0.1355,0.4222,0.7172,1.0316,1.1785,1.3202,1.4485,1.6204,1.793,1.961,2.0639,2.2448,2.466,2.55,2.6343,2.7209,2.8383,2.8851,2.8874,2.9148,2.9064,2.8901,2.9495,2.9696,2.9713,2.978,2.9893,3.0185,3.115,3.1583,3.1952,3.2851,3.3351,3.3634,3.3634,3.4508,3.5402,3.5402,3.6454,3.7634,3.8278,3.9364,4.0631,4.2075,4.2849,4.373,4.5195,4.5449,4.5625,4.6211,4.6308,4.6308,4.6308,4.6308,4.6308,4.6308,4.6223,4.6264,4.6522,4.6989,4.7506,4.8037,4.8621,4.9342,5.0208,5.0247,5.051,5.1094,5.1094,5.1094,5.1094,5.2203,5.2592,5.232,5.3106,5.3637,0.0,-1.9169,-1.9541,-2.1502,-2.1911,-2.2016,-2.2758,-2.2966,-2.3226,-2.3988,-2.3008,-2.1801,-2.1039,-2.0539,-2.0177,-2.0037,-2.0839,-2.189,-2.2962,-2.298,-2.3048,-2.3526,-2.3277,-2.2698,0.0,0.0,0.0,-1.8331,-1.7274,-1.6348,-1.5496,-1.4767,-1.3789,-1.2558,-1.0202,-0.6794,-0.2364,0.0265,0.3582,0.7524,0.9539,1.1057,1.2158,1.3779,1.5365,1.6889,1.8257,2.017,2.2411,2.3415,2.4505,2.5662,2.6757,2.7441,2.7851,2.8117,2.8204,2.8324,2.899,2.9161,2.9101,2.9303,2.9476,2.9713,3.0487,3.0923,3.127,3.183,3.2328,3.2693,3.2668,3.3538,3.4435,3.4435,3.5485,3.6581,3.6936,3.7921,3.918,4.0662,4.1462,4.2457,4.4194,4.4784,4.5195,4.5742,4.6094,4.6308,4.6308,4.6308,4.6308,4.6308,4.6175,4.608,4.6033,4.6433,4.6812,4.7086,4.7629,4.8444,4.9608,4.9666,5.0061,5.0953,5.0972,5.0972,5.0972,5.1767,5.2,5.1729,5.2253,5.2633,-1.8426,-1.845,-1.8657,-2.0688,-2.1308,-2.1611,-2.2367,-2.3178,-2.3949,-2.4616,-2.3412,-2.2012,0.0,0.0,-1.9391,-1.8677,-1.9195,-2.0145,-2.144,-2.1352,-2.1598,0.0,0.0,0.0,0.0,0.0,0.0,-1.7437,0.0,-1.5174,-1.3993,-1.3862,-1.3236,-1.1963,-1.165,-0.9991,-0.6812,-0.3337,0.0645,0.5169,0.7361,0.8748,0.9394,1.0623,1.195,1.3369,1.5627,1.7339,1.8685,2.0858,2.2309,2.3299,2.4447,2.5627,2.6694,2.6694,2.7154,2.7802,2.8111,2.8085,2.7992,2.8579,2.875,2.8887,2.9476,2.9794,2.9965,2.9999,3.0833,3.169,3.1638,3.2894,3.4168,3.4168,3.4865,3.5776,3.6654,3.6929,3.7734,4.0213,4.0866,4.153,4.3185,4.4329,4.5,4.498,4.5722,4.6289,4.6289,4.6289,4.6289,4.6289,4.615,4.6033,4.5899,4.5825,4.61,4.6796,4.6836,4.7567,4.9202,4.926,4.9702,5.0606,5.0625,5.0644,5.0702,5.1471,5.1452,5.0741,5.2337,5.2626,-1.8485,-1.8846,-1.907,-1.966,-2.0106,-2.0618,-2.1501,-2.1833,-2.2363,-2.3769,-2.2106,-2.0434,0.0,0.0,0.0,-1.8078,-1.8831,0.0,-2.0479,-2.0505,0.0,0.0,0.0,-2.1702,-2.1546,-2.0973,0.0,0.0,-1.741,-1.6532,-1.5772,-1.4949,-1.4097,-1.3331,-1.2255,-1.1242,-1.0207,-0.5822,-0.1891,0.1401,0.3425,0.4846,0.5739,0.6829,0.8727,1.127,1.3352,1.5399,1.7366,1.9051,2.0546,2.1919,2.3063,2.4118,2.5045,2.5342,2.5617,2.5834,2.59,2.6795,2.7926,2.8084,2.8234,2.8439,2.8891,2.9169,2.9419,2.9867,3.0218,3.0503,3.0674,3.153,3.2355,3.2355,3.3492,3.4634,3.4855,3.5979,3.7114,3.7802,3.9585,4.114,4.1589,4.3528,4.4979,4.4862,4.5581,4.6147,4.6147,4.6147,4.6113,4.6001,4.592,4.5867,4.5832,4.5718,4.5731,4.5913,4.5932,4.6413,4.749,4.7548,4.824,4.9702,4.9721,5.0048,5.0702,5.0914,5.0894,5.0702,5.1125,5.1221,-1.8484,-1.8858,-1.9175,-1.9444,-1.968,-2.0117,-2.1237,-2.1346,-2.1694,-2.3364,-2.1741,0.0,0.0,0.0,0.0,0.0,0.0,0.0,-1.8824,-1.9197,-1.9767,0.0,-2.1336,0.0,-2.1816,-2.1409,-2.0799,0.0,-1.8208,-1.6876,-1.6053,-1.5174,-1.456,-1.419,-1.3205,-1.2181,-1.1157,-0.8313,-0.5356,-0.2366,-0.092,0.0544,0.2067,0.377,0.5711,0.784,0.0,1.2192,1.4566,1.5954,1.7639,1.9413,2.0352,2.1692,2.3062,2.3298,2.3754,2.4281,2.4281,2.4978,2.5939,2.6469,2.6799,2.7028,2.7306,2.7907,2.855,2.8895,2.9406,2.9893,3.0052,3.0729,3.1393,3.1393,3.2479,3.359,3.3949,3.4912,3.5944,3.6744,3.8447,3.9896,4.0315,4.1952,4.3287,4.3577,4.4682,4.5469,4.5406,4.5767,4.5981,4.5907,4.5836,4.5796,4.5796,4.568,4.5586,4.5586,4.5586,4.599,4.6874,4.6913,4.7702,4.9375,4.9029,4.9452,5.0702,5.0317,5.0317,5.0702,5.0702,5.0702,-1.8574,-1.8806,-1.9212,-1.9638,-1.9772,-2.0075,-2.111,-2.1278,-2.1578,-2.3065,0.0,-2.0367,-2.0135,0.0,-1.677,-1.5681,0.0,-1.5736,-1.6814,-1.7477,-1.836,-1.9703,-2.0686,-2.1348,-2.1716,-2.1546,-2.1381,-2.1254,-1.8885,-1.6937,-1.5799,-1.5151,-1.4789,-1.4698,-1.4147,-1.2887,-1.0988,-1.0606,-0.8908,-0.5976,-0.5099,-0.3644,-0.1578,0.0984,0.2785,0.406,0.6106,0.0,1.0865,1.2385,1.4305,1.6301,1.7077,1.8727,2.0702,2.089,2.1745,2.2817,2.2868,2.2948,2.3151,2.4431,2.4951,2.5152,2.5372,2.6278,2.7309,2.761,2.8536,2.9492,2.9658,3.0261,3.0826,3.0826,3.1642,3.2572,3.3274,3.3781,3.4589,3.6277,3.7359,3.8237,3.9049,4.014,4.1128,4.1805,4.3489,4.4589,4.4363,4.5237,4.5891,4.5852,4.582,4.5769,4.5769,4.5665,4.5586,4.5586,4.5586,4.5932,4.6701,4.674,4.7471,4.9048,4.8336,4.874,5.0337,4.9702,4.9779,5.0529,5.0644,5.0702,-1.907,-1.936,-1.9638,-1.9494,-2.0113,-2.0634,-2.0218,-2.0872,0.0,0.0,0.0,-2.0809,-2.1092,-1.9057,0.0,-1.6214,0.0,0.0,0.0,0.0,-1.6243,0.0,0.0,0.0,0.0,0.0,0.0,0.0,0.0,-1.8522,-1.6988,-1.599,-1.5231,-1.4709,-1.4606,-1.3867,-1.2454,-1.1786,-1.0615,-0.8954,-0.7512,-0.6095,-0.4584,-0.2726,-0.049,0.2111,0.3997,0.0,0.7093,0.998,1.1958,1.3275,1.4585,1.609,1.7697,1.872,1.9767,2.0782,2.1229,2.1492,2.1835,2.3104,2.3551,2.3718,2.4414,2.4758,2.5345,2.7187,2.7864,2.8307,2.9418,2.9827,2.994,2.994,3.0634,3.1312,3.1463,3.2559,3.3846,3.4888,3.6013,3.6852,3.7006,3.919,4.091,4.0934,4.2997,4.4254,4.3435,4.4794,4.5764,4.5661,4.5632,4.5635,4.5635,4.562,4.5586,4.5586,4.5586,4.5663,4.5817,4.5817,4.6297,4.7317,4.7201,4.7586,4.8548,4.9125,4.9471,4.9644,5.0356,5.0702,-1.844,-1.8683,-1.9018,-1.941,-1.9397,-1.9379,-1.9712,0.0,0.0,0.0,0.0,-2.1266,-2.0761,0.0,0.0,0.0,0.0,0.0,0.0,0.0,0.0,0.0,0.0,0.0,0.0,0.0,0.0,0.0,0.0,-1.8565,-1.8129,-1.7328,-1.6634,-1.6046,-1.6046,-1.5452,-1.4275,-1.3932,-1.2905,-1.1297,-1.0195,-0.8772,-0.7098,-0.5837,-0.3707,-0.0924,0.0108,0.0,0.452,0.654,0.8324,0.9976,1.1613,1.338,1.5143,1.6124,1.7383,1.8668,1.8943,1.9265,1.9796,2.0667,2.1543,2.2274,2.2556,2.317,2.4059,2.5112,2.6301,2.7387,2.8031,2.8611,2.9012,2.9012,2.9915,3.0941,3.1506,3.2543,3.3677,3.4524,3.5154,3.5694,3.6114,3.7473,3.8788,3.9653,4.1273,4.242,4.2428,4.3586,4.4527,4.4891,4.5316,4.5586,4.5586,4.5586,4.5586,4.5586,4.5586,4.5586,4.5586,4.5586,4.6009,4.6894,4.6451,4.6836,4.8105,4.8105,4.8317,4.874,4.9625,5.001,-1.7597,-1.7793,-1.8116,-1.9066,-1.8705,-1.8364,-1.9282,-2.0117,0.0,0.0,0.0,-2.1849,0.0,0.0,0.0,0.0,0.0,0.0,0.0,0.0,0.0,0.0,0.0,0.0,0.0,0.0,0.0,0.0,0.0,0.0,-1.8366,-1.7987,-1.7544,-1.7146,-1.7105,-1.6629,-1.5632,-1.5588,-1.479,-1.3205,-1.2358,-1.1113,-0.9533,-0.8332,-0.6564,-0.4429,-0.3641,0.0,0.0,0.2884,0.4584,0.6639,0.8428,1.0516,1.2525,1.3521,1.4942,1.6452,1.6687,1.7085,1.7612,1.8299,1.956,2.0783,2.0856,2.1694,2.2735,2.3064,2.4689,2.6335,2.6594,2.7487,2.8316,2.8376,2.9295,3.0429,3.1519,3.2275,3.3026,3.4057,3.4306,3.4593,3.5405,3.5912,3.669,3.8042,3.9348,4.0403,4.1078,4.2129,4.3066,4.3701,4.4701,4.5393,4.5566,4.5586,4.5586,4.5586,4.5586,4.5586,4.5586,4.5586,4.5913,4.6605,4.5951,4.624,4.7567,4.7124,4.7221,4.7855,4.8721,4.9125,-1.7162,-1.7266,-1.7375,-1.8149,-1.888,-1.9258,-1.8665,0.0,0.0,0.0,-2.2127,-2.2635,-2.234,0.0,0.0,0.0,0.0,0.0,0.0,0.0,0.0,0.0,0.0,0.0,0.0,0.0,0.0,0.0,0.0,0.0,-1.6752,-1.668,-1.6637,-1.6595,-1.6552,-1.6269,-1.5588,-1.5588,-1.5231,-1.4514,-1.329,-1.2609,-1.2347,-1.001,-0.8717,-0.814,-0.5667,0.0,0.0,-0.038,0.1574,0.3501,0.5186,0.7212,0.9444,1.116,1.2669,1.4013,1.5104,1.5519,1.5746,1.6948,1.8171,1.9288,2.0108,2.0481,2.0889,2.2322,2.3658,2.4876,2.5918,2.7056,2.802,2.8342,2.8507,2.8923,3.0142,3.0452,3.0949,3.247,3.2974,3.3407,3.4228,3.5246,3.5983,3.6134,3.7814,3.9069,3.9164,4.0795,4.195,4.2027,4.347,4.4739,4.5528,4.5586,4.5586,4.5586,4.5586,4.5586,4.5586,4.5586,4.5624,4.572,4.5624,4.5682,4.5817,4.6547,4.6951,4.7028,4.7836,4.8221,-1.5154,-1.5695,-1.6261,-1.7045,-1.7402,-1.7651,-1.8074,0.0,0.0,-2.129,-2.2202,-2.2728,-2.1806,0.0,0.0,0.0,0.0,0.0,0.0,0.0,0.0,0.0,0.0,0.0,0.0,0.0,0.0,0.0,0.0,0.0,-1.6522,-1.7118,-1.7312,-1.6993,-1.6993,-1.6697,-1.6139,-1.6139,-1.582,-1.5231,-1.4418,-1.3774,-1.326,-1.1573,-1.0498,-0.9862,-0.7953,0.0,0.0,-0.3498,-0.186,-0.0328,0.2398,0.4552,0.635,0.832,0.971,1.0785,1.2063,1.2745,1.334,1.5043,1.5862,1.6581,1.8422,1.939,2.0019,2.0634,2.189,2.3193,2.4083,2.5658,2.7213,2.7929,2.8102,2.8371,2.9341,2.953,3.0098,3.1947,3.2401,3.2797,3.3788,3.4455,3.5061,3.5589,3.6491,3.7469,3.8474,3.9433,4.0421,4.1398,4.319,4.4432,4.4778,4.5297,4.5586,4.5586,4.5586,4.5586,4.5586,4.5586,4.5586,4.5586,4.5586,4.5586,4.5586,4.5951,4.6124,4.6144,4.699,4.7394,-1.3391,-1.3887,-1.4486,-1.5554,-1.592,-1.6288,0.0,0.0,0.0,-2.1097,-2.2175,-2.2718,-2.1651,-2.1094,-2.0413,0.0,0.0,0.0,0.0,0.0,0.0,0.0,0.0,0.0,0.0,0.0,0.0,0.0,0.0,0.0,-1.6479,-1.7229,-1.7463,-1.7076,-1.6907,-1.6699,-1.6509,-1.6195,-1.5885,-1.5622,-1.4905,-1.4313,-1.3748,-1.2559,-1.1698,-1.1041,-0.9817,0.0,0.0,-0.5886,-0.441,-0.2983,-0.0163,0.2108,0.399,0.5507,0.6897,0.8171,0.9001,0.9923,1.1086,1.2815,1.3512,1.4087,1.6168,1.7638,1.8659,1.8852,2.0258,2.1932,2.3131,2.4617,2.6101,2.7209,2.7477,2.7724,2.857,2.8752,2.9229,3.0894,3.1222,3.156,3.2583,3.3227,3.3808,3.4407,3.5007,3.5907,3.7359,3.7826,3.8671,4.0406,4.2066,4.3382,4.4239,4.4855,4.5316,4.5566,4.5586,4.5586,4.5586,4.5586,4.5586,4.5586,4.5586,4.5586,4.5586,4.5586,4.5586,4.5605,4.622,4.6644,-1.2323,-1.2037,-1.1836,-1.3505,-1.477,-1.5784,0.0,0.0,0.0,-2.1043,-2.2031,-2.2782,-2.2368,-2.1832,-2.1446,-2.1293,0.0,0.0,0.0,0.0,0.0,0.0,0.0,0.0,0.0,0.0,0.0,0.0,0.0,0.0,-1.6466,-1.6522,-1.6522,-1.6522,-1.5982,-1.5969,-1.6509,-1.5429,-1.5166,-1.5693,-1.453,-1.4009,-1.3945,-1.2896,-1.2257,0.0,0.0,0.0,0.0,-0.7333,-0.5769,-0.4059,-0.253,-0.0105,0.2639,0.2882,0.4522,0.6539,0.6109,0.7236,0.902,1.0303,1.1213,1.1987,1.3355,1.4957,1.6464,1.707,1.8914,2.1249,2.3597,2.42,2.4616,2.6135,2.6505,2.6785,2.7689,2.7897,2.8156,2.8965,2.9124,2.9402,3.0201,3.1314,3.2133,3.2133,3.3305,3.454,3.5403,3.5772,3.6688,3.8708,3.9662,4.1265,4.4049,4.4316,4.4682,4.5547,4.5586,4.5586,4.5586,4.5586,4.5586,4.5586,4.5586,4.5586,4.5586,4.5586,4.5586,4.5586,4.5605,4.6086,-1.2291,-1.2822,-1.3359,-1.4439,-1.509,-1.5737,-1.6853,0.0,0.0,0.0,0.0,-2.2993,-2.2358,-2.1982,-2.1256,-1.9714,0.0,0.0,0.0,0.0,0.0,0.0,0.0,0.0,0.0,0.0,0.0,0.0,0.0,0.0,-1.5338,-1.5683,-1.6051,-1.6479,-1.6346,-1.6158,-1.5957,-1.5618,-1.5329,-1.5128,-1.4424,-1.4273,-1.4568,-1.343,-1.3064,0.0,0.0,0.0,0.0,-0.8198,-0.6798,-0.5785,-0.3999,-0.2892,-0.1956,0.032,0.1576,0.2211,0.3073,0.4443,0.6157,0.7893,0.9003,0.9834,1.0722,1.2892,1.5354,1.6809,1.8072,1.9525,2.1864,2.2809,2.3522,2.5206,2.5895,2.623,2.6556,2.6839,2.7402,2.8464,2.8683,2.9022,3.0105,3.0612,3.1041,3.1546,3.226,3.3241,3.4593,3.5261,3.6077,3.7276,3.8326,3.9927,4.2379,4.3143,4.3835,4.4662,4.4701,4.497,4.5566,4.5586,4.5586,4.5586,4.5586,4.5586,4.5586,4.5586,4.5586,4.5586,4.5586,4.574,0.0,-1.2707,-1.2961,-1.3759,-1.4587,0.0,0.0,0.0,0.0,0.0,0.0,0.0,-2.1979,-2.158,-2.0895,-1.9593,0.0,0.0,0.0,0.0,0.0,0.0,0.0,0.0,0.0,0.0,0.0,0.0,0.0,0.0,-1.4243,-1.4754,-1.5217,-1.5578,-1.5799,-1.5731,-1.5392,-1.4977,-1.4701,-1.4588,-1.4047,-1.3923,-1.4237,-1.3472,-1.3348,0.0,0.0,0.0,0.0,-0.8857,-0.7562,-0.6848,-0.5157,-0.4416,-0.4068,-0.2155,-0.081,0.0111,0.1052,0.2764,0.471,0.5892,0.7228,0.8403,0.912,1.1425,1.412,1.5485,1.6645,1.8017,2.0145,2.1328,2.2409,2.4151,2.4996,2.5449,2.5652,2.5944,2.6432,2.7369,2.7572,2.7842,2.8781,2.9334,2.9779,3.0254,3.1181,3.2176,3.3145,3.392,3.477,3.5866,3.6615,3.7988,4.0329,4.159,4.2604,4.3426,4.3599,4.3885,4.446,4.4878,4.5105,4.5105,4.5432,4.5586,4.5586,4.5586,4.5586,4.5586,4.5586,4.5586,0.0,0.0,0.0,0.0,0.0,0.0,0.0,0.0,0.0,0.0,0.0,0.0,0.0,0.0,0.0,-2.048,0.0,0.0,0.0,0.0,0.0,0.0,0.0,0.0,0.0,0.0,0.0,0.0,0.0,0.0,-1.3249,-1.3726,-1.3982,-1.399,-1.4494,-1.4814,-1.4853,-1.3797,-1.3521,-1.4022,-1.3483,-1.3198,-1.3198,-1.3198,-1.3198,0.0,0.0,0.0,0.0,-0.9408,-0.8139,-0.73,-0.6061,-0.4944,-0.4052,-0.4357,-0.2739,-0.0278,-0.0056,0.1833,0.4233,0.4436,0.5833,0.7494,0.8252,1.0386,1.2686,1.3377,1.4812,1.656,1.8409,1.9773,2.1152,2.2876,2.3846,2.4455,2.4973,2.5128,2.5335,2.5852,2.5961,2.6156,2.659,2.7602,2.8377,2.8429,3.0053,3.1278,3.1331,3.2022,3.3037,3.4476,3.4715,3.5692,3.792,3.9712,4.1099,4.1968,4.2297,4.2503,4.256,4.3579,4.4147,4.4184,4.5009,4.5451,4.5509,4.5509,4.5528,4.5586,4.5586,4.5586,-1.4886,0.0,-1.5162,-1.578,-1.6055,0.0,0.0,0.0,0.0,0.0,0.0,0.0,0.0,0.0,0.0,0.0,0.0,0.0,0.0,0.0,0.0,0.0,0.0,0.0,0.0,0.0,0.0,0.0,0.0,-1.1397,-1.2063,-1.2568,-1.2883,-1.2889,-1.3407,-1.3851,-1.4274,-1.4022,-1.3709,-1.3421,-1.3261,-1.3198,-1.3198,-1.3198,-1.3198,0.0,0.0,0.0,-1.161,-1.035,-0.8964,-0.7615,-0.6911,-0.6041,-0.5038,-0.4496,-0.3939,-0.3106,-0.0828,0.0446,0.1444,0.377,0.4816,0.54,0.6264,0.8358,1.0781,1.2522,1.3307,1.4262,1.6883,1.819,1.9252,2.086,2.2521,2.3761,2.3872,2.4585,2.5259,2.5373,2.5726,2.6049,2.6156,2.6708,2.73,2.7896,2.9126,3.0225,3.0801,3.1823,3.2636,3.2987,3.3924,3.4709,3.5297,3.758,3.9603,4.1099,4.1264,4.1571,4.2177,4.2454,4.2743,4.2986,4.3441,4.3989,4.4605,4.4605,4.4951,4.5586,4.5586,4.5586,-1.572,-1.5435,-1.5297,-1.5474,-1.5945,-1.6484,0.0,0.0,0.0,0.0,0.0,0.0,0.0,0.0,0.0,0.0,0.0,0.0,0.0,0.0,0.0,0.0,0.0,0.0,0.0,0.0,0.0,0.0,0.0,-1.0667,-1.1339,-1.1905,-1.2284,-1.2484,-1.2999,-1.3373,-1.3672,-1.3672,-1.3521,-1.3198,-1.3198,-1.3198,-1.3198,-1.2978,-1.2873,0.0,0.0,0.0,-1.1356,-1.0522,-0.9424,-0.8162,-0.7744,-0.6982,-0.6002,-0.5341,-0.4864,-0.4274,-0.2654,-0.1169,0.0278,0.1889,0.2888,0.366,0.4863,0.6196,0.7816,1.0218,1.1603,1.2783,1.492,1.6217,1.7323,1.874,2.0522,2.1882,2.1882,2.3022,2.4153,2.4384,2.4879,2.5335,2.5577,2.5819,2.622,2.6883,2.7822,2.8798,2.9796,3.0802,3.1603,3.2126,3.2788,3.3446,3.4017,3.5604,3.7363,3.9216,3.9802,4.0272,4.0703,4.1248,4.1813,4.2351,4.254,4.2869,4.3289,4.3848,4.4365,4.4825,4.5358,4.5586,-1.5962,-1.5054,-1.4167,-1.4149,-1.5254,-1.6335,0.0,0.0,0.0,0.0,0.0,0.0,0.0,0.0,0.0,0.0,0.0,0.0,0.0,0.0,0.0,0.0,0.0,0.0,0.0,0.0,0.0,0.0,0.0,-1.018,-1.0964,-1.1431,-1.192,-1.2461,-1.2908,-1.3129,-1.3198,-1.3198,-1.3198,-1.3198,-1.3198,-1.3198,-1.3198,-1.2791,-1.2579,-1.2473,0.0,0.0,-1.0971,-1.0494,-0.9718,-0.8798,-0.8524,-0.7875,-0.6949,-0.6394,-0.5615,-0.4729,-0.457,-0.2506,0.0,0.0,0.0837,0.2173,0.3944,0.4491,0.4969,0.7388,0.9614,1.1543,1.2928,1.4167,1.537,1.6639,1.8238,1.9638,1.9898,2.1203,2.2606,2.3245,2.3861,2.4455,2.4973,2.5144,2.5335,2.5815,2.6512,2.7441,2.871,2.9505,3.0421,3.1573,3.1752,3.2248,3.3317,3.3949,3.5046,3.6803,3.8126,3.8906,3.9017,4.0059,4.0952,4.1631,4.1699,4.1779,4.193,4.2946,4.3512,4.3666,4.4748,4.5265,-1.5426,-1.5178,-1.5128,-1.5956,-1.7027,-1.7851,0.0,0.0,0.0,0.0,0.0,0.0,0.0,0.0,0.0,0.0,0.0,0.0,0.0,0.0,0.0,0.0,0.0,0.0,0.0,0.0,0.0,0.0,0.0,-0.9969,-1.0943,-1.1094,-1.1542,-1.2473,-1.2579,-1.2803,-1.3198,-1.3198,-1.3198,-1.3198,-1.3198,-1.3198,-1.3198,-1.3129,-1.2873,-1.2508,0.0,-1.1872,-1.0971,-1.0895,-1.0283,-0.9355,-0.9071,-0.8591,-0.7906,-0.6685,-0.6103,-0.5793,-0.4809,-0.251,0.0,0.0,0.0167,0.0837,0.3646,0.4473,0.4604,0.5027,0.7105,0.9569,1.1347,1.2407,1.3442,1.4905,1.6345,1.7835,1.9384,2.0351,2.1281,2.256,2.326,2.3846,2.4415,2.4894,2.5221,2.5297,2.5947,2.687,2.8152,2.8976,2.9882,3.1167,3.1603,3.186,3.2089,3.3142,3.3926,3.4242,3.6455,3.8044,3.8725,3.9157,3.9429,3.956,3.9838,4.0358,4.108,4.1279,4.1718,4.2399,4.3261,4.3639,-1.5362,-1.531,-1.5355,-1.5749,-1.6393,-1.6982,0.0,0.0,0.0,0.0,0.0,0.0,0.0,0.0,0.0,0.0,0.0,0.0,0.0,0.0,0.0,0.0,0.0,0.0,0.0,0.0,0.0,0.0,0.0,0.0,-1.1394,-1.1689,-1.2126,-1.2873,-1.2873,-1.2978,-1.3198,-1.3198,-1.3198,-1.3198,-1.2943,-1.2838,-1.2791,-1.227,-1.1898,-1.1689,0.0,-1.1067,-1.0631,-1.0863,-1.0516,-0.9857,-1.0145,-0.9698,-0.8743,-0.7491,-0.6528,-0.569,-0.4805,-0.3619,-0.2174,-0.0502,0.0,0.0279,0.1621,0.3188,0.4304,0.3487,0.5558,0.8281,0.9647,1.024,1.0926,1.2556,1.4208,1.5742,1.6793,1.863,2.033,2.0948,2.1843,2.2743,2.3362,2.3706,2.407,2.4657,2.506,2.5846,2.7518,2.7997,2.8755,3.0093,3.0673,3.0977,3.0977,3.2029,3.3458,3.5267,3.6472,3.7593,3.867,3.8833,3.8865,3.8865,3.9036,3.9314,3.9704,4.033,4.0828,4.1203,4.2191,4.2869,-1.5094,-1.5229,-1.533,-1.526,0.0,0.0,-1.6208,0.0,0.0,0.0,0.0,0.0,0.0,0.0,0.0,0.0,0.0,0.0,0.0,0.0,0.0,0.0,0.0,0.0,0.0,0.0,0.0,0.0,0.0,0.0,-1.1957,-1.2282,-1.2733,-1.3198,-1.3198,-1.3198,-1.3198,-1.3198,-1.3198,-1.3198,-1.2838,-1.265,-1.265,-1.1763,-1.1282,-1.1169,-1.0687,-1.0449,-1.0449,-1.0781,-1.065,-1.0349,-1.0967,-1.0423,-0.9112,-0.826,-0.7004,-0.5706,-0.5148,-0.4776,-0.4128,-0.1779,-0.0836,-0.0447,-0.0112,0.1621,0.3251,0.2441,0.4378,0.6949,0.7788,0.8258,0.8884,1.0562,1.2197,1.3685,1.4651,1.6863,1.8831,1.9312,2.0393,2.1445,2.2086,2.2331,2.2741,2.3634,2.3903,2.4641,2.643,2.6915,2.7631,2.9022,2.9708,3.0166,3.0293,3.115,3.2859,3.5735,3.6355,3.7043,3.8041,3.8355,3.8496,3.8496,3.8627,3.8707,3.8707,3.9571,3.9993,4.0039,4.1079,4.1905,-1.4193,-1.4683,-1.5238,-1.5284,0.0,0.0,-1.6424,0.0,0.0,0.0,0.0,0.0,0.0,0.0,0.0,0.0,0.0,0.0,0.0,0.0,0.0,0.0,0.0,0.0,0.0,0.0,0.0,0.0,0.0,0.0,-1.2437,-1.2461,-1.2733,-1.3198,-1.3198,-1.3198,-1.3198,-1.3198,-1.3198,-1.3198,-1.3163,-1.3163,-1.3129,-1.2615,-1.2138,-1.17,-1.1169,-1.0911,-1.0869,-1.0898,-1.0867,-1.0871,-1.1113,-1.0213,-0.8756,-0.8672,-0.7741,-0.6534,-0.6475,-0.5588,-0.4484,-0.4262,-0.3219,-0.1785,-0.0391,0.0168,0.0559,0.1845,0.3421,0.4942,0.586,0.694,0.8159,0.9552,1.0514,1.1898,1.4668,1.5446,1.6233,1.8254,1.93,2.0041,2.0624,2.1308,2.1791,2.1885,2.2423,2.3303,2.464,2.5826,2.7052,2.8345,2.9095,2.9673,3.0251,3.0861,3.1863,3.3293,3.5046,3.6114,3.6203,3.7325,3.7946,3.7946,3.8465,3.8707,3.8707,3.8775,3.8811,3.883,3.9682,4.0086,-1.4101,-1.4292,-1.45,-1.4444,0.0,0.0,0.0,0.0,0.0,0.0,0.0,0.0,0.0,0.0,0.0,0.0,0.0,0.0,0.0,0.0,0.0,0.0,0.0,0.0,0.0,0.0,0.0,0.0,0.0,0.0,0.0,-1.2791,-1.3012,-1.3198,-1.3198,-1.3198,-1.3198,-1.3198,-1.3198,-1.3198,-1.2908,-1.2756,-1.272,-1.1945,-1.1468,-1.1282,-1.0764,-1.0556,-1.0537,-1.0801,-1.0908,-1.0913,-1.1113,-1.0833,-1.0188,-0.9607,-0.8744,-0.7847,-0.7444,-0.6632,-0.5642,-0.4758,-0.41,-0.3498,-0.2959,-0.1507,0.0112,0.067,0.1229,0.2232,0.4426,0.5358,0.6137,0.7739,0.9194,1.0581,1.1878,1.3808,1.5581,1.6392,1.7543,1.859,1.9251,1.9952,2.0591,2.0944,2.1622,2.2686,2.4414,2.5065,2.6023,2.7748,2.8482,2.9088,2.9673,3.0293,3.084,3.1335,3.3152,3.455,3.5279,3.6221,3.6702,3.6702,3.7693,3.8216,3.8216,3.8546,3.8707,3.8707,3.9019,3.9423,-1.3242,-1.3476,0.0,0.0,0.0,0.0,0.0,0.0,0.0,0.0,0.0,0.0,0.0,0.0,0.0,0.0,0.0,0.0,0.0,0.0,0.0,0.0,0.0,0.0,0.0,0.0,0.0,0.0,0.0,0.0,0.0,-1.3012,-1.3198,-1.3198,-1.3198,-1.3198,-1.3198,-1.3198,-1.3198,-1.3198,-1.2873,-1.272,-1.2685,-1.1689,-1.1244,-1.1207,-1.0582,-1.0352,-1.0508,-1.0791,-1.1074,-1.1344,-1.1453,-1.146,-1.13,-1.068,-0.9843,-0.9006,-0.8501,-0.7765,-0.6799,-0.5801,-0.5194,-0.4769,-0.4577,-0.3067,-0.1228,-0.0279,0.0,0.0502,0.255,0.3765,0.4798,0.5988,0.7679,0.9272,1.01,1.2119,1.3927,1.4495,1.5591,1.6714,1.7444,1.8158,1.8871,1.9571,2.0466,2.1586,2.2928,2.3865,2.5085,2.7056,2.7978,2.8654,2.9088,2.9673,3.0038,3.0038,3.1385,3.2783,3.4016,3.4953,3.5555,3.5784,3.6792,3.7433,3.7685,3.805,3.8318,3.8465,3.8465,3.8839,-1.1367,-1.2131,0.0,0.0,0.0,0.0,0.0,0.0,0.0,0.0,0.0,0.0,0.0,0.0,0.0,0.0,0.0,0.0,0.0,0.0,0.0,0.0,0.0,0.0,0.0,0.0,0.0,0.0,0.0,0.0,0.0,-1.3198,-1.3198,-1.3198,-1.3198,-1.3198,-1.3198,-1.3198,-1.3198,-1.3198,-1.3198,-1.3198,-1.3163,-1.2246,-1.1811,-1.1737,-1.0736,-1.0518,-1.0898,-1.0908,-1.1426,-1.2171,-1.218,-1.2035,-1.1805,-1.1814,-1.0965,-0.9814,-0.9814,-0.8876,-0.7723,-0.7723,-0.6735,-0.5374,-0.4707,-0.4508,-0.3858,-0.0892,-0.0,0.0,0.0,0.2218,0.4463,0.4488,0.5931,0.7817,0.986,1.0397,1.0989,1.2626,1.3554,1.4341,1.5119,1.5924,1.6669,1.7457,1.8773,1.971,1.9723,2.1978,2.4319,2.6246,2.77,2.8448,2.8448,2.9042,2.9406,2.9406,2.9935,3.0875,3.2239,3.3515,3.4532,3.5278,3.5746,3.6395,3.7173,3.7173,3.7433,3.7893,3.7893,3.8183,-1.2164,0.0,0.0,0.0,0.0,0.0,0.0,0.0,0.0,0.0,0.0,0.0,0.0,0.0,0.0,0.0,0.0,0.0,0.0,0.0,0.0,0.0,0.0,0.0,0.0,0.0,0.0,0.0,0.0,0.0,0.0,-1.3198,-1.3198,-1.3198,-1.3198,-1.3198,-1.3198,-1.3198,-1.3198,-1.3198,-1.3198,-1.3198,-1.3163,-1.2246,-1.1811,-1.1737,-1.0736,-1.0352,-1.0488,-1.0791,-1.1064,-1.1367,-1.1947,-1.2155,-1.2044,-1.1871,-1.1566,-1.1065,-1.0115,-0.9555,-0.9033,-0.8037,-0.7396,-0.6794,-0.5588,-0.4878,-0.4336,-0.3411,-0.1619,0.0,0.0,0.0669,0.1905,0.418,0.5133,0.594,0.7249,0.9095,1.0676,1.1114,1.235,1.3399,1.364,1.4779,1.5696,1.5934,1.7718,1.951,2.1004,2.2658,2.3905,2.4474,2.5749,2.6544,2.6544,2.7915,2.8779,2.8779,2.9316,3.0033,3.0875,3.2171,3.298,3.3202,3.4198,3.5112,3.5863,3.6191,3.6735,3.7396,3.7396,3.7667,-1.1503,0.0,0.0,0.0,0.0,0.0,0.0,0.0,0.0,0.0,0.0,0.0,0.0,0.0,0.0,0.0,0.0,0.0,0.0,0.0,0.0,0.0,0.0,0.0,0.0,0.0,0.0,0.0,0.0,0.0,0.0,-1.3198,-1.3198,-1.3198,-1.3198,-1.3198,-1.3198,-1.3198,-1.3198,-1.3198,-1.3198,-1.3198,-1.3163,-1.2437,-1.2066,-1.2041,-1.1218,-1.0626,-1.0342,-1.1113,-1.1328,-1.125,-1.2139,-1.249,-1.2472,-1.2308,-1.203,-1.1665,-1.0864,-1.0269,-0.9658,-0.8823,-0.8143,-0.7557,-0.6632,-0.5697,-0.4824,-0.4574,-0.2732,-0.0726,-0.0168,0.0,0.0507,0.2445,0.3898,0.506,0.5708,0.7258,0.8687,0.9342,1.062,1.164,1.1935,1.3064,1.4141,1.474,1.6522,1.8569,2.0673,2.1852,2.2679,2.321,2.4427,2.5223,2.5223,2.6775,2.7715,2.7715,2.8528,2.9225,2.9585,3.0806,3.1649,3.1951,3.2923,3.3957,3.4988,3.5278,3.5898,3.6882,3.6882,3.7135,0.0,0.0,0.0,0.0,0.0,0.0,0.0,0.0,0.0,0.0,0.0,0.0,0.0,0.0,0.0,0.0,0.0,0.0,0.0,0.0,0.0,0.0,0.0,0.0,0.0,0.0,0.0,0.0,0.0,0.0,0.0,-1.3198,-1.3198,-1.3198,-1.3198,-1.3198,-1.3198,-1.3198,-1.3198,-1.3198,-1.3198,-1.3198,-1.3198,-1.272,-1.2496,-1.2495,-1.1925,-1.1235,-1.0607,-1.1719,-1.1992,-1.1753,-1.2549,-1.2881,-1.2881,-1.2881,-1.2501,-1.1873,-1.1814,-1.1015,-0.9969,-0.9865,-0.8928,-0.7883,-0.7723,-0.674,-0.5429,-0.4707,-0.3498,-0.2063,-0.0447,0.0,0.0,0.0,0.2282,0.4522,0.4819,0.5132,0.5817,0.7423,0.8533,0.9418,1.0236,1.1128,1.2251,1.4016,1.5487,1.7129,1.9171,1.9993,2.0866,2.202,2.3326,2.4159,2.4159,2.5452,2.6371,2.6409,2.762,2.8367,2.8415,2.9585,3.0547,3.1188,3.1767,3.2782,3.4242,3.4242,3.4891,3.6229,3.616,3.6481,0.0,0.0,0.0,0.0,0.0,0.0,0.0,0.0,0.0,0.0,0.0,0.0,0.0,0.0,0.0,0.0,0.0,0.0,0.0,0.0,0.0,0.0,0.0,0.0,0.0,0.0,0.0,0.0,0.0,0.0,-1.3198,-1.3198,-1.3198,-1.3198,-1.3198,-1.3198,-1.3198,-1.3198,-1.3198,0.0,-1.3198,-1.3198,-1.3198,-1.272,-1.2541,-1.2548,-1.1948,-1.1828,-1.2037,-1.2143,-1.2132,-1.2139,-1.2666,-1.2881,-1.2881,-1.2881,-1.2774,-1.2559,-1.1972,-1.1616,-1.1216,-1.0167,-0.9607,-0.9138,-0.8037,-0.7074,-0.6091,-0.4867,-0.4284,-0.3408,-0.067,0.0,0.0,0.0,0.0531,0.1443,0.2912,0.4219,0.5351,0.5868,0.7099,0.8378,0.9412,1.0255,1.1774,1.4604,1.537,1.6156,1.7823,1.8164,1.8351,1.8631,2.0378,2.1522,2.1522,2.362,2.5198,2.5784,2.652,2.7174,2.776,2.895,2.9649,2.9855,2.9944,3.0675,3.2044,3.2044,3.3031,3.4865,3.4304,3.4964,0.0,0.0,0.0,0.0,0.0,0.0,0.0,0.0,0.0,0.0,0.0,0.0,0.0,0.0,0.0,0.0,0.0,0.0,0.0,0.0,0.0,0.0,0.0,0.0,0.0,0.0,0.0,0.0,0.0,-1.3894,-1.3547,-1.3547,-1.3425,-1.3198,-1.3198,-1.3198,-1.3198,-1.3198,-1.3198,-1.3198,-1.3198,-1.3198,-1.3198,-1.2943,-1.2866,-1.2912,-1.2498,-1.2381,-1.2499,-1.2543,-1.2422,-1.2275,-1.2715,-1.2881,-1.2881,-1.2881,-1.2881,-1.2832,-1.2452,-1.208,-1.1665,-1.0965,-1.0312,-0.9658,-0.8928,-0.7978,-0.6907,-0.5806,-0.4995,-0.4119,-0.2563,-0.1059,0.0,0.0,0.0,0.0238,0.1182,0.3288,0.4962,0.5111,0.5939,0.6898,0.7785,0.9334,1.1217,1.3296,1.4269,1.5216,1.6352,1.6834,1.7191,1.7578,1.8826,1.9629,1.9629,2.1732,2.3219,2.3632,2.485,2.5692,2.611,2.734,2.8306,2.8966,2.9271,2.9923,3.0977,3.0977,3.1729,3.3131,3.3006,3.3547,0.0,0.0,0.0,0.0,0.0,0.0,0.0,0.0,0.0,0.0,0.0,0.0,0.0,0.0,0.0,0.0,0.0,0.0,0.0,0.0,0.0,0.0,0.0,0.0,0.0,0.0,0.0,0.0,0.0,-1.4713,-1.4052,-1.4,-1.3802,-1.3323,-1.3323,-1.3301,-1.3198,-1.3198,-1.3198,-1.3198,-1.3198,-1.3198,-1.3198,-1.3298,-1.3445,-1.3562,-1.3374,-1.322,-1.3033,-1.3077,-1.2847,-1.2503,-1.2782,-1.2881,-1.2881,-1.2881,-1.2881,-1.2881,-1.2881,-1.251,-1.1972,-1.1864,-1.1065,-1.0115,-0.9865,-0.8922,-0.7711,-0.702,-0.5751,-0.4656,-0.4519,-0.2676,-0.067,-0.0112,0.0,0.0,0.0,0.2071,0.4094,0.4623,0.5088,0.5549,0.6128,0.8354,1.0425,1.1447,1.2732,1.387,1.4789,1.5458,1.6177,1.6946,1.7597,1.8021,1.8146,1.9909,2.1039,2.1192,2.2936,2.4107,2.431,2.5494,2.6732,2.7947,2.8701,2.945,3.0161,3.0161,3.0575,3.1405,3.1805,3.2114,0.0,0.0,0.0,0.0,0.0,0.0,0.0,0.0,0.0,0.0,0.0,0.0,0.0,0.0,0.0,0.0,0.0,0.0,0.0,0.0,0.0,0.0,0.0,0.0,0.0,0.0,0.0,0.0,-1.5198,-1.4836,-1.4438,-1.4406,-1.4214,-1.3835,-1.3802,-1.3615,-1.3198,-1.3198,-1.3198,-1.3198,-1.3198,-1.3198,-1.3223,-1.3722,-1.4237,-1.4673,-1.46,-1.481,-1.5122,-1.4089,-1.3653,-1.3554,-1.3084,-1.2881,-1.2881,-1.2881,-1.2881,-1.2881,-1.2881,-1.2822,-1.2666,-1.2021,-1.1665,-1.1316,-1.0167,-0.9221,-0.8429,-0.7765,-0.6519,-0.5206,-0.4656,-0.4174,-0.3239,-0.0614,0.0,0.0,0.0,0.0347,0.1441,0.4041,0.5036,0.5423,0.5549,0.7095,0.8849,1.0425,1.0857,1.1542,1.3105,1.3416,1.3777,1.4551,1.5323,1.5989,1.669,1.808,1.9179,1.983,2.1129,2.2421,2.3498,2.4325,2.5101,2.5809,2.7159,2.8137,2.8778,2.8778,2.9391,3.0651,3.0057,3.0518,0.0,0.0,0.0,0.0,0.0,0.0,0.0,0.0,0.0,0.0,0.0,0.0,0.0,0.0,0.0,0.0,0.0,0.0,0.0,0.0,0.0,0.0,0.0,0.0,0.0,0.0,0.0,0.0,-1.6099,-1.5679,-1.4876,-1.4845,-1.4658,-1.4246,-1.4019,-1.3802,-1.3581,-1.3323,-1.3198,-1.3198,-1.3198,-1.3396,-1.3709,-1.4299,-1.4676,-1.4902,-1.4832,-1.5081,-1.5543,-1.4641,-1.4097,-1.3768,-1.3505,-1.32,-1.2881,-1.2881,-1.2881,-1.2881,-1.2881,-1.2881,-1.2832,-1.251,-1.2138,-1.1665,-1.1082,-1.0407,-0.9673,-0.8587,-0.7788,-0.6972,-0.5471,-0.4772,-0.4174,-0.2843,-0.1228,0.0,0.0,0.0,0.0397,0.1725,0.2841,0.3994,0.5199,0.6054,0.7095,0.882,0.992,1.0795,1.1494,1.2435,1.313,1.3494,1.3828,1.4346,1.5138,1.6158,1.7056,1.779,1.9109,2.0061,2.066,2.1895,2.2876,2.3642,2.5841,2.7122,2.7363,2.778,2.8278,2.8881,2.892,2.9234,0.0,0.0,0.0,0.0,0.0,0.0,0.0,0.0,0.0,0.0,0.0,0.0,0.0,0.0,0.0,0.0,0.0,0.0,0.0,0.0,0.0,0.0,0.0,0.0,0.0,0.0,0.0,0.0,-1.6977,-1.647,-1.5448,-1.5389,-1.518,-1.4658,-1.4374,-1.4149,-1.4052,-1.3615,-1.3425,-1.3514,-1.3474,-1.3717,-1.4279,-1.4841,-1.5117,-1.5116,-1.5203,-1.5471,-1.5776,-1.5197,-1.4641,-1.4226,-1.3909,-1.3505,-1.3104,-1.2978,-1.2881,-1.2881,-1.2881,-1.2881,-1.2881,-1.2881,-1.251,-1.203,-1.1841,-1.1425,-1.0805,-0.9563,-0.8992,-0.8311,-0.6714,-0.5525,-0.4714,-0.4515,-0.2785,-0.0949,-0.0168,0.0,0.0,0.0,0.0875,0.2144,0.3753,0.4766,0.5867,0.714,0.8575,0.9597,0.9857,1.1121,1.2135,1.2312,1.2565,1.3,1.3855,1.4405,1.4974,1.5545,1.6696,1.7517,1.789,1.9397,2.0677,2.1636,2.4265,2.5809,2.6229,2.6759,2.7137,2.7357,2.778,2.8076,0.0,0.0,0.0,0.0,0.0,0.0,0.0,0.0,0.0,0.0,0.0,0.0,0.0,0.0,0.0,0.0,0.0,0.0,0.0,0.0,0.0,0.0,0.0,0.0,0.0,0.0,0.0,0.0,-1.7429,-1.696,-1.6258,-1.6231,-1.5881,-1.509,-1.5043,-1.4845,-1.447,-1.4052,-1.4052,-1.4438,-1.4158,-1.4264,-1.4695,-1.5349,-1.5655,-1.568,-1.6191,-1.6441,-1.6423,-1.582,-1.5543,-1.5398,-1.4226,-1.3768,-1.3684,-1.3104,-1.2881,-1.2881,-1.2881,-1.2881,-1.2881,-1.2881,-1.2881,-1.2715,-1.203,-1.1765,-1.1616,-1.0906,-0.9717,-0.8678,-0.8574,-0.6977,-0.5261,-0.4652,-0.4398,-0.3466,-0.0616,0.0,0.0,0.0,0.0058,0.0178,0.0245,0.3149,0.5449,0.5505,0.6318,0.7172,0.8021,0.8935,0.9767,1.0551,1.1377,1.2205,1.3009,1.3122,1.3122,1.3183,1.3921,1.4909,1.6158,1.7407,1.8685,2.0014,2.2115,2.3942,2.5453,2.5508,2.5892,2.6563,2.6602,2.6982,0.0,0.0,0.0,0.0,0.0,0.0,0.0,0.0,0.0,0.0,0.0,0.0,0.0,0.0,0.0,0.0,0.0,0.0,0.0,0.0,0.0,0.0,0.0,0.0,0.0,0.0,0.0,0.0,0.0,-1.7101,-1.6659,-1.6436,-1.6176,-1.5881,-1.5359,-1.4907,-1.4501,-1.4374,-1.4374,-1.4501,-1.4843,-1.5052,-1.5233,-1.6275,-1.6533,-1.6233,-1.6789,-1.6837,-1.6466,-1.6281,-1.5964,-1.5543,-1.4698,-1.4143,-1.3732,-1.3104,-1.2881,-1.2881,-1.2881,-1.2881,-1.2881,-1.2881,-1.2881,-1.2832,-1.2608,-1.2501,-1.2344,-1.1625,-1.1099,-1.0375,-0.9037,-0.8146,-0.702,-0.4969,-0.4508,-0.3913,-0.1843,-0.0671,0.0,0.0,0.0,0.0,0.0,0.1101,0.271,0.5061,0.5672,0.6187,0.7042,0.7897,0.8807,0.9633,1.0021,1.0773,1.2143,1.2205,1.2451,1.2948,1.3226,1.3631,1.4065,1.4736,1.6004,1.7885,1.8858,2.0903,2.3839,2.4924,2.5563,2.5783,2.5783,2.5946,0.0,0.0,0.0,0.0,0.0,0.0,0.0,0.0,0.0,0.0,0.0,0.0,0.0,0.0,0.0,0.0,0.0,0.0,0.0,0.0,0.0,0.0,0.0,0.0,0.0,0.0,0.0,0.0,0.0,0.0,-1.6977,-1.6659,-1.6367,-1.6136,-1.5609,-1.5195,-1.4937,-1.4783,-1.4783,-1.4951,-1.5515,-1.5735,-1.5721,-1.6799,-1.7023,-1.6522,-1.6879,-1.6837,-1.6522,-1.6522,-1.6238,-1.582,-1.5242,-1.4641,-1.405,-1.342,-1.3055,-1.2881,-1.2881,-1.2881,-1.2881,-1.2881,-1.2881,-1.2881,-1.2881,-1.2881,-1.2774,-1.2295,-1.1972,-1.1499,-1.0112,-0.9245,-0.8035,-0.5462,-0.467,-0.4239,-0.3181,-0.1396,0.0,0.0,0.0,0.0,0.0,0.0,0.0807,0.3198,0.4599,0.5609,0.6207,0.7051,0.7762,0.8355,0.8683,0.9448,1.0836,1.0961,1.1337,1.2151,1.2212,1.2336,1.2573,1.2971,1.4009,1.5682,1.6724,1.8449,2.0934,2.3153,2.4526,2.5007,2.5007,2.5175,0.0,0.0,0.0,0.0,0.0,0.0,0.0,0.0,0.0,0.0,0.0,0.0,0.0,0.0,0.0,0.0,0.0,0.0,0.0,0.0,0.0,0.0,0.0,0.0,0.0,0.0,0.0,0.0,-1.8103,-1.7641,-1.732,-1.6977,-1.6474,-1.5827,-1.5799,-1.5799,-1.5799,-1.5359,-1.5359,-1.5814,-1.617,-1.6261,-1.6159,-1.697,-1.7034,-1.6522,-1.6522,-1.6522,-1.6522,-1.6522,-1.6522,-1.6423,-1.582,-1.5231,-1.4652,-1.3982,-1.3409,-1.2929,-1.2861,-1.2871,-1.2881,-1.2881,-1.2881,-1.2881,-1.2881,-1.2881,-1.2881,-1.2881,-1.2393,-1.1814,-1.1765,-1.0214,-0.8146,-0.6077,-0.5039,-0.4546,-0.4525,-0.2232,-0.0112,-0.0,0.0,0.0,0.0,0.0,0.0,0.0,0.296,0.5306,0.5379,0.6148,0.6654,0.6719,0.7437,0.8291,0.921,0.9274,0.9658,1.0498,1.0561,1.0919,1.171,1.2157,1.2708,1.3537,1.561,1.6697,1.6842,2.0177,2.264,2.4208,2.4221,2.4681,-1.1211,0.0,0.0,0.0,0.0,0.0,0.0,0.0,0.0,0.0,0.0,0.0,0.0,0.0,0.0,0.0,0.0,0.0,0.0,0.0,0.0,0.0,0.0,0.0,0.0,0.0,0.0,0.0,-1.8103,-1.7641,-1.732,-1.6747,-1.6246,-1.5799,-1.5799,-1.5799,-1.5799,-1.5668,-1.5668,-1.5814,-1.6819,-1.7089,-1.6725,-1.7895,-1.7947,-1.7076,-1.7076,-1.6879,-1.6522,-1.6522,-1.6522,-1.6423,-1.582,-1.5499,-1.5184,-1.379,-1.3392,-1.3464,-1.2651,-1.2617,-1.2881,-1.2881,-1.2881,-1.2881,-1.2881,-1.2881,-1.2881,-1.2881,-1.2764,-1.2353,-1.1325,-0.9872,-0.8423,-0.7331,-0.6136,-0.521,-0.5222,-0.4174,-0.2621,-0.0447,0.0,0.0,0.0,0.0,0.0,0.0,0.083,0.2424,0.5093,0.5638,0.602,0.6658,0.6915,0.7437,0.8285,0.8355,0.8742,0.9594,0.9658,1.004,1.0926,1.1009,1.1596,1.2716,1.33,1.4663,1.6842,1.9273,2.104,2.2085,2.2984,2.3826,0.0,0.0,0.0,0.0,0.0,0.0,0.0,-1.0406,0.0,0.0,0.0,0.0,0.0,0.0,0.0,0.0,0.0,0.0,0.0,0.0,0.0,0.0,0.0,0.0,0.0,-1.8556,-1.8547,-1.845,-1.8057,-1.7572,-1.7126,-1.6607,-1.6151,-1.5799,-1.5799,-1.5799,-1.5799,-1.5799,-1.5799,-1.5814,-1.6817,-1.6895,-1.6275,-1.7551,-1.7603,-1.6643,-1.6643,-1.645,-1.6158,-1.5919,-1.5969,-1.6128,-1.5764,-1.5362,-1.4837,-1.3842,-1.3357,-1.3069,-1.2463,-1.2292,-1.241,-1.2549,-1.248,-1.2449,-1.2764,-1.2754,-1.2646,-1.2832,-1.2881,-1.2569,-1.1174,-1.0187,-0.9259,-0.7978,-0.7069,-0.6249,-0.5651,-0.5167,-0.4291,-0.2286,-0.1338,-0.0726,-0.0112,0.0,0.0,0.0,0.0,0.0779,0.2869,0.4495,0.5572,0.6083,0.6141,0.6527,0.7372,0.7437,0.7832,0.8683,0.8748,0.9005,0.9518,0.9849,1.0373,1.1104,1.1809,1.3408,1.5985,1.7781,1.926,2.0415,2.1355,2.22,0.0,0.0,0.0,0.0,0.0,0.0,-0.9544,-0.9738,-0.9996,0.0,0.0,0.0,0.0,0.0,0.0,0.0,0.0,0.0,0.0,0.0,0.0,0.0,0.0,0.0,0.0,-1.8715,-1.845,-1.8208,-1.7866,-1.7408,-1.6789,-1.6421,-1.6123,-1.5799,-1.5741,-1.5712,-1.5712,-1.5668,-1.5668,-1.5741,-1.6337,-1.6242,-1.5503,-1.6542,-1.6569,-1.5762,-1.5671,-1.5605,-1.5567,-1.5117,-1.5205,-1.5605,-1.5605,-1.4971,-1.4106,-1.3966,-1.3308,-1.2457,-1.2331,-1.2011,-1.1762,-1.2171,-1.1998,-1.1832,-1.2627,-1.2607,-1.2383,-1.2773,-1.2881,-1.2569,-1.1275,-1.0914,-1.0399,-0.8396,-0.7877,-0.7444,-0.6027,-0.5592,-0.5328,-0.4746,-0.3461,-0.2063,-0.0726,-0.0229,0.0,0.0,0.0,0.0,0.0,0.2806,0.497,0.5379,0.5369,0.5686,0.6465,0.6527,0.6915,0.7832,0.7827,0.7892,0.8027,0.8748,0.9139,0.9139,1.0829,1.2647,1.4674,1.6129,1.7616,1.9224,1.9767,2.0362,0.0,0.0,0.0,0.0,0.0,0.0,-1.3024,-1.252,-1.1383,0.0,0.0,0.0,0.0,0.0,0.0,0.0,0.0,0.0,0.0,0.0,0.0,0.0,0.0,0.0,-1.8678,-1.843,-1.8249,-1.8208,-1.7446,-1.6815,-1.6421,-1.6095,-1.5885,-1.5799,-1.5418,-1.5225,-1.5225,-1.4907,-1.4907,-1.5239,-1.5908,-1.6344,-1.6582,-1.6508,-1.642,-1.631,-1.5452,-1.5079,-1.5067,-1.4953,-1.4979,-1.5079,-1.5079,-1.4926,-1.4621,-1.3744,-1.3541,-1.3553,-1.2691,-1.2285,-1.2253,-1.2717,-1.2514,-1.2197,-1.2725,-1.2822,-1.2773,-1.2852,-1.2881,-1.2715,-1.1823,-1.1616,-1.1216,-0.9755,-0.896,-0.8271,-0.7444,-0.6357,-0.5487,-0.5328,-0.4625,-0.3971,-0.3699,-0.1629,0.0,0.0,0.0,0.0,0.0,0.0595,0.2143,0.5119,0.5382,0.5439,0.5638,0.5627,0.6009,0.6915,0.6981,0.7242,0.7962,0.8156,0.8221,0.8221,0.9926,1.1648,1.3361,1.5666,1.748,1.8733,1.9894,2.0572,0.0,0.0,0.0,-1.0749,0.0,0.0,0.0,-1.2905,-1.2317,0.0,0.0,0.0,0.0,0.0,0.0,0.0,0.0,0.0,0.0,0.0,0.0,0.0,0.0,0.0,-1.7894,-1.7764,-1.7642,-1.7516,-1.691,-1.6378,-1.5976,-1.5623,-1.5359,-1.5165,-1.4907,-1.4783,-1.4783,-1.4596,-1.4596,-1.4783,-1.5124,-1.5338,-1.5413,-1.5475,-1.5415,-1.5247,-1.4727,-1.45,-1.4475,-1.4174,-1.4048,-1.4086,-1.4387,-1.4337,-1.3987,-1.3447,-1.3252,-1.3182,-1.2637,-1.2289,-1.2066,-1.2299,-1.2158,-1.2041,-1.2447,-1.2705,-1.2881,-1.2881,-1.2881,-1.2715,-1.1972,-1.1814,-1.1566,-1.0517,-0.974,-0.9065,-0.833,-0.7374,-0.647,-0.6145,-0.5496,-0.4908,-0.4539,-0.3241,-0.1759,-0.0239,0.0,0.0,0.0,0.0,0.067,0.248,0.3487,0.4428,0.5319,0.5376,0.5564,0.602,0.6079,0.6268,0.6662,0.7116,0.7767,0.8613,0.95,1.0759,1.2389,1.389,1.5531,1.7378,1.827,1.8988,0.0,0.0,0.0,0.0,0.0,-1.2076,0.0,0.0,0.0,0.0,0.0,0.0,0.0,0.0,0.0,0.0,0.0,0.0,0.0,0.0,0.0,0.0,0.0,0.0,0.0,-1.6832,-1.6838,-1.6602,-1.6282,-1.5935,-1.5549,-1.5181,-1.4845,-1.4501,-1.4406,-1.4374,-1.4374,-1.4278,-1.431,-1.4374,-1.4374,-1.4268,-1.4086,-1.4409,-1.4388,-1.4072,-1.3972,-1.3934,-1.3896,-1.3421,-1.3198,-1.3248,-1.3722,-1.3622,-1.3198,-1.3198,-1.2943,-1.265,-1.265,-1.2318,-1.1926,-1.1947,-1.1948,-1.2017,-1.2246,-1.2607,-1.2881,-1.2881,-1.2881,-1.2774,-1.2187,-1.2021,-1.1823,-1.1166,-1.0568,-0.9953,-0.9103,-0.8389,-0.7658,-0.6966,-0.6199,-0.5496,-0.4802,-0.4588,-0.3699,-0.1258,-0.0364,0.0,0.0,0.0,0.0,0.0,0.1328,0.2797,0.4233,0.4703,0.5036,0.5379,0.5369,0.5428,0.5428,0.6075,0.7181,0.8748,0.8947,0.9888,1.1578,1.2041,1.3534,1.5882,1.634,1.7204,0.0,0.0,0.0,0.0,-1.0294,0.0,0.0,0.0,0.0,0.0,0.0,0.0,0.0,0.0,0.0,0.0,0.0,0.0,0.0,0.0,0.0,0.0,0.0,0.0,0.0,-1.5485,-1.5955,-1.5747,-1.5578,-1.5404,-1.518,-1.4783,-1.4564,-1.4501,-1.4149,-1.3967,-1.3967,-1.3547,-1.3547,-1.3967,-1.3967,-1.4199,-1.4585,-1.4172,-1.4012,-1.406,-1.3534,-1.3286,-1.3286,-1.3223,-1.3198,-1.321,-1.3273,-1.3248,-1.3198,-1.3198,-1.3163,-1.3129,-1.3129,-1.2803,-1.2472,-1.2829,-1.291,-1.2855,-1.2837,-1.2842,-1.2881,-1.2881,-1.2881,-1.2881,-1.2774,-1.2774,-1.2608,-1.1873,-1.1616,-1.1208,-0.9953,-0.911,-0.8376,-0.7717,-0.6966,-0.6258,-0.5492,-0.4904,-0.4376,-0.4011,-0.1736,0.0,0.0,0.0,0.0,0.0,0.0194,0.0392,0.0602,0.2075,0.3685,0.5309,0.5376,0.5372,0.5428,0.5491,0.6013,0.6981,0.7767,0.8977,1.0676,1.1483,1.2975,1.5074,1.5826,1.6685,0.0,0.0,0.0,0.0,0.0,0.0,-1.4189,0.0,-1.4249,0.0,0.0,0.0,0.0,0.0,0.0,0.0,0.0,0.0,0.0,0.0,0.0,0.0,0.0,0.0,0.0,0.0,0.0,0.0,-1.4925,-1.4755,-1.4406,-1.4246,-1.4019,-1.3735,-1.3581,-1.348,-1.348,-1.3301,-1.3301,-1.348,-1.348,-1.3608,-1.3826,-1.3595,-1.3518,-1.3559,-1.3298,-1.3198,-1.3198,-1.3198,-1.3198,-1.3198,-1.3198,-1.3198,-1.3198,-1.3198,-1.3198,-1.3198,-1.3198,-1.3082,-1.2923,-1.3065,-1.3122,-1.3119,-1.2981,-1.3168,-1.3324,-1.3017,-1.2881,-1.2881,-1.2881,-1.2881,-1.2822,-1.2501,-1.2129,-1.1665,-1.1065,-1.0391,-0.9725,-0.9026,-0.833,-0.7581,-0.6902,-0.5819,-0.4934,-0.4535,-0.3432,-0.2006,-0.0241,0.0,0.0,0.0,0.0,0.0,0.0,0.072,0.2372,0.5189,0.5386,0.5372,0.5428,0.5428,0.5815,0.6654,0.7046,0.8081,0.9824,1.0142,1.1269,1.3108,1.4357,1.5557,-1.0525,0.0,0.0,0.0,0.0,0.0,0.0,0.0,0.0,0.0,0.0,0.0,0.0,0.0,0.0,0.0,0.0,0.0,0.0,0.0,0.0,0.0,0.0,0.0,0.0,0.0,0.0,-1.3709,-1.41,-1.4082,-1.3487,-1.3511,-1.3297,-1.2826,-1.2838,-1.2838,-1.2838,-1.2838,-1.2838,-1.2838,-1.2943,-1.3012,-1.3012,-1.3129,-1.3198,-1.3198,-1.3198,-1.3198,-1.3198,-1.3198,-1.3198,-1.3198,-1.3198,-1.3198,-1.3198,-1.3198,-1.3198,-1.3198,-1.3198,-1.3198,-1.3206,-1.3307,-1.3379,-1.3437,-1.3453,-1.3598,-1.3732,-1.3286,-1.3017,-1.2881,-1.2881,-1.2881,-1.2881,-1.2881,-1.2501,-1.203,-1.1864,-1.1416,-1.0813,-0.9969,-0.9384,-0.8744,-0.7877,-0.6632,-0.5593,-0.4894,-0.4629,-0.3732,-0.1492,-0.0839,-0.0421,-0.0061,0.0,0.0,0.0,0.0,0.1095,0.3723,0.4827,0.5379,0.5372,0.5369,0.5693,0.6338,0.6593,0.7307,0.8613,0.9075,0.9901,1.1163,1.2874,1.4271,0.0,0.0,0.0,-1.2368,0.0,0.0,0.0,0.0,-1.4126,0.0,0.0,0.0,0.0,0.0,0.0,0.0,0.0,0.0,0.0,0.0,0.0,0.0,0.0,0.0,0.0,0.0,0.0,-1.1749,-1.3067,-1.3467,-1.2411,-1.2487,-1.2318,-1.1847,-1.1847,-1.1847,-1.1847,-1.1847,-1.1847,-1.1847,-1.233,-1.2508,-1.2544,-1.2978,-1.3198,-1.3198,-1.3198,-1.3198,-1.3198,-1.3198,-1.3198,-1.3198,-1.3198,-1.3198,-1.3198,-1.3198,-1.3198,-1.3198,-1.3198,-1.3198,-1.3303,-1.3799,-1.3974,-1.4064,-1.4518,-1.4272,-1.3815,-1.3779,-1.3324,-1.2881,-1.2881,-1.2881,-1.2881,-1.2881,-1.2881,-1.2666,-1.1972,-1.1765,-1.1366,-1.0064,-0.9762,-0.9347,-0.7931,-0.7074,-0.6312,-0.5605,-0.4937,-0.445,-0.4376,-0.3079,-0.1587,-0.0176,0.0,0.0,0.0,0.0,0.0063,0.0193,0.344,0.5396,0.5393,0.5382,0.5442,0.5442,0.6276,0.6719,0.6785,0.8484,0.9338,0.9402,1.1489,1.2876,0.0,0.0,-1.4516,-1.3673,0.0,0.0,0.0,0.0,0.0,0.0,0.0,0.0,0.0,0.0,0.0,0.0,0.0,0.0,0.0,0.0,0.0,0.0,0.0,0.0,0.0,0.0,0.0,-1.2743,-1.257,-1.2113,-1.1419,-1.1802,-1.1619,-1.0678,-1.1398,-1.1605,-1.1191,-1.1605,-1.1811,-1.1811,-1.2282,-1.2508,-1.2508,-1.2978,-1.3198,-1.3185,-1.281,-1.286,-1.3173,-1.281,-1.2872,-1.3198,-1.3198,-1.3198,-1.3198,-1.3198,-1.3198,-1.3198,-1.3198,-1.3471,-1.3835,-1.4014,-1.4543,-1.5073,-1.4834,-1.4887,-1.4903,-1.4514,-1.3967,-1.3515,-1.3515,-1.32,-1.2881,-1.2881,-1.2881,-1.2822,-1.2559,-1.251,-1.2098,-1.072,-1.0466,-1.0012,-0.8685,-0.8209,-0.7664,-0.6421,-0.5647,-0.4988,-0.4556,-0.407,-0.3538,-0.3013,-0.2044,-0.1035,-0.006,0.0,0.0,0.0,0.1122,0.2345,0.3553,0.362,0.4161,0.5389,0.5704,0.5815,0.5855,0.7042,0.8156,0.9338,1.0001,1.1226,-1.4622,-1.5382,0.0,-1.5081,-1.5612,0.0,-1.4675,0.0,0.0,0.0,0.0,0.0,0.0,0.0,0.0,0.0,0.0,0.0,0.0,0.0,0.0,0.0,0.0,0.0,0.0,0.0,-1.1707,-1.1946,-1.2097,-1.1494,0.0,0.0,-1.0263,-0.9295,-0.9993,-1.0301,-1.0118,-1.0685,-1.0971,-1.1008,-1.1641,-1.1962,-1.1966,-1.2442,-1.2663,-1.263,-1.2278,-1.2429,-1.2885,-1.2522,-1.2584,-1.2922,-1.3123,-1.3073,-1.2935,-1.3123,-1.3198,-1.3198,-1.3198,-1.3458,-1.3858,-1.4249,-1.4865,-1.5386,-1.5398,-1.5524,-1.5543,-1.5152,-1.4606,-1.405,-1.3862,-1.3505,-1.3152,-1.2978,-1.2881,-1.2881,-1.2881,-1.2881,-1.2559,-1.1375,-1.1166,-1.072,-0.9361,-0.9159,-0.8679,-0.7235,-0.6578,-0.5919,-0.498,-0.4838,-0.475,-0.4543,-0.3635,-0.2421,-0.092,-0.0788,-0.0815,-0.0949,-0.0975,-0.0132,0.1672,0.1738,0.2285,0.3474,0.4113,0.4779,0.5426,0.5958,0.6972,0.842,0.9011,1.0001]}]]